ECMWFNIL_925_thetae_000.txt.gz
Theta_e
321 318 316 316 316 316 318 318 317 317 316 315 316 316 317 318 316 315 316 316 316 314 313 312 311 311 310 310 310 309 310 311 311 310 310 310 310 309 308 308 307 307
323 322 319 317 316 316 318 319 318 317 316 315 315 315 316 318 318 317 317 317 316 316 314 313 312 311 311 310 310 310 310 311 311 310 311 310 310 310 309 309 308 307
323 323 322 320 318 318 318 318 319 318 317 316 315 315 316 318 318 318 317 317 317 316 315 313 312 311 311 310 310 310 310 310 310 310 311 310 310 310 309 309 308 307
319 317 319 321 321 321 318 316 317 319 319 318 317 316 317 317 318 319 318 318 317 317 315 314 312 311 311 311 311 310 310 310 310 310 310 309 308 308 308 307 307 307
318 316 319 321 323 324 322 318 315 316 319 319 319 317 316 317 318 319 318 318 317 317 316 314 313 312 311 311 311 311 310 310 309 309 309 308 307 307 306 306 306 306
321 320 321 322 323 325 324 322 317 315 316 318 320 318 316 316 317 318 318 318 318 317 316 315 314 312 312 312 312 311 310 309 309 308 308 308 307 306 306 305 305 305
322 323 323 323 323 324 324 323 321 319 317 317 320 319 317 316 317 317 318 318 317 317 316 315 314 313 312 311 311 311 310 309 308 308 308 307 307 306 306 305 304 304
321 322 323 323 323 324 323 322 321 321 320 319 320 320 318 317 317 318 318 318 318 317 316 315 314 312 312 311 311 310 309 309 308 308 307 307 307 306 305 305 305 304
322 322 322 323 323 323 323 323 322 322 321 320 320 320 319 318 317 318 318 317 317 317 316 315 313 312 311 311 311 310 309 309 308 307 307 307 307 305 304 304 305 304
323 323 322 322 323 323 322 323 323 322 322 321 320 321 320 318 318 319 318 317 317 317 316 314 313 312 311 311 311 310 309 309 308 307 307 306 306 305 304 304 304 304
323 322 322 322 323 323 322 322 322 322 322 321 320 321 321 319 320 319 318 318 318 317 316 314 313 312 311 311 310 309 309 308 307 307 306 306 305 304 303 303 303 303
322 322 323 323 323 323 322 321 321 321 322 320 320 320 321 320 320 319 318 318 318 317 315 314 313 312 311 310 309 309 308 308 307 306 305 304 304 303 302 302 302 302
322 322 323 323 323 323 323 322 322 321 322 321 320 320 321 320 319 319 319 318 318 316 315 314 313 312 311 310 309 308 308 307 306 305 304 303 301 300 300 300 300 300
320 321 321 322 322 323 323 323 323 322 322 321 321 320 320 320 319 319 318 318 317 316 314 313 312 311 310 309 309 308 307 307 305 304 302 301 300 299 299 299 299 299
316 318 319 320 321 321 322 322 322 322 322 322 321 321 320 320 320 319 318 317 316 315 314 313 312 311 310 309 308 308 306 305 303 302 301 300 299 299 298 298 298 298
313 315 317 318 319 320 320 321 321 322 322 322 321 321 320 320 319 317 316 316 315 314 313 312 311 310 309 307 307 306 304 303 301 300 299 298 298 298 298 298 298 298
310 312 315 317 318 318 320 320 320 321 320 321 321 320 320 318 316 315 314 313 313 313 313 312 311 309 307 306 304 303 302 301 300 299 298 298 298 297 298 298 298 298
308 309 311 314 316 317 318 319 319 319 320 319 319 318 317 316 314 314 313 313 313 312 312 311 309 307 305 304 303 302 301 300 300 299 298 297 297 297 297 297 297 297
308 308 309 312 315 316 317 318 318 318 318 319 318 317 316 315 314 314 313 313 312 310 309 308 307 306 305 303 302 302 299 298 298 298 298 297 297 297 297 297 297 297
308 308 309 310 312 314 316 317 317 317 317 317 317 316 315 315 314 313 313 312 310 308 307 306 306 305 304 303 302 299 296 296 298 298 297 297 297 296 296 297 297 297
308 309 309 309 311 313 315 316 316 316 316 316 316 316 315 314 313 313 312 310 308 308 306 305 305 305 303 301 299 296 294 295 297 298 297 297 297 297 297 297 297 297
309 309 309 310 311 313 314 315 315 315 315 315 316 315 314 314 312 311 310 308 308 307 306 305 304 303 301 299 296 294 294 295 297 298 298 297 297 297 297 297 297 297
309 309 309 310 311 312 313 314 315 314 314 314 314 314 314 313 311 310 309 308 307 305 304 303 302 300 299 297 294 293 294 295 297 298 298 298 298 298 298 297 297 297
309 309 309 310 311 312 313 314 314 314 314 314 314 314 314 312 310 309 308 306 305 304 303 302 301 299 297 295 293 293 294 296 297 298 298 298 298 298 298 298 297 297
309 309 309 310 311 312 313 313 313 313 313 313 314 314 314 313 310 308 306 305 304 303 302 302 299 296 295 294 294 293 293 295 297 297 297 298 298 298 298 298 297 297
309 309 310 310 311 312 312 312 312 312 312 313 313 314 314 312 309 306 304 304 303 301 300 300 299 297 295 294 294 294 293 294 296 297 297 298 298 298 298 297 297 297

ECMWFNIL_925_thetae_006.txt.gz
Theta_e
319 319 318 319 321 320 320 320 319 320 319 319 319 319 318 317 317 318 317 316 315 314 315 314 314 313 314 314 313 313 314 313 313 312 310 308 307 309 309 306 307 311
319 319 318 318 320 320 320 319 320 319 318 320 320 319 319 318 317 318 318 315 315 314 314 313 313 312 312 313 313 312 313 312 312 312 313 313 309 309 309 308 308 311
320 320 319 318 319 320 320 319 320 319 317 319 320 320 320 318 317 319 318 316 316 315 314 314 314 314 313 313 313 313 313 313 314 313 313 313 312 311 311 310 310 309
321 320 319 319 319 320 320 319 320 320 318 317 319 320 321 319 318 319 319 318 317 316 315 315 315 314 313 313 313 313 313 314 314 313 312 311 312 311 310 309 309 309
322 321 321 320 319 320 320 320 320 320 319 318 318 320 321 320 319 319 320 319 318 317 316 316 315 314 313 313 313 313 313 313 312 313 313 312 311 310 309 309 309 309
323 323 322 321 321 320 320 321 320 321 320 318 318 319 321 321 319 319 320 319 319 319 318 316 315 314 313 313 313 313 312 312 312 313 313 312 311 310 310 310 310 310
324 324 324 323 322 321 320 321 320 319 319 319 319 318 320 321 321 320 320 320 320 320 319 317 316 315 314 314 315 313 313 313 312 312 313 312 311 310 310 310 310 310
323 324 324 322 321 321 320 321 321 320 320 320 319 319 319 320 320 320 321 320 320 320 319 318 316 316 315 314 315 314 314 314 312 311 312 312 312 311 310 309 309 308
323 323 324 324 324 324 322 320 320 320 320 319 319 320 319 320 320 320 320 320 320 320 320 319 318 317 316 315 315 314 314 314 312 311 311 312 311 311 310 310 309 308
325 325 325 325 325 325 325 323 322 322 321 319 317 318 319 319 320 319 319 319 320 320 320 319 318 317 316 316 315 315 315 314 313 312 312 311 311 310 310 310 310 309
326 325 326 327 326 326 325 324 323 323 322 321 320 320 320 321 320 319 318 319 320 320 320 320 319 318 317 316 315 315 315 314 313 312 312 311 311 311 310 310 309 309
326 325 326 326 326 326 325 324 323 322 322 322 322 321 320 320 320 319 319 319 319 320 320 320 320 319 318 317 316 315 315 314 313 313 312 312 312 311 310 309 308 308
324 324 324 324 323 322 322 323 323 322 322 322 321 321 320 320 320 320 320 320 320 320 320 320 320 319 319 318 316 315 315 315 314 313 313 312 312 311 310 309 308 307
318 319 321 321 321 321 321 321 322 322 322 322 321 321 321 321 321 321 321 321 320 320 319 319 319 320 319 318 317 316 315 315 314 314 313 312 312 311 310 308 308 307
314 315 317 318 318 319 319 319 320 321 321 322 322 322 322 321 321 321 321 321 321 320 319 319 319 319 319 319 318 317 316 315 315 314 313 312 311 310 309 307 306 305
313 314 315 316 316 318 318 317 319 320 320 320 322 323 323 322 323 322 322 322 321 321 320 319 320 319 318 319 318 317 316 315 314 314 313 312 311 309 307 306 305 304
311 311 312 312 313 316 317 317 318 320 320 320 321 322 322 323 324 324 323 323 323 322 321 320 320 319 319 318 318 317 316 315 314 313 313 311 309 307 306 305 304 303
310 310 310 311 311 312 313 315 316 317 318 318 320 320 320 322 322 323 323 323 323 323 322 321 321 320 319 318 318 317 316 315 313 313 311 309 308 306 305 304 304 303
310 310 310 310 311 311 311 311 313 315 316 317 318 319 319 320 320 321 321 322 322 322 322 322 321 321 319 319 318 316 315 314 312 311 309 307 306 305 304 304 303 303
310 310 310 310 310 310 310 310 311 312 314 317 317 317 318 319 319 319 319 319 320 321 320 319 320 319 318 318 316 314 313 312 309 308 306 305 304 304 303 303 303 302
311 310 310 310 310 310 310 310 310 311 312 315 316 316 316 317 318 318 318 318 319 319 318 317 317 316 315 314 313 312 311 309 307 306 305 304 304 303 303 303 302 302
311 310 310 310 310 310 310 310 310 311 312 314 315 316 316 316 316 317 317 318 318 319 318 317 315 313 312 311 311 311 309 307 305 304 304 303 303 302 302 302 301 301
310 310 310 310 309 309 309 310 310 310 311 313 315 316 316 315 315 315 316 316 317 317 316 316 314 310 309 309 309 308 307 305 304 304 303 302 302 302 302 302 301 301
309 309 309 309 309 309 309 309 309 310 310 312 314 315 315 315 315 315 315 315 316 315 314 314 311 308 307 307 307 306 305 304 303 303 302 302 302 302 302 302 302 301
307 308 309 309 309 310 310 310 310 309 310 311 313 314 314 314 314 314 314 315 314 313 312 312 310 307 307 307 306 305 304 303 301 301 301 301 302 302 302 302 302 302
306 307 308 308 309 310 310 310 310 310 310 310 312 313 314 313 313 313 314 313 312 310 309 309 309 307 306 306 304 302 300 300 300 300 300 300 300 301 301 301 301 301

ECMWFNIL_925_thetae_009.txt.gz
Theta_e
318 319 318 318 318 318 318 319 319 319 318 316 315 315 314 314 314 315 315 313 310 310 311 313 314 314 313 313 313 313 312 310 307 304 303 302 302 303 307 310 310 309
318 319 318 318 319 318 319 320 319 319 318 317 317 316 315 314 315 317 315 313 310 308 309 311 314 314 313 314 313 311 311 310 309 310 308 305 305 306 308 310 311 310
318 319 319 318 319 319 319 319 319 319 319 318 318 318 317 315 316 317 315 311 309 308 307 308 312 313 313 312 311 309 309 311 313 314 313 310 309 308 308 309 310 310
320 319 319 319 319 320 320 320 319 319 319 319 318 318 319 317 315 317 316 312 308 308 307 308 312 313 311 311 312 310 310 311 312 313 312 311 311 310 308 308 309 309
319 319 319 320 319 319 320 320 318 319 320 320 319 319 319 318 317 317 317 314 311 310 308 309 313 314 312 311 313 312 311 311 310 309 310 310 310 310 307 307 308 308
319 319 318 319 320 318 319 320 318 318 319 319 319 320 319 319 318 318 317 316 315 314 311 310 312 314 312 311 313 312 311 312 310 309 311 310 308 308 307 306 307 308
320 320 318 319 321 320 319 320 320 318 318 319 320 320 320 319 319 318 318 317 316 317 315 312 311 313 313 311 313 313 312 312 311 310 313 312 308 308 308 308 308 309
322 322 322 321 322 321 320 320 321 319 318 320 321 320 320 320 320 319 318 317 317 317 318 316 313 313 312 311 312 313 312 312 312 311 313 313 310 310 309 308 308 309
324 324 323 323 322 321 321 321 322 321 319 319 320 321 321 320 320 320 319 318 318 318 318 318 317 315 314 312 312 314 313 312 312 312 312 313 312 311 310 309 308 307
324 324 323 324 323 323 322 321 321 320 320 319 319 321 321 321 320 320 320 320 319 319 319 319 319 317 316 314 313 313 314 313 313 313 312 311 312 312 311 310 309 309
324 324 324 325 325 325 324 323 322 320 320 319 318 319 320 321 321 321 321 320 320 320 320 320 320 319 318 317 315 314 314 314 314 314 312 311 311 312 311 310 311 310
325 325 325 325 325 325 325 324 323 322 320 319 319 318 318 319 321 321 321 320 320 320 320 320 320 320 319 318 317 315 314 315 314 314 313 311 311 312 311 310 310 310
323 322 323 324 325 325 325 325 324 323 322 320 319 318 317 318 319 320 319 319 319 319 319 320 320 320 319 319 318 317 315 315 315 314 313 312 311 311 311 311 310 309
321 320 320 321 322 322 323 323 323 322 322 321 319 318 318 318 318 318 317 317 317 316 317 318 320 320 320 319 319 317 316 315 315 314 314 313 312 312 311 311 310 309
320 321 320 320 320 320 320 321 321 321 321 321 320 320 319 319 318 318 318 317 316 316 316 317 319 320 320 320 319 318 317 316 315 315 314 313 312 312 311 311 310 309
315 317 317 317 318 318 318 319 319 319 319 318 319 319 319 320 320 320 319 318 318 318 318 319 320 320 320 320 319 319 317 316 315 315 314 313 313 312 311 310 309 308
314 314 314 316 317 317 316 316 316 317 318 318 318 318 318 319 319 319 319 320 320 320 320 320 321 321 320 319 319 319 318 317 316 315 314 314 313 312 311 311 309 307
313 313 313 314 315 316 317 317 317 319 319 320 320 320 320 320 320 320 320 321 321 322 322 322 322 322 322 321 320 320 319 318 317 316 315 314 313 312 312 310 308 306
310 310 310 311 312 313 314 314 315 316 317 317 319 320 321 321 321 321 322 322 322 322 322 322 322 323 323 322 321 320 319 318 317 316 315 314 313 312 311 309 307 305
310 310 310 310 310 310 310 311 311 311 313 315 317 318 319 320 321 321 321 320 320 320 319 320 321 321 322 322 321 320 319 317 316 315 314 313 312 310 308 307 305 304
310 310 310 310 310 309 309 310 310 310 311 312 315 316 316 317 319 319 319 318 317 316 317 318 319 319 319 319 320 318 317 316 314 313 312 310 309 307 305 305 304 303
310 310 310 310 309 309 309 309 309 310 310 311 312 315 315 315 316 317 317 318 317 316 316 317 317 317 317 316 316 316 315 313 311 309 308 307 306 305 304 304 303 303
310 310 310 309 309 309 309 309 309 309 309 310 312 313 315 315 315 315 316 316 318 318 317 317 316 315 314 313 312 312 312 310 308 307 306 305 305 304 303 303 303 302
310 309 309 309 309 309 308 308 309 308 309 309 310 312 313 314 315 315 314 315 316 317 317 317 315 314 312 310 309 310 309 308 306 305 304 303 303 303 302 303 302 302
308 308 309 309 309 309 308 309 309 308 308 308 309 311 312 313 314 314 314 314 315 315 315 315 314 312 310 309 308 308 308 307 305 304 303 302 302 302 302 302 302 302
306 307 308 308 308 307 308 309 309 309 309 308 309 309 311 312 313 313 313 314 314 314 314 314 314 312 309 307 307 307 306 306 304 303 302 302 301 301 300 301 301 301

ECMWFNIL_925_thetae_012.txt.gz
Theta_e
320 319 318 318 320 321 320 318 314 313 313 311 309 309 308 309 310 310 311 313 314 313 312 312 311 310 307 306 305 303 302 302 302 303 304 306 309 310 310 309 308 307
320 319 317 318 320 321 320 316 313 312 311 309 308 307 307 309 310 310 310 311 312 312 313 313 313 313 310 308 306 304 303 304 304 303 303 305 308 309 309 308 307 307
320 319 318 318 319 321 319 316 315 314 311 308 307 307 308 309 310 309 307 308 310 312 314 314 313 313 313 310 307 305 305 306 306 306 304 304 306 308 309 309 309 309
321 320 319 318 318 319 319 317 317 316 313 311 310 308 308 309 310 310 308 306 306 308 312 313 313 312 312 311 307 305 306 308 308 307 305 304 305 306 308 309 309 310
320 321 319 318 317 317 317 318 318 317 316 315 314 312 311 310 310 311 309 307 305 305 308 311 312 312 312 311 309 308 308 309 310 309 307 305 305 305 305 307 309 309
319 321 321 319 317 316 317 318 318 318 317 317 317 316 315 313 311 311 309 308 307 305 306 307 309 311 312 311 312 312 310 309 310 310 307 306 306 307 305 306 307 307
317 321 321 319 318 317 318 319 319 319 318 318 318 317 317 316 314 313 312 309 308 307 307 306 307 309 311 311 312 313 311 311 311 310 309 309 308 307 306 306 307 308
317 321 321 320 318 318 319 319 319 319 318 318 318 318 318 317 317 317 315 313 312 311 310 309 308 308 309 309 310 312 312 311 312 310 310 311 311 309 307 306 307 308
320 322 321 320 318 318 319 319 319 319 319 319 318 318 319 318 318 318 317 317 316 315 315 314 313 311 310 309 308 309 311 311 312 311 310 311 312 311 310 308 307 306
322 322 321 320 320 320 319 319 319 319 319 319 319 318 319 318 319 318 318 318 317 318 317 317 317 316 314 313 311 310 310 311 311 311 310 311 312 312 311 310 309 308
322 322 322 321 321 321 320 320 320 319 318 320 319 319 319 319 319 319 318 319 318 318 318 318 318 318 317 316 316 314 312 311 311 311 311 312 312 312 312 311 311 310
321 322 322 322 321 321 321 320 320 319 320 320 319 319 319 318 319 319 319 319 318 318 319 319 318 318 318 318 318 317 316 314 313 312 312 312 312 312 311 311 311 311
322 322 322 321 322 321 321 320 320 319 319 320 320 320 319 319 319 319 319 319 319 319 319 319 319 319 319 319 319 319 318 316 315 313 313 313 313 313 311 311 311 311
321 321 321 321 322 322 321 321 321 320 319 320 321 321 321 321 321 320 320 320 320 320 319 319 320 320 320 320 319 319 318 318 317 315 314 313 313 314 312 311 311 311
320 321 322 321 321 322 322 321 320 320 319 319 319 319 319 320 320 320 320 320 320 320 319 319 319 319 319 319 319 319 318 318 317 316 315 314 314 314 313 311 311 311
320 320 321 320 319 320 320 319 319 320 321 320 319 318 317 318 318 318 319 319 319 319 318 318 317 317 317 317 318 319 319 318 318 317 316 315 314 314 313 312 311 311
320 320 320 320 320 319 320 320 320 320 321 321 320 319 319 319 319 319 319 319 319 319 319 319 318 318 318 318 319 319 320 319 318 317 317 316 315 314 313 312 311 311
318 318 319 319 318 318 318 319 319 319 320 320 319 319 318 318 318 318 319 318 318 319 320 320 320 321 321 321 321 320 320 320 319 318 317 316 315 315 314 313 312 310
314 314 316 317 316 316 317 317 317 317 318 319 319 318 319 319 319 319 319 319 320 321 321 322 322 322 322 321 321 322 321 321 319 318 317 316 315 314 314 312 311 310
311 311 313 313 313 314 314 314 313 314 314 315 316 317 318 319 320 320 320 321 321 321 320 320 319 318 318 319 320 321 321 321 320 318 316 315 315 313 312 311 310 308
310 310 310 311 311 311 311 311 310 310 311 312 314 315 316 317 317 319 320 321 321 320 317 316 315 314 315 317 318 318 318 319 319 318 316 314 313 312 311 309 308 307
309 309 310 310 309 309 309 309 309 309 310 310 312 313 314 315 315 316 318 319 319 318 317 316 316 315 315 315 316 316 317 317 317 316 314 312 311 310 309 307 306 306
309 310 310 309 308 308 308 308 308 309 309 309 311 312 313 314 314 314 315 316 316 316 316 317 316 316 316 315 315 315 315 315 314 313 311 309 309 307 306 306 305 304
309 310 309 309 308 308 308 308 308 308 308 308 309 310 311 312 314 314 314 314 314 314 315 316 316 316 316 315 314 314 313 312 311 310 308 307 307 306 305 304 303 302
308 310 309 309 308 308 308 308 308 308 307 307 307 309 310 310 312 313 314 314 314 314 315 315 316 316 314 312 312 311 311 310 309 308 306 305 305 304 303 302 302 302
307 308 309 309 308 308 308 308 307 308 308 307 306 307 307 308 309 311 313 314 313 314 314 315 315 314 312 310 309 309 308 308 307 307 305 304 303 302 302 302 302 302

ECMWFNIL_925_thetae_018.txt.gz
Theta_e
320 319 319 318 316 313 313 318 319 318 318 316 313 313 314 313 312 311 310 308 310 314 315 313 313 313 314 314 315 317 318 318 315 313 311 312 312 311 310 308 307 307
320 319 318 317 316 315 315 317 317 316 316 313 310 312 313 313 312 311 310 308 308 310 309 307 306 306 306 306 307 310 313 312 310 308 309 309 309 307 305 303 303 303
321 319 319 317 317 316 315 314 315 315 315 312 309 311 313 312 312 311 310 309 309 309 308 305 304 303 303 303 303 304 305 305 305 306 308 307 306 304 303 303 303 303
320 319 318 318 318 317 315 314 315 315 315 313 310 310 311 311 312 311 311 311 311 310 310 308 306 304 303 302 302 302 302 302 304 306 307 306 305 305 305 305 305 305
319 319 318 318 319 317 314 315 316 316 316 314 311 310 311 310 311 312 311 312 312 311 311 311 310 307 304 303 303 303 302 302 304 305 305 307 307 307 306 305 305 307
318 318 318 318 319 316 312 313 316 316 317 315 311 310 310 309 310 311 312 312 312 312 312 312 312 311 308 305 304 305 304 303 304 304 304 305 307 307 307 305 304 305
317 317 317 319 319 315 311 312 315 316 318 316 312 310 310 309 309 310 311 312 312 312 312 312 313 313 311 308 306 306 307 306 305 305 305 305 305 306 307 307 306 305
317 316 317 319 319 315 312 313 315 317 318 318 314 312 312 310 309 310 312 313 312 312 312 313 312 312 312 310 308 308 308 308 307 306 306 305 305 305 306 307 307 307
317 318 319 319 319 315 310 312 317 318 319 318 315 314 314 313 311 311 311 313 313 312 312 312 312 312 312 311 310 310 310 310 309 308 307 306 305 305 305 306 307 307
317 318 319 319 319 317 312 313 318 319 319 318 316 315 315 315 314 312 311 312 312 312 311 311 311 312 312 311 311 311 312 311 311 310 309 308 308 308 307 307 306 307
318 318 318 318 319 318 316 316 318 319 319 318 317 317 316 315 315 314 314 313 313 313 313 312 311 311 311 312 312 312 312 312 311 311 311 310 310 310 310 309 309 308
319 318 319 319 319 319 319 318 319 318 318 318 318 317 317 316 316 316 315 315 315 315 315 315 314 312 311 311 311 312 312 312 312 311 311 311 311 310 311 311 310 310
319 319 319 319 319 320 320 319 319 319 318 318 318 318 318 318 317 317 317 316 316 316 316 316 316 315 314 313 313 312 312 312 312 312 311 311 311 311 311 311 311 311
319 319 319 320 319 319 319 320 320 319 319 319 318 318 318 318 318 318 318 317 317 317 317 317 317 317 316 316 315 315 314 314 314 313 312 312 313 312 312 312 313 313
319 319 319 320 321 320 320 320 320 320 319 317 317 318 319 318 317 317 317 317 318 317 317 317 317 317 317 317 316 316 315 315 316 315 315 315 317 316 315 315 316 316
319 319 320 320 321 321 320 320 320 320 318 316 316 317 317 317 317 317 316 317 318 317 318 318 317 317 317 317 317 317 317 317 317 317 316 317 318 318 318 317 317 318
320 320 321 320 320 320 320 320 320 320 319 318 317 317 317 317 316 316 316 317 318 318 317 317 317 317 317 317 317 317 317 317 317 317 317 317 318 318 318 318 318 318
320 320 320 320 320 320 320 319 319 319 319 318 318 317 317 317 317 316 316 317 318 318 316 316 316 317 317 318 319 318 318 318 318 319 319 319 319 319 319 319 318 318
319 319 319 320 319 320 320 319 319 319 319 318 318 318 318 318 318 318 317 318 318 317 316 317 317 317 318 319 319 319 319 319 319 319 320 320 320 319 319 318 317 316
319 319 318 319 319 319 319 319 319 319 318 318 318 318 318 318 318 318 318 318 318 317 318 318 317 318 319 318 317 316 317 317 317 317 318 319 319 319 318 318 316 315
316 317 318 318 318 318 318 318 318 319 318 318 318 318 318 318 318 318 318 317 318 318 318 318 319 319 318 315 314 314 313 313 313 315 316 317 318 317 317 316 314 313
312 314 316 318 318 318 318 317 316 316 316 316 317 317 317 317 318 318 318 318 318 319 319 320 320 318 315 314 314 314 312 311 312 314 315 315 315 314 313 313 311 310
310 312 314 315 316 316 316 313 311 311 311 312 314 315 316 316 316 315 316 316 317 317 318 319 319 316 314 314 315 314 312 311 312 314 314 313 312 311 310 309 309 307
309 309 311 312 313 313 312 310 308 309 309 310 311 313 314 314 314 314 314 314 314 314 315 316 316 315 314 314 314 313 312 312 312 313 312 311 310 308 307 306 305 304
307 308 309 310 310 309 309 308 308 308 308 308 308 309 311 312 312 313 312 312 312 312 313 314 314 313 313 313 313 313 312 311 312 312 310 309 307 305 304 303 303 302
306 307 308 308 309 308 307 307 307 307 307 307 307 307 308 309 309 308 308 307 307 307 307 310 312 313 313 313 312 312 311 311 311 311 310 308 306 305 304 303 302 301

ECMWFNIL_925_thetae_021.txt.gz
Theta_e
322 322 321 319 318 317 314 315 318 318 318 316 315 315 316 314 312 311 311 314 318 318 318 318 318 318 319 318 317 316 317 315 314 315 315 315 314 314 313 313 313 311
322 322 321 318 318 318 314 315 317 318 317 314 312 313 314 312 312 311 310 312 315 315 314 314 313 314 315 316 316 316 316 314 312 313 312 311 310 308 307 307 306 305
321 320 319 316 317 318 316 315 317 317 317 312 310 312 313 312 312 311 310 309 310 311 310 309 308 308 309 312 314 314 312 310 310 310 309 306 305 304 303 302 302 302
320 318 319 318 318 318 316 315 314 315 316 312 309 310 311 312 312 311 310 309 310 310 309 308 306 304 304 306 309 309 309 308 308 307 305 303 303 302 302 303 303 303
319 318 320 319 319 318 317 316 312 313 316 314 309 308 309 311 312 311 311 310 310 311 311 310 308 305 303 303 304 305 306 308 307 306 305 305 305 304 304 305 305 306
319 319 320 319 319 318 318 316 311 313 317 315 311 310 309 309 310 310 311 311 311 311 311 312 312 309 306 305 305 304 304 307 307 307 307 307 306 306 306 307 307 308
319 319 319 319 319 318 318 317 313 314 317 315 313 312 311 309 309 309 310 311 312 312 312 312 313 312 310 308 308 307 306 306 307 307 308 308 307 306 305 306 307 308
319 319 319 319 318 318 319 318 314 314 317 316 315 313 312 311 309 309 309 311 311 312 312 312 313 313 312 310 309 309 309 308 307 307 307 307 307 307 306 306 306 306
318 318 318 318 317 317 318 318 315 314 316 317 316 314 313 312 311 310 310 311 312 312 312 312 312 312 312 311 310 310 311 311 310 309 308 306 307 307 307 307 307 307
318 318 318 317 316 316 318 319 317 314 314 317 317 315 313 313 313 311 310 311 312 313 312 312 312 312 312 312 311 311 311 311 311 311 310 308 308 307 306 306 308 309
318 318 318 317 316 317 318 319 317 313 314 317 318 316 315 314 314 313 312 312 312 313 314 313 312 312 311 311 312 311 312 312 312 312 311 311 310 309 308 308 307 308
319 318 318 317 318 318 319 319 317 314 314 317 318 317 316 316 316 315 314 314 314 314 314 315 314 314 313 312 312 312 312 312 312 312 311 311 311 311 311 310 309 309
319 319 318 318 318 318 318 318 318 316 316 317 317 317 317 316 317 316 316 316 316 315 315 316 316 316 316 315 315 315 315 314 314 313 313 312 312 312 311 311 311 310
320 320 319 318 318 318 318 319 319 318 318 318 318 318 318 317 317 317 317 317 317 317 316 317 317 317 316 316 317 317 317 316 316 315 315 314 314 314 314 313 312 311
320 320 319 319 319 319 319 319 319 320 319 319 318 318 318 318 318 318 317 317 318 317 316 317 316 317 316 316 317 317 317 317 316 316 316 316 316 317 317 316 315 313
319 319 319 319 319 319 320 319 319 319 319 318 318 318 318 319 318 318 318 318 317 317 317 317 316 317 317 317 317 317 316 317 317 317 317 317 317 317 317 317 317 315
319 318 319 319 319 319 320 320 319 319 319 318 318 318 318 318 318 318 318 317 317 317 316 316 316 316 317 317 316 316 316 317 317 317 317 317 317 317 317 317 317 317
319 319 319 319 319 320 320 320 319 319 319 318 318 318 318 318 318 318 317 317 317 317 316 315 316 316 315 315 314 315 317 318 317 317 317 318 318 318 318 318 317 317
320 319 319 319 319 319 319 319 319 319 319 318 318 318 318 318 317 317 317 317 316 316 315 315 314 314 314 314 315 317 318 319 319 319 319 319 319 319 319 319 318 317
319 319 319 319 319 319 319 319 319 319 319 319 319 318 318 318 318 317 317 317 316 316 315 315 315 315 315 316 317 318 319 318 318 318 318 319 319 319 319 319 318 317
314 316 317 318 318 319 318 319 319 318 319 319 318 318 318 318 318 318 317 317 317 317 317 317 316 315 316 317 318 317 315 314 315 315 315 316 317 318 318 318 317 316
308 311 313 315 317 318 318 318 318 318 318 318 318 318 318 317 318 318 318 318 317 317 318 317 315 315 317 318 316 314 313 312 311 313 314 316 316 316 315 314 313 312
307 308 309 312 315 317 318 318 317 317 317 317 317 317 317 317 317 317 318 318 317 317 317 317 316 317 317 316 314 313 312 311 311 313 314 314 313 312 311 310 310 309
306 307 308 310 312 315 317 316 313 312 313 314 315 317 317 317 317 317 317 318 317 317 317 317 317 317 315 314 314 313 312 311 312 313 313 311 310 309 309 308 307 306
305 305 306 308 309 312 314 313 310 309 310 311 313 315 315 315 316 315 316 316 316 316 316 316 315 315 314 314 314 313 312 312 312 312 311 309 308 307 305 305 304 303
303 304 305 306 307 309 311 310 308 308 309 310 312 314 314 314 314 314 313 313 312 312 313 314 314 314 313 314 313 312 312 312 311 311 309 307 305 304 303 302 301 301

ECMWFNIL_925_thetae_024.txt.gz
Theta_e
330 329 328 327 325 323 322 321 321 321 320 319 319 320 320 320 319 319 320 321 322 321 321 321 321 321 320 320 320 319 319 320 320 321 321 322 322 322 322 321 319 318
329 329 327 326 324 322 321 321 320 319 319 318 319 319 319 318 318 319 319 319 319 318 318 317 318 319 319 319 319 318 317 317 318 318 318 318 318 318 318 318 316 314
326 327 325 324 325 324 322 321 320 319 318 318 318 319 318 318 318 318 317 317 316 316 314 314 314 316 316 317 318 317 316 315 316 316 315 315 315 315 315 314 314 313
323 323 322 323 325 324 320 320 321 319 317 317 318 318 317 318 318 317 316 316 315 315 313 312 311 312 313 315 315 314 314 314 314 313 313 313 313 313 314 314 314 314
322 322 322 323 324 321 319 320 321 319 317 317 318 318 317 317 317 316 316 315 315 315 314 312 311 311 312 313 313 313 312 312 312 311 311 312 312 313 314 314 315 315
324 325 324 323 321 319 320 322 320 318 317 317 318 318 317 317 317 316 315 315 315 315 314 314 312 312 312 312 312 313 312 311 312 311 311 312 312 313 313 314 315 315
325 325 324 321 321 321 323 323 320 319 319 318 318 318 317 317 316 315 315 315 315 315 315 316 314 313 313 313 313 313 313 312 313 312 312 312 312 313 313 313 313 313
326 326 324 323 323 324 325 323 320 319 320 319 318 319 317 316 315 316 316 316 315 315 316 317 316 315 315 314 313 313 313 313 314 313 312 312 312 312 312 313 313 312
326 326 325 325 325 325 325 324 320 318 319 319 319 319 319 317 316 316 315 315 315 316 316 317 316 315 315 315 315 314 314 314 314 313 313 313 313 312 311 312 313 312
326 326 325 325 325 325 325 324 321 319 319 320 320 319 318 318 317 316 315 315 315 315 315 316 316 316 316 315 316 316 316 315 314 314 314 313 313 312 311 311 312 313
325 325 325 325 324 324 324 324 322 320 319 320 321 320 319 318 317 317 317 316 316 315 316 315 315 316 315 315 315 316 316 316 315 315 315 314 315 314 313 312 313 314
325 325 325 325 324 324 323 323 323 322 321 321 321 321 320 319 318 318 318 318 317 316 316 316 316 316 316 315 315 315 316 316 316 316 316 315 315 315 314 314 314 315
326 325 325 324 324 324 323 323 323 323 322 321 321 321 321 320 320 319 319 319 318 318 318 318 318 318 318 317 317 317 318 318 318 318 317 317 316 316 315 316 315 315
325 325 325 324 324 324 323 323 323 323 322 321 321 321 321 321 321 320 320 320 320 320 320 320 320 321 320 320 320 320 321 321 321 320 319 319 319 318 318 317 317 316
325 325 324 324 324 324 323 323 323 322 322 321 322 322 322 322 321 321 321 321 321 321 321 321 321 321 321 321 322 322 322 322 322 321 321 321 321 321 320 320 320 319
324 324 324 324 324 324 323 322 322 322 323 323 323 322 323 323 322 322 323 322 322 321 319 319 319 319 319 318 319 320 321 321 322 321 321 321 321 322 321 322 321 321
323 324 324 323 323 323 322 322 322 322 323 323 323 323 323 324 323 323 323 322 322 321 318 317 317 317 316 316 317 317 318 319 320 321 321 322 322 322 322 322 321 321
323 323 323 323 323 323 322 322 322 322 323 323 323 323 323 323 323 323 322 321 322 321 320 318 317 316 316 316 316 316 316 316 317 319 319 320 321 321 321 320 319 320
322 323 323 323 323 323 322 322 322 322 323 323 323 323 322 322 322 321 322 321 321 321 321 320 318 317 316 316 316 316 315 314 315 317 318 319 320 320 320 320 320 321
317 319 321 321 322 322 322 322 322 322 322 322 322 322 322 321 321 321 321 321 321 321 321 320 319 317 316 316 316 315 314 314 317 318 318 319 320 320 320 320 320 320
313 314 316 318 320 320 321 322 322 322 322 322 322 322 322 321 321 321 321 321 322 321 321 320 319 317 316 315 314 314 314 316 318 317 316 317 319 319 319 319 319 319
311 311 313 315 317 318 320 321 321 321 321 321 322 322 322 322 322 322 322 322 322 321 321 320 319 317 316 315 315 315 316 316 315 313 314 317 318 317 317 317 317 317
310 310 311 313 314 316 318 319 320 320 320 320 321 321 321 321 321 322 322 322 321 320 320 320 319 317 315 316 316 316 315 315 314 313 314 316 316 315 315 314 314 314
309 309 310 311 312 314 315 317 318 318 318 319 319 320 320 321 321 321 321 321 320 320 320 320 318 316 315 317 317 315 314 315 315 314 315 315 314 313 311 310 310 311
307 308 309 310 311 312 314 316 317 317 316 317 317 318 320 321 320 320 320 320 319 319 318 318 317 316 316 317 316 313 313 315 314 313 314 313 312 311 308 307 307 307
306 307 307 308 309 310 311 313 315 315 315 315 315 315 318 319 319 320 319 318 317 318 317 317 317 316 316 316 314 312 313 314 313 312 313 312 311 310 308 306 305 304

ECMWFNIL_925_thetae_027.txt.gz
Theta_e
329 329 329 327 325 323 323 323 322 322 322 321 322 323 323 321 321 322 323 324 323 323 322 322 321 320 320 321 322 321 322 322 322 323 325 325 326 325 324 322 321 320
329 329 328 326 324 323 324 323 322 321 321 321 321 322 321 319 320 322 322 322 321 321 320 320 321 320 320 321 321 319 319 319 319 319 320 321 321 321 320 318 317 316
330 330 327 326 324 323 322 322 321 320 320 321 321 321 320 319 320 320 320 318 318 317 317 318 319 320 320 320 319 318 318 318 318 317 317 317 317 317 317 316 315 314
330 329 327 326 326 324 322 321 320 320 319 320 320 319 319 319 319 318 318 317 316 315 315 315 316 317 318 318 317 317 317 316 316 316 315 316 316 316 316 316 316 316
327 329 327 327 327 325 324 322 319 318 318 319 319 318 318 318 317 317 316 316 315 314 314 314 314 315 315 315 314 314 314 314 314 314 315 315 316 316 317 318 318 318
326 327 327 327 327 325 324 321 319 317 318 319 318 317 317 317 316 316 315 315 315 314 313 313 313 314 314 314 313 313 313 312 313 313 313 314 315 316 317 318 318 318
325 326 326 327 326 325 324 321 318 317 318 319 318 316 316 316 315 315 315 315 315 314 313 313 313 314 314 314 313 313 312 313 313 312 313 314 315 315 316 317 317 316
325 326 326 326 326 326 325 321 318 317 318 319 319 317 316 316 315 315 315 315 315 314 314 314 313 314 314 314 315 315 315 314 314 314 314 315 315 316 316 316 316 315
327 327 327 326 326 325 325 322 319 319 319 319 320 318 316 316 315 315 315 315 315 315 315 314 314 315 315 314 314 315 316 316 316 315 315 315 315 315 315 315 315 315
328 327 326 326 326 326 326 324 321 321 320 319 320 320 318 317 315 315 315 314 315 315 315 315 315 316 316 315 314 314 315 316 316 315 315 315 314 313 314 314 315 315
328 327 326 326 325 326 326 326 323 322 321 319 319 320 320 319 317 315 315 315 315 315 315 315 315 315 315 316 316 315 315 315 315 315 316 316 315 314 314 314 315 316
327 327 326 326 325 325 325 326 325 323 321 320 320 319 319 320 319 317 316 315 315 314 315 315 315 315 315 316 316 316 316 316 316 316 316 316 317 316 315 315 316 317
327 327 326 326 326 325 325 326 326 324 322 321 321 320 319 319 318 318 318 316 315 315 315 315 315 315 315 315 315 316 317 317 317 318 317 317 317 317 316 317 317 317
327 328 327 327 326 326 326 326 325 325 323 321 321 321 321 319 318 318 319 318 317 316 316 316 316 316 315 316 316 316 317 318 318 319 318 318 318 318 318 318 318 318
327 328 327 327 327 326 325 326 325 325 324 323 321 321 321 321 319 319 319 319 318 317 317 317 318 317 317 317 317 318 319 319 320 320 320 320 320 320 320 320 320 319
326 327 327 326 327 326 325 324 325 325 325 324 323 321 321 320 320 320 320 319 319 319 319 320 320 320 320 319 319 321 322 322 322 322 322 322 322 322 321 321 321 321
325 325 325 325 326 326 325 324 324 324 325 325 324 324 322 321 321 322 321 320 320 320 321 323 323 322 322 321 321 322 323 323 323 323 323 323 323 323 323 322 321 321
324 325 325 325 325 325 325 324 324 324 325 324 325 325 324 323 323 323 323 323 323 323 323 325 325 324 323 322 321 322 322 324 324 323 323 324 323 323 323 323 321 320
322 323 324 325 325 325 325 325 324 325 325 325 325 325 324 323 323 324 324 324 324 324 324 324 324 324 322 319 319 320 321 321 322 323 323 322 322 322 322 323 321 318
317 318 320 322 323 324 325 325 325 325 325 325 325 324 324 323 322 322 323 324 324 323 323 322 322 323 321 318 317 317 318 318 319 321 322 321 322 322 321 321 319 317
314 315 316 317 319 320 322 323 324 325 325 325 324 324 324 323 322 322 323 323 323 323 322 321 321 322 322 320 317 316 316 316 317 321 322 321 322 322 320 317 315 314
313 313 314 314 315 317 318 319 320 322 324 324 324 324 324 323 322 321 321 321 321 320 321 321 321 321 322 321 319 317 316 315 317 320 321 320 320 320 318 317 316 315
312 312 313 313 313 314 315 316 317 319 321 322 323 323 323 322 322 321 321 321 320 320 320 320 320 320 320 321 319 317 316 315 317 320 320 318 318 317 316 317 316 316
310 311 311 312 313 313 313 314 315 317 317 319 320 321 321 321 321 321 322 322 322 320 319 319 319 319 320 320 319 318 316 316 317 318 317 317 316 315 315 314 311 312
308 309 310 311 311 312 313 313 314 315 316 317 318 318 319 319 320 321 321 322 322 320 320 320 319 319 319 319 318 317 316 316 317 317 315 315 315 314 314 313 311 312
306 307 308 309 310 311 311 312 313 313 314 316 316 317 316 316 318 320 320 321 321 321 321 320 318 317 319 319 317 316 316 316 317 316 313 313 314 314 312 311 310 311

ECMWFNIL_925_thetae_030.txt.gz
Theta_e
329 329 327 325 325 324 324 323 322 323 323 322 324 324 323 322 323 324 324 323 323 323 323 321 320 322 323 322 322 323 323 324 325 325 325 325 324 323 321 322 321 320
328 329 327 325 324 324 324 323 322 323 322 322 324 323 321 321 323 324 323 322 322 321 321 321 321 321 322 320 320 320 320 321 322 322 322 322 320 319 317 317 316 315
329 328 327 325 324 324 324 323 322 322 322 323 322 321 320 321 322 321 320 320 319 319 320 320 321 321 321 319 318 319 319 318 318 318 318 318 317 316 315 315 315 315
329 328 326 325 324 324 323 322 322 321 322 323 321 320 320 320 320 319 317 317 316 317 318 319 320 320 319 318 318 318 317 316 316 316 316 316 316 316 317 318 318 317
328 327 326 325 323 323 322 321 321 320 321 321 320 320 319 319 318 317 316 315 315 315 316 316 317 317 317 317 316 315 315 315 316 316 316 316 317 318 318 318 318 318
327 326 326 325 324 323 322 321 320 319 320 320 319 319 318 318 317 316 316 315 314 314 314 314 315 315 315 314 314 313 314 314 315 315 315 317 318 319 318 318 317 317
326 325 326 327 325 324 323 321 319 319 320 319 318 317 317 316 316 315 315 315 314 313 313 314 314 314 314 313 313 313 312 313 313 314 315 316 317 318 317 318 317 317
326 326 326 326 325 325 323 320 318 319 319 318 317 317 316 316 316 315 315 315 314 313 313 314 313 314 314 314 313 313 313 313 313 314 316 316 317 317 316 316 316 317
326 326 326 326 325 325 324 320 318 318 319 318 318 317 316 316 315 315 315 315 315 314 314 314 314 314 315 315 315 315 315 315 315 315 316 316 316 316 316 316 316 317
325 326 326 325 326 325 324 320 318 319 319 319 319 317 316 316 315 315 315 315 315 315 314 314 314 315 315 315 316 316 316 316 315 315 316 316 315 316 316 316 315 315
326 325 325 326 326 326 325 321 319 320 319 320 320 319 317 317 315 315 315 315 316 316 315 315 315 315 315 315 315 316 317 316 316 315 315 315 314 315 315 315 315 315
327 326 325 326 326 327 326 324 321 321 320 319 320 320 319 318 316 315 315 315 315 315 315 315 316 316 315 315 315 315 316 316 316 316 316 316 315 315 315 316 316 315
328 327 326 326 326 326 326 325 324 323 321 319 319 320 320 320 319 316 316 315 315 315 315 315 315 315 315 316 316 316 316 315 316 316 316 316 316 315 315 316 316 317
327 327 327 326 326 326 326 326 326 325 323 321 320 319 319 319 319 318 317 316 315 315 314 315 315 315 316 316 316 317 317 316 317 317 316 317 317 316 316 316 317 318
327 327 326 326 326 326 326 326 326 326 324 323 322 320 320 319 318 318 318 318 317 317 315 315 315 315 316 315 315 316 317 317 318 318 317 318 318 317 317 317 317 318
327 327 326 326 327 327 326 326 326 325 324 323 323 322 321 321 320 319 318 319 319 318 317 316 316 316 316 315 316 316 316 317 318 318 318 319 319 318 319 319 319 318
326 326 326 327 327 327 326 326 326 325 324 324 323 322 321 320 321 321 320 319 319 319 319 318 318 318 318 316 316 316 317 318 319 319 319 320 320 320 320 321 321 320
324 324 325 326 326 326 325 326 325 324 323 324 324 323 322 321 321 322 322 321 320 320 321 320 318 319 319 318 317 317 318 320 321 321 321 321 322 322 322 322 322 321
321 322 324 325 325 325 325 325 325 324 324 324 323 324 324 323 323 322 322 322 321 321 321 321 320 319 319 319 320 319 319 321 322 323 323 323 323 323 322 322 321 321
317 318 320 321 323 324 324 324 325 325 324 324 324 324 324 324 324 323 322 323 322 322 322 321 321 320 318 317 319 321 321 321 322 323 324 323 323 323 321 320 320 320
314 315 315 316 318 320 321 322 324 324 324 324 324 324 324 324 324 323 323 323 323 323 322 321 321 321 319 317 318 321 322 321 322 323 322 322 322 321 320 320 320 319
312 313 313 314 315 316 317 318 320 321 322 324 324 324 324 324 324 324 323 323 323 323 322 321 321 321 321 319 319 321 322 320 320 321 321 321 320 319 319 320 320 318
309 310 311 312 313 313 314 314 316 317 318 320 322 323 323 324 323 324 323 322 323 322 322 322 321 321 321 320 320 321 321 320 319 319 318 318 318 318 319 320 320 318
306 307 308 310 311 312 313 313 314 315 316 316 318 319 321 321 322 322 323 322 322 321 321 321 321 321 321 320 320 321 321 320 319 317 316 317 317 318 318 318 318 318
305 305 306 307 309 310 311 312 312 313 313 314 315 316 317 318 319 319 320 321 321 321 321 321 321 321 320 320 320 320 320 321 319 316 316 317 318 317 316 316 317 316
303 304 304 306 307 308 309 310 311 311 312 312 313 314 315 316 317 317 317 318 320 321 321 321 321 321 320 320 319 319 320 320 319 316 316 317 317 316 315 315 313 313

ECMWFNIL_925_thetae_033.txt.gz
Theta_e
328 327 326 325 324 323 324 324 324 324 323 323 324 324 323 322 323 324 324 324 323 323 323 323 322 323 325 325 326 327 327 327 327 326 326 326 326 326 325 324 324 324
327 326 326 325 325 324 324 323 323 323 323 323 324 323 322 322 324 323 322 323 323 322 321 321 322 322 323 323 324 326 326 326 326 325 324 323 323 324 324 324 323 323
328 327 326 325 324 324 323 322 322 323 323 323 324 323 321 322 324 323 322 322 321 320 320 321 320 320 320 321 322 323 324 324 323 323 320 318 317 317 318 319 319 320
328 327 325 325 324 323 322 322 322 322 323 323 323 321 321 322 323 322 320 320 320 320 321 321 320 319 319 318 319 320 321 320 320 319 317 315 315 315 315 315 315 316
328 327 325 324 324 324 323 322 322 322 322 322 320 319 320 320 320 318 318 318 318 319 320 320 319 318 318 318 317 317 317 317 317 316 316 317 317 317 316 315 315 314
328 327 325 324 324 324 323 322 321 322 322 321 319 319 319 319 317 316 315 315 316 316 318 319 318 317 317 316 316 315 315 316 315 316 317 318 318 317 316 315 315 316
327 326 324 324 323 322 322 321 320 321 321 319 319 318 318 317 316 315 314 313 314 315 315 316 315 314 314 314 314 315 315 315 315 316 318 318 317 316 316 316 317 317
327 325 324 323 322 321 321 320 320 320 320 319 318 317 316 316 316 315 314 313 313 313 314 314 313 313 313 313 313 313 314 314 315 317 318 318 317 317 316 317 317 316
326 325 324 323 323 322 322 320 319 320 319 318 318 316 316 316 316 315 314 314 313 313 313 313 313 313 313 312 312 313 314 314 315 317 317 317 317 317 316 317 316 316
326 326 326 325 324 323 321 319 318 319 318 317 317 316 315 316 315 315 315 314 313 313 313 313 314 315 314 312 313 315 315 314 315 316 317 316 316 316 316 316 316 316
326 326 326 325 324 324 320 317 317 318 317 318 317 315 315 316 315 314 314 315 314 313 313 314 314 315 315 314 315 316 315 315 316 316 316 316 316 316 315 315 315 315
325 326 326 326 325 324 320 317 318 318 318 319 318 316 316 316 314 314 315 315 315 314 314 314 314 315 315 315 316 316 315 315 315 315 315 315 315 315 315 314 314 313
324 324 324 325 326 324 321 318 318 319 318 320 319 318 318 317 314 313 315 315 315 315 314 315 315 315 314 315 315 316 315 315 315 315 315 315 314 315 315 315 314 313
324 324 325 325 325 325 323 321 321 321 319 319 320 319 319 320 316 315 316 315 314 315 315 315 315 315 314 315 314 315 315 315 315 315 316 315 314 315 315 315 316 315
322 324 325 324 324 326 325 324 324 323 320 320 321 319 318 320 318 317 317 317 315 315 315 315 315 315 315 315 315 315 315 315 315 315 316 316 315 315 315 316 316 316
321 323 324 324 324 325 326 326 325 325 323 322 322 321 319 319 318 317 317 317 317 317 317 316 315 315 315 315 316 316 316 316 316 316 315 316 317 316 316 316 317 317
322 323 324 324 325 325 325 325 325 325 325 323 323 322 320 319 319 319 318 317 317 318 318 317 315 314 315 315 315 316 316 316 316 316 316 317 317 317 316 316 316 317
324 324 324 324 324 324 324 324 325 325 325 324 323 323 322 321 321 320 320 320 319 318 319 318 316 315 315 315 315 315 316 316 316 317 317 317 318 318 318 318 317 317
319 321 323 323 323 323 323 323 323 323 324 324 323 323 323 322 321 321 321 321 321 320 319 319 318 317 317 317 316 315 316 317 317 318 318 318 319 320 319 320 319 318
310 313 315 317 320 321 322 323 322 323 324 324 323 323 323 323 323 322 321 321 322 321 320 320 319 318 318 318 317 316 316 317 319 321 321 320 320 321 321 320 320 320
307 308 308 310 312 314 316 318 320 322 324 324 324 324 323 324 324 324 323 323 322 322 321 321 320 320 320 319 318 318 318 317 319 321 323 322 322 322 321 320 319 319
306 306 307 307 308 309 310 312 314 316 319 321 323 323 323 324 323 323 324 324 323 323 322 322 321 321 320 320 320 319 318 317 318 319 321 322 321 321 321 321 320 319
304 304 304 305 305 307 308 309 310 311 312 314 317 318 320 321 322 323 323 323 323 323 323 322 322 321 321 320 320 319 318 318 317 317 319 320 320 320 320 320 320 319
302 302 302 303 304 305 305 307 308 309 310 311 311 312 314 316 317 320 321 322 322 322 322 321 321 321 320 320 319 319 320 320 318 318 319 319 319 319 319 319 319 319
301 301 301 302 302 303 303 304 305 306 307 309 310 310 310 311 312 314 317 319 320 320 320 321 320 320 320 320 320 320 320 321 320 319 320 320 318 318 318 317 318 318
300 301 301 301 301 302 302 303 303 303 304 304 305 306 307 308 310 311 313 314 316 318 319 320 320 320 320 320 319 320 320 320 320 320 320 320 318 317 317 317 317 317

ECMWFNIL_925_thetae_036.txt.gz
Theta_e
326 325 325 325 322 322 324 325 324 325 325 324 323 323 323 322 323 324 324 324 324 323 323 324 324 324 325 327 327 328 328 328 327 326 326 327 326 326 326 326 327 328
327 325 325 324 321 321 323 324 324 325 325 323 324 323 322 322 323 324 324 323 323 322 322 323 324 324 324 326 327 327 327 327 326 327 326 326 325 325 325 325 325 326
327 325 324 322 321 321 323 324 325 325 324 324 324 323 322 322 323 323 323 323 322 321 321 323 324 323 323 325 326 327 327 327 326 326 325 325 325 325 324 324 324 324
327 324 324 323 322 324 324 323 324 323 323 324 323 322 322 322 323 322 322 322 321 320 320 321 322 322 321 324 325 326 325 325 323 321 320 320 321 322 322 323 323 323
327 324 325 324 323 324 323 322 322 323 323 323 322 322 321 322 322 322 322 321 320 320 320 319 320 319 320 322 323 324 323 322 319 315 315 316 317 317 318 320 321 320
327 325 325 325 324 323 322 322 322 323 323 322 322 321 321 321 322 321 320 319 319 320 319 318 319 318 318 319 321 321 321 320 317 315 315 315 315 315 315 317 317 316
327 325 325 324 323 322 322 322 322 322 322 321 320 319 319 321 320 319 318 317 318 320 319 318 318 318 317 317 318 318 318 317 316 317 317 316 315 314 314 315 316 315
327 325 324 324 323 323 322 322 322 322 321 320 319 318 319 318 316 314 315 316 317 318 318 317 317 317 317 316 315 316 315 315 317 318 317 316 315 314 314 315 315 315
325 325 324 323 323 323 322 321 321 321 321 319 317 316 316 315 313 312 313 314 315 316 317 316 315 314 315 315 314 314 314 315 316 317 317 315 315 315 316 316 316 315
324 323 323 323 322 322 321 321 320 320 320 317 315 315 315 315 313 313 312 312 312 314 315 314 313 313 313 313 314 313 314 314 316 317 316 315 315 316 317 316 315 315
324 323 322 322 323 321 320 320 320 320 319 317 315 316 316 315 314 314 313 312 312 313 313 313 313 313 312 312 312 312 313 315 316 317 317 316 316 316 316 316 315 315
325 324 323 323 323 321 320 319 319 319 318 317 316 316 316 316 315 314 314 313 312 313 313 313 313 314 313 312 313 313 313 314 316 317 317 317 316 316 316 316 315 315
324 324 323 324 324 323 321 319 319 319 317 317 317 315 315 316 315 315 314 314 313 313 313 313 314 314 313 312 314 314 313 314 316 316 317 316 316 316 316 316 315 315
324 324 324 324 324 322 320 318 318 318 317 318 318 315 315 316 315 314 315 314 314 313 313 313 314 314 313 314 315 315 314 315 316 315 316 316 315 316 315 315 315 315
323 323 324 324 324 322 320 318 317 318 319 319 319 317 317 317 315 313 314 315 314 314 314 314 314 314 313 313 315 315 315 315 315 315 315 315 315 315 314 314 313 313
323 323 323 323 323 322 322 321 320 320 321 321 319 319 319 319 316 315 316 316 315 315 314 314 314 314 313 313 314 315 315 315 315 314 315 315 315 314 314 314 314 313
321 321 321 322 322 322 323 323 323 323 323 322 322 320 319 319 318 317 317 317 316 316 316 315 314 315 314 314 314 314 314 314 314 314 315 315 315 314 314 315 315 315
320 320 321 321 321 321 321 321 322 323 322 321 323 323 320 319 319 318 318 317 317 317 317 317 316 315 315 314 315 314 314 314 314 314 315 315 315 315 315 315 315 315
314 316 318 320 320 320 320 320 320 321 321 320 321 322 322 321 321 321 320 319 319 318 318 318 317 316 314 314 315 315 315 315 315 315 315 315 315 316 316 316 315 316
305 307 309 311 312 313 314 316 317 318 319 320 321 321 321 321 321 322 322 321 321 320 320 320 319 318 317 316 315 316 315 315 316 316 316 316 316 316 316 316 316 316
302 303 304 304 305 306 307 308 309 311 313 315 317 318 319 321 322 322 322 322 322 322 321 321 320 320 319 318 317 317 316 315 316 317 316 316 316 316 316 317 317 317
301 302 302 302 303 304 304 304 305 306 306 308 310 312 313 316 319 320 322 323 323 323 322 322 321 322 322 321 321 319 318 317 317 318 318 318 318 318 317 317 317 318
300 300 301 301 302 302 302 302 303 303 304 304 306 307 307 308 309 311 314 317 320 322 323 322 321 320 321 321 321 321 321 320 319 319 319 319 320 320 320 319 319 318
300 300 300 300 300 301 301 301 302 302 302 303 303 304 304 304 304 305 307 308 312 315 319 321 321 320 320 320 320 320 321 321 321 320 319 318 318 319 320 321 320 319
300 300 300 300 300 300 300 300 301 301 301 302 302 302 302 302 303 303 304 304 306 307 310 313 315 316 318 319 319 320 320 320 320 320 319 319 318 318 318 319 319 319
300 300 300 300 300 300 300 300 300 300 300 300 301 301 301 302 302 302 302 303 304 304 305 306 307 309 312 315 316 318 319 320 320 320 320 320 319 318 318 318 318 319

ECMWFNIL_925_thetae_039.txt.gz
Theta_e
324 324 324 325 327 326 324 324 325 326 325 324 324 323 323 323 323 325 324 323 323 323 324 325 324 322 322 325 328 327 328 328 328 328 327 328 327 327 328 328 329 328
324 323 323 324 325 322 322 324 325 325 324 323 323 322 323 322 322 324 324 323 323 323 324 325 323 322 322 325 327 327 327 327 327 326 326 327 327 326 327 327 328 328
323 322 323 323 322 322 323 325 324 324 324 324 323 322 323 322 321 323 323 323 322 322 323 324 323 321 322 325 326 326 327 326 326 326 326 326 326 325 325 325 326 327
323 323 323 323 322 323 324 324 324 325 325 324 323 323 323 322 321 324 324 323 322 321 322 324 323 321 322 324 326 326 326 326 326 326 326 325 325 324 324 324 324 325
325 324 324 323 321 322 323 323 324 325 324 324 323 323 323 321 322 323 323 322 321 320 322 323 323 320 321 324 326 326 326 326 325 323 323 323 323 323 324 324 323 324
326 324 323 322 321 322 323 323 323 324 323 323 323 322 322 321 322 322 322 322 321 320 321 322 321 319 320 323 325 324 324 322 319 317 317 318 318 320 322 322 323 323
326 324 323 322 322 323 323 322 322 322 323 323 323 322 322 321 321 322 321 320 320 319 319 319 319 318 319 320 322 322 320 317 316 314 314 316 316 318 319 319 320 321
326 325 323 323 323 323 323 322 322 322 322 323 322 321 320 320 321 321 320 319 319 319 319 318 318 318 317 318 319 320 319 316 316 315 314 315 315 316 317 316 316 317
325 324 323 322 322 322 322 322 322 322 322 322 320 319 318 318 318 316 316 317 318 319 318 318 318 317 317 317 316 318 317 316 316 317 315 314 315 315 315 315 315 316
324 324 323 322 322 322 322 321 322 321 321 320 317 315 314 314 313 311 311 313 315 317 317 317 317 316 316 316 315 315 315 315 317 317 315 314 314 315 315 315 316 316
324 323 323 322 322 322 321 321 321 320 320 318 314 312 313 313 312 311 311 311 312 314 316 316 315 314 313 313 314 314 314 314 316 317 316 315 314 315 315 315 315 316
323 323 322 322 321 322 321 321 320 320 319 317 313 313 314 314 313 313 312 312 311 312 314 314 313 313 312 312 313 313 313 313 315 316 316 315 315 315 316 315 315 315
323 322 322 322 321 321 320 320 320 319 319 317 315 314 315 315 315 314 314 313 312 312 312 312 312 312 313 312 312 312 313 313 314 316 316 316 316 316 316 315 314 314
322 322 322 322 321 321 320 319 319 319 318 317 317 316 316 316 315 315 315 314 313 313 312 312 312 312 313 313 312 312 313 313 314 315 316 317 317 316 316 315 314 314
322 323 323 322 322 320 319 319 319 318 318 318 318 317 317 316 315 315 315 315 314 313 313 312 312 313 313 314 313 313 314 313 313 315 316 316 317 316 316 316 315 315
322 322 322 322 322 320 319 319 318 318 319 319 319 319 318 317 317 317 315 315 314 314 314 313 313 313 314 314 313 313 314 314 313 315 315 315 316 316 315 315 315 315
320 320 320 320 321 320 319 318 318 319 320 320 320 320 319 319 319 317 315 315 315 315 314 313 313 313 314 314 313 312 314 315 314 315 315 315 315 315 315 315 315 314
318 319 319 319 320 321 320 319 320 321 321 320 320 321 321 320 320 319 318 317 317 316 316 315 314 314 314 314 313 312 313 314 314 314 315 314 314 315 314 315 314 314
310 312 313 314 316 318 318 318 318 320 321 321 321 320 320 320 321 321 321 320 319 318 317 317 317 316 315 314 314 313 313 313 314 314 314 314 314 314 314 314 314 314
304 304 305 305 307 309 311 311 311 313 316 317 317 318 319 320 320 321 321 322 322 321 321 320 320 319 317 316 315 314 314 313 313 314 314 314 314 314 314 314 314 314
301 302 302 302 302 303 304 304 304 305 307 307 309 311 313 315 316 317 319 320 321 322 322 322 322 321 320 319 318 316 316 315 314 314 314 314 314 314 314 314 314 315
300 300 300 300 301 302 302 302 302 302 303 303 304 305 306 307 308 310 311 312 315 317 319 321 322 322 322 322 322 321 320 319 318 316 315 315 315 314 314 314 314 315
299 299 299 299 300 300 300 300 300 300 301 302 303 303 304 304 305 304 304 305 307 309 311 314 318 319 317 317 318 319 320 321 321 320 318 317 317 316 316 316 316 315
299 299 299 299 299 299 299 299 299 299 300 300 300 301 301 302 302 303 303 303 303 304 305 306 309 311 310 309 310 311 313 316 318 320 321 320 319 319 318 318 318 318
299 299 299 299 299 299 299 299 299 299 299 299 299 299 300 300 300 301 301 301 302 302 302 303 304 306 306 307 307 306 307 309 312 315 318 319 320 320 319 319 318 318
299 299 298 298 298 298 298 298 299 299 299 299 299 299 299 299 299 299 300 300 300 301 301 302 302 303 304 305 305 305 305 306 307 310 313 315 317 319 319 319 319 319

ECMWFNIL_925_thetae_042.txt.gz
Theta_e
330 330 328 327 328 328 326 326 325 324 325 325 325 324 324 324 324 324 324 323 323 324 324 324 323 322 322 325 327 328 328 328 328 328 329 329 328 328 327 327 328 329
329 328 326 327 328 327 327 327 325 324 325 324 324 323 323 323 322 323 324 323 323 323 323 324 323 322 322 325 327 328 329 328 328 328 328 327 327 327 327 327 328 329
327 326 325 326 327 327 327 326 325 325 324 323 323 322 322 322 321 323 323 323 323 322 322 324 323 321 322 324 326 327 328 328 327 327 326 326 326 326 326 326 327 328
325 324 324 324 325 326 325 324 325 324 323 323 323 322 322 321 320 322 323 323 322 321 322 323 323 321 321 323 325 326 326 326 326 326 326 325 325 324 325 325 325 326
324 324 323 324 325 324 323 324 324 324 323 323 323 322 322 321 321 322 323 323 322 321 321 323 323 321 320 322 325 325 326 326 325 325 324 324 324 324 324 324 324 325
323 323 323 323 323 323 323 324 324 324 324 323 323 323 322 321 322 322 323 323 322 320 321 323 323 320 319 322 324 324 324 324 322 319 318 320 322 322 323 323 323 324
322 322 323 322 322 322 323 323 323 324 324 323 323 322 322 321 321 322 322 321 321 319 320 323 321 319 318 319 322 322 321 319 317 314 314 316 317 319 321 323 323 323
323 323 323 322 321 322 322 322 322 323 323 323 323 322 322 321 321 321 321 320 319 319 319 320 319 318 317 317 318 320 320 318 317 315 314 314 316 318 319 319 320 322
325 324 323 322 320 321 323 323 322 322 322 322 322 321 320 320 320 320 319 318 318 319 318 318 318 317 317 316 316 317 317 317 316 316 315 314 316 316 316 315 316 318
325 324 323 322 321 323 323 322 322 322 322 321 320 318 317 317 317 316 315 316 317 318 318 318 318 317 316 315 315 315 315 315 316 316 315 314 315 315 314 314 314 316
324 323 323 323 323 323 322 322 322 322 321 320 317 315 314 314 313 311 311 313 314 316 317 317 317 316 314 313 314 314 314 314 315 316 316 314 315 315 314 315 315 315
323 323 323 323 322 322 321 322 321 321 320 318 315 313 313 312 312 311 311 311 311 312 314 316 316 314 313 312 312 313 313 313 313 315 316 315 315 314 314 315 315 315
322 321 321 321 321 321 321 321 320 320 319 318 316 314 313 313 313 313 313 312 312 311 312 313 314 313 312 312 312 312 312 312 312 313 315 316 315 315 315 315 315 315
322 321 321 321 321 320 320 320 320 319 318 318 317 315 314 314 315 315 314 314 314 313 312 312 312 311 311 312 313 312 311 312 313 313 314 316 316 315 315 315 315 315
321 321 321 321 321 321 320 320 319 319 319 318 317 317 316 315 315 315 316 315 315 314 313 313 312 312 312 312 313 313 312 313 313 313 314 315 316 316 316 316 315 314
321 321 320 320 320 320 319 319 319 319 318 318 318 318 317 317 317 316 315 315 315 315 314 314 313 313 313 313 313 313 313 313 313 314 314 314 315 316 316 316 315 315
320 319 319 319 319 319 319 319 319 319 319 319 320 319 319 319 318 317 316 316 316 315 315 314 314 313 313 313 313 313 313 313 313 314 314 314 314 315 315 316 315 315
318 318 318 319 319 319 319 319 319 320 320 320 320 320 320 320 320 319 319 318 317 317 316 316 315 315 314 313 313 313 313 313 313 314 314 314 314 314 315 315 315 315
313 313 313 314 315 316 317 318 318 319 319 319 318 319 319 319 319 319 320 320 320 320 319 319 318 318 317 316 315 313 313 313 313 313 314 314 314 314 314 314 314 314
305 306 305 305 307 308 310 311 312 312 312 313 314 315 315 315 314 315 315 317 319 320 321 321 321 320 320 319 317 316 315 315 314 314 313 313 313 313 313 313 313 314
300 301 301 301 302 303 304 304 304 305 305 306 307 308 308 308 308 308 308 309 312 315 317 317 318 319 320 321 320 320 319 318 318 317 316 315 314 314 313 313 313 313
299 299 300 300 300 301 301 301 301 301 302 302 303 304 304 304 305 304 304 305 306 308 310 310 310 312 314 316 318 319 320 320 320 320 320 319 318 317 316 315 315 314
299 299 299 299 299 299 299 300 300 300 300 300 301 301 302 302 302 301 302 302 303 304 305 304 304 305 306 308 310 311 314 315 316 318 319 320 321 321 320 319 318 317
299 299 299 298 298 299 298 298 299 299 299 299 299 299 299 299 299 299 300 300 301 301 302 302 302 302 302 303 304 305 307 308 309 310 313 315 316 318 319 319 320 320
298 298 298 298 298 298 298 298 298 298 298 298 299 299 299 299 299 299 299 299 299 299 300 300 300 300 301 301 302 302 303 304 304 305 307 308 309 311 313 315 317 318
297 297 297 297 297 297 297 297 297 297 297 298 298 298 298 298 298 298 298 298 299 298 298 299 299 299 300 300 300 301 301 301 302 302 303 304 305 306 308 309 311 314

ECMWFNIL_925_thetae_045.txt.gz
Theta_e
330 330 330 330 330 329 327 326 325 325 324 325 325 324 325 325 325 325 324 323 324 325 325 324 323 323 323 325 327 328 328 329 329 329 329 329 329 329 329 328 328 329
329 329 330 330 330 328 327 326 325 325 324 325 324 324 324 324 324 324 323 323 324 324 324 324 323 322 323 325 327 328 328 328 329 328 329 329 329 329 329 328 328 328
329 329 330 329 329 327 327 327 325 324 324 324 324 323 323 323 323 323 323 323 323 322 323 324 322 321 322 324 326 327 327 328 328 328 328 328 327 328 328 328 328 329
329 329 329 328 328 327 326 326 325 324 325 324 323 323 322 321 322 323 323 322 322 322 323 323 322 320 321 324 326 326 326 326 326 326 326 326 326 326 327 327 328 328
328 328 327 327 327 327 326 326 324 324 324 323 323 322 322 321 322 323 322 322 321 321 322 323 321 319 320 324 325 326 326 326 325 324 325 325 325 324 324 326 327 328
327 327 326 326 327 327 326 325 324 324 324 323 322 322 322 321 322 323 322 322 321 320 322 323 320 318 319 322 324 323 323 322 319 318 319 321 323 323 323 324 325 326
325 325 325 326 327 326 325 324 324 324 323 323 322 322 322 321 322 323 322 322 320 320 322 322 320 317 318 320 321 321 320 319 316 314 314 316 318 320 322 323 323 325
324 324 325 326 326 325 324 324 324 323 323 323 322 322 322 321 322 322 321 321 319 319 322 321 318 317 317 317 319 319 319 319 318 316 314 315 316 318 320 322 323 324
324 323 324 324 323 323 323 323 324 324 323 323 322 322 321 321 321 321 320 320 319 319 320 319 317 317 316 316 316 317 317 317 317 316 314 315 316 317 317 318 320 323
322 322 322 323 322 323 323 323 323 323 323 322 322 321 320 320 320 320 319 319 318 318 318 318 317 316 315 315 315 315 315 315 316 316 315 314 315 315 315 314 316 320
322 321 322 322 323 323 322 322 323 323 322 322 321 319 318 317 316 315 316 317 318 318 317 317 317 315 314 313 314 314 315 314 315 316 315 315 315 315 314 314 314 316
321 320 321 322 322 322 322 322 322 322 321 321 319 316 314 313 312 312 313 314 315 316 317 317 316 314 313 312 312 313 313 313 313 315 316 315 315 314 314 314 314 315
321 320 321 322 322 322 322 322 321 321 320 319 317 315 313 312 311 311 311 311 312 313 314 315 315 314 312 312 312 312 312 312 312 313 314 315 315 315 314 314 314 314
320 320 320 321 320 320 321 320 320 319 318 317 317 316 314 313 312 312 312 312 312 312 312 313 313 312 311 312 312 312 312 312 313 312 313 314 315 315 315 315 315 315
319 319 319 319 319 319 319 319 319 318 317 317 316 315 315 315 314 314 314 315 315 314 314 313 312 311 311 312 312 313 313 313 313 313 313 314 315 316 316 316 315 315
319 319 318 319 319 319 319 319 319 318 318 317 315 314 315 316 316 316 316 315 315 315 315 314 313 312 312 312 312 313 313 313 313 314 313 314 315 315 316 316 316 315
318 319 319 319 318 318 319 318 318 319 318 318 317 316 317 317 317 316 316 316 315 315 315 315 314 314 313 312 312 312 312 313 313 314 314 314 314 315 315 316 316 316
317 317 318 318 318 318 318 318 318 318 318 318 318 318 319 319 319 318 318 318 317 317 317 317 317 317 316 314 314 313 312 313 313 314 314 314 314 314 314 315 315 315
315 316 316 315 315 316 316 316 316 316 315 315 315 315 317 317 318 319 319 320 319 318 318 318 318 318 318 317 316 315 314 313 313 313 313 313 314 314 314 314 314 314
311 312 312 311 311 312 312 312 311 311 311 311 310 311 312 312 313 314 316 317 318 317 317 317 317 317 318 319 319 318 317 316 315 314 314 314 313 313 314 313 313 313
304 305 306 306 306 307 307 307 306 305 306 306 307 307 307 307 307 308 308 310 311 312 313 313 312 312 315 318 318 319 319 319 319 318 318 318 317 317 316 315 315 314
300 301 301 302 302 303 303 302 302 302 302 303 304 305 305 304 304 304 304 304 305 306 307 306 306 307 310 312 314 315 317 317 318 318 319 319 319 319 320 319 319 319
299 299 299 299 300 300 300 299 299 300 300 300 301 301 301 301 301 301 301 302 302 302 302 302 302 303 304 306 307 309 310 311 312 313 314 314 314 315 316 317 318 319
298 298 298 298 298 298 298 298 298 298 298 299 299 299 299 299 299 299 299 300 300 300 300 300 300 301 301 302 303 304 304 305 306 307 307 308 309 310 311 312 313 315
297 297 298 298 298 297 297 297 297 297 297 297 298 298 298 298 298 298 298 298 298 298 298 299 299 299 299 300 300 301 301 301 302 302 303 303 304 305 306 307 309 310
297 297 297 297 297 297 297 297 297 297 297 297 297 297 297 297 297 297 297 297 297 297 297 298 298 298 298 298 299 299 299 299 300 300 300 301 301 301 302 303 304 304

ECMWFNIL_925_thetae_048.txt.gz
Theta_e
333 333 333 331 330 331 331 331 330 330 329 329 328 328 328 328 328 328 328 328 328 328 329 329 328 327 327 327 328 330 331 331 331 331 331 331 331 332 331 331 330 330
333 333 333 332 331 332 332 331 330 329 329 329 328 327 327 328 328 327 327 327 327 327 327 327 327 327 327 326 328 330 332 332 331 331 331 331 332 332 331 331 331 330
332 332 333 332 331 332 331 331 329 329 329 329 328 327 327 327 327 327 327 327 327 327 327 326 326 326 326 326 327 329 331 332 332 331 331 332 332 332 331 331 331 330
331 331 332 331 331 331 330 330 329 329 329 328 328 327 326 326 326 326 326 326 326 327 326 326 326 326 326 326 326 327 329 330 330 331 331 331 331 331 331 331 330 330
330 330 331 331 330 330 330 329 329 329 328 328 328 327 326 325 325 326 325 324 325 326 326 325 325 325 325 326 326 326 327 327 328 329 329 330 330 330 330 330 331 330
330 331 332 331 330 330 330 329 328 328 328 328 328 327 326 325 325 325 325 324 324 325 325 324 324 324 325 326 325 325 325 325 327 327 327 327 327 328 328 329 330 330
329 331 332 331 330 329 329 329 328 328 328 327 327 327 326 325 325 325 325 324 324 324 324 323 322 323 325 325 325 325 324 323 324 324 324 324 325 326 326 327 329 330
328 330 331 330 329 329 328 328 328 328 327 327 327 327 326 325 324 324 324 323 323 323 323 322 321 321 323 325 324 324 324 323 323 323 323 323 323 324 324 326 328 329
328 328 329 329 330 329 328 328 328 327 327 327 327 326 325 324 323 323 323 322 322 323 323 321 319 319 321 323 324 324 324 323 322 322 322 322 323 323 322 324 327 329
328 329 329 330 331 329 327 327 327 326 327 326 326 326 324 323 323 322 322 320 320 322 321 320 318 318 320 321 322 322 323 323 322 321 321 321 321 321 321 322 325 328
329 330 329 328 328 329 329 328 327 327 327 326 325 324 322 322 321 321 320 319 319 320 319 319 317 316 318 319 321 321 322 322 322 321 320 320 320 320 320 321 324 327
328 328 327 324 324 328 329 327 326 326 326 325 323 321 320 319 318 318 318 318 318 318 318 317 317 316 316 317 319 320 320 321 322 321 320 319 319 319 319 320 322 325
327 326 324 321 322 326 327 326 326 326 325 323 320 319 318 317 317 317 317 316 316 316 316 316 316 315 315 316 317 318 319 319 320 321 321 320 319 319 319 320 320 322
326 326 324 322 322 324 325 325 325 324 322 320 319 319 318 318 317 317 317 316 316 316 316 316 316 316 316 316 316 316 317 317 317 318 320 321 320 319 319 319 319 320
325 325 324 323 324 325 325 325 324 323 321 319 319 319 319 318 318 317 317 317 317 317 317 318 318 316 316 317 318 317 317 317 317 316 317 319 320 320 319 318 319 320
324 324 324 324 324 324 324 324 323 322 322 321 321 321 321 320 319 318 318 318 319 320 319 317 316 314 313 314 316 317 317 317 317 317 316 317 318 319 318 318 319 319
322 322 323 323 322 322 321 320 319 319 319 319 319 319 319 321 322 321 321 321 321 320 317 315 314 313 312 312 312 314 316 317 318 318 318 317 318 318 318 317 318 319
318 319 319 319 319 318 318 318 317 317 317 317 317 316 316 319 322 323 323 322 320 318 316 315 315 314 313 313 313 312 314 316 317 317 318 318 318 319 319 318 318 320
316 316 317 317 318 318 318 319 318 318 317 317 317 317 317 319 321 322 321 319 317 317 317 317 317 317 316 315 314 313 313 315 318 318 317 318 318 318 319 319 319 319
314 314 313 313 315 316 316 316 316 315 314 315 315 316 317 318 318 319 318 316 315 315 316 316 317 318 318 318 317 316 314 315 319 320 319 319 319 319 319 318 318 318
310 310 309 309 310 312 313 312 312 311 310 310 311 313 314 314 314 315 315 314 313 312 312 313 313 314 316 318 319 319 318 318 320 322 321 321 322 321 321 320 320 320
306 307 307 306 307 309 309 309 309 308 308 308 308 309 310 310 309 310 310 311 311 310 308 307 307 309 312 314 315 317 318 318 320 321 321 322 323 322 322 322 323 322
303 303 303 303 304 304 305 305 306 306 306 306 306 305 305 305 305 306 306 307 308 308 306 304 304 306 308 309 311 313 314 315 317 318 319 319 320 320 321 321 322 321
300 300 300 301 301 301 301 301 302 303 303 303 304 304 304 304 303 303 303 302 304 305 304 303 302 302 304 306 306 307 309 311 313 315 316 316 317 318 318 318 319 317
299 300 299 299 299 300 300 300 300 301 301 302 303 304 304 304 304 303 302 301 300 300 301 303 303 301 300 301 302 302 303 306 310 312 313 314 313 314 314 315 316 315
299 299 300 300 299 300 300 300 301 301 302 302 303 303 303 303 304 304 303 302 302 301 300 301 302 301 299 298 299 299 299 301 306 309 309 309 310 309 310 311 312 314

ECMWFNIL_925_thetae_051.txt.gz
Theta_e
332 331 332 333 333 333 331 331 331 331 331 331 331 331 331 331 330 330 330 329 329 328 329 329 330 330 329 330 331 333 333 333 332 331 332 332 331 331 332 332 332 332
332 332 332 331 331 331 331 331 331 331 330 330 330 330 330 330 330 330 329 329 329 329 329 329 329 330 329 328 329 330 332 332 332 331 332 332 332 332 331 331 333 333
333 332 331 331 331 331 331 331 331 331 331 330 329 329 330 330 329 329 328 328 328 328 328 328 328 328 327 327 328 330 332 332 331 331 332 332 331 331 331 331 332 332
334 333 331 331 332 332 332 331 331 331 331 330 330 329 330 330 329 328 327 328 328 328 328 328 328 327 327 327 327 329 332 333 332 331 332 332 331 331 331 332 332 331
335 334 332 332 332 332 332 331 331 331 331 330 329 328 328 329 329 328 327 327 327 328 328 327 327 327 326 327 326 327 330 331 332 332 331 332 332 332 332 332 332 332
336 335 332 332 331 331 331 331 331 331 331 330 329 327 327 327 327 327 326 326 326 327 327 326 326 326 326 326 326 326 327 327 329 330 329 329 330 330 330 331 332 331
335 334 331 330 330 329 330 331 331 330 330 330 329 327 326 326 327 327 326 326 325 325 325 324 324 325 325 326 326 326 326 326 326 327 326 326 327 327 327 329 331 331
334 333 331 330 330 330 330 330 330 330 330 329 329 328 326 325 327 327 326 326 325 324 324 324 324 324 325 325 325 326 326 325 325 325 324 324 325 326 325 327 330 331
333 333 331 330 330 330 330 330 330 330 329 329 329 328 326 325 326 326 325 325 325 324 324 323 322 323 324 325 324 325 325 325 324 324 324 324 325 325 324 325 328 330
332 333 332 331 330 330 329 329 329 329 329 329 328 327 326 325 325 325 324 323 323 324 324 322 321 321 323 324 323 324 324 324 324 324 324 324 324 323 323 324 326 330
332 332 332 330 329 328 328 329 329 329 329 329 327 326 326 324 323 323 323 322 322 323 322 321 319 319 321 323 323 323 323 322 323 323 323 323 322 322 322 324 326 329
332 331 331 330 329 328 328 328 328 328 328 328 327 326 324 323 323 322 321 320 321 321 320 319 318 318 319 321 322 322 322 322 322 322 322 322 321 321 321 323 324 327
331 331 332 331 329 328 327 327 328 328 328 327 326 324 323 322 321 321 320 320 320 320 320 318 317 317 318 319 321 322 322 322 322 322 322 321 321 320 321 322 323 325
328 329 331 331 330 329 328 328 328 328 327 326 324 321 320 320 319 319 319 318 319 319 318 317 317 317 318 319 320 320 321 321 322 322 322 321 322 321 321 322 322 324
327 328 329 330 330 329 329 329 328 327 325 323 321 320 319 319 319 318 318 318 318 318 318 319 320 319 318 319 319 320 320 320 320 320 320 321 321 321 320 321 321 323
326 326 327 328 329 328 328 328 326 324 322 321 320 320 320 319 319 318 318 318 318 319 321 322 320 318 317 318 318 319 320 320 318 318 319 319 320 320 320 320 321 321
324 325 327 328 328 327 327 326 324 321 320 320 320 320 320 319 319 319 319 320 321 322 321 318 315 314 314 315 316 317 319 320 319 318 318 318 319 319 319 319 320 320
324 324 325 326 327 327 326 325 324 323 322 322 323 323 323 322 322 323 323 323 322 320 317 314 313 313 312 313 314 314 315 318 320 319 318 318 318 319 319 318 319 320
321 321 321 322 322 322 322 322 321 321 320 320 320 321 322 323 323 323 322 320 318 316 314 314 314 313 313 313 313 312 313 316 319 318 317 318 319 319 319 319 318 320
317 318 317 318 318 318 318 318 317 317 317 317 317 318 320 321 321 319 318 317 315 315 315 316 315 315 315 314 314 313 313 315 319 319 317 318 319 319 320 320 319 320
314 314 314 315 316 317 317 316 316 316 316 316 317 317 318 319 318 317 316 315 314 314 316 316 316 317 317 317 317 316 315 316 320 321 319 319 320 319 319 319 319 319
310 311 311 312 313 315 315 315 315 315 314 314 315 315 315 315 315 315 315 314 312 312 313 314 314 315 317 318 319 318 318 319 321 321 320 321 322 322 321 321 321 321
307 308 309 309 310 311 311 311 311 311 311 311 311 311 312 312 312 312 313 312 311 310 310 310 311 312 313 315 317 318 318 319 320 320 320 321 322 323 322 322 323 323
305 305 306 306 307 307 307 307 308 308 308 308 309 309 310 310 310 311 311 311 311 309 307 307 308 309 309 310 312 314 316 317 318 318 319 320 321 322 321 321 322 322
303 303 303 304 304 305 305 305 306 306 307 307 307 308 308 307 308 308 308 309 309 308 307 308 308 306 304 305 306 308 309 312 314 315 316 318 318 318 318 319 319 319
301 302 302 302 302 302 303 304 305 305 305 306 306 307 306 306 306 306 306 306 306 306 305 307 308 305 301 299 300 301 301 304 309 313 312 312 313 313 313 313 314 317

ECMWFNIL_925_thetae_054.txt.gz
Theta_e
333 332 332 334 334 334 334 333 333 333 332 333 333 333 333 332 332 332 331 331 330 330 330 330 331 330 330 332 333 333 333 333 333 332 332 333 332 332 333 332 331 331
331 331 331 332 333 333 333 332 332 332 332 332 332 332 332 331 331 331 330 330 330 330 330 330 330 330 330 330 331 331 332 332 333 332 332 333 332 331 331 332 331 332
330 331 331 331 332 332 331 330 331 332 331 331 331 331 331 330 331 331 330 330 329 329 330 330 330 330 329 329 329 330 331 332 332 332 332 333 332 332 331 331 331 332
331 332 330 330 330 329 330 330 331 331 330 330 330 330 330 330 330 330 329 329 329 329 329 329 329 329 328 328 329 330 331 331 331 331 332 332 332 332 331 331 331 332
332 332 329 329 329 329 330 330 331 331 330 330 330 330 330 330 329 329 328 329 329 329 329 329 328 328 327 328 328 329 330 331 331 331 331 331 331 331 330 330 331 331
331 330 330 330 330 331 331 331 331 331 331 330 330 330 330 329 329 327 327 329 328 329 329 328 328 327 327 327 327 327 328 329 330 331 330 330 330 330 330 330 331 330
331 330 330 331 332 332 331 331 332 332 331 329 329 328 329 328 327 327 326 327 327 327 328 327 326 326 326 326 327 327 328 327 328 328 328 328 328 329 329 329 330 330
331 330 330 331 333 332 331 332 332 331 330 329 327 327 327 327 327 326 326 326 326 326 326 325 325 325 325 326 326 326 326 326 327 326 326 326 326 327 327 327 329 330
331 330 330 331 332 331 331 331 331 331 330 329 327 325 326 327 327 327 326 326 325 325 324 324 323 324 325 325 326 326 326 325 325 325 325 325 325 325 326 326 328 329
331 330 330 330 331 331 331 331 331 330 330 329 328 325 325 326 327 326 326 325 324 324 323 323 322 323 324 324 324 325 325 324 324 324 324 324 324 324 325 325 326 329
332 331 330 330 330 330 331 330 331 330 329 329 328 326 326 326 325 325 325 324 324 324 323 322 321 321 322 323 323 323 324 323 323 324 324 324 324 323 323 324 325 327
332 331 330 331 330 330 330 330 330 329 329 328 327 327 326 325 324 324 323 323 323 323 322 321 319 319 321 323 323 323 323 322 322 323 323 323 322 321 322 323 325 326
330 331 331 331 330 330 330 330 329 329 329 328 327 326 325 323 323 323 322 321 322 322 321 320 318 318 320 321 322 322 322 322 322 322 322 322 321 321 321 322 324 325
331 331 331 330 330 330 330 329 329 328 328 327 326 325 323 322 322 322 321 320 321 321 319 319 318 318 319 320 321 322 322 322 322 322 322 321 321 321 321 322 323 324
332 331 330 329 329 329 329 329 327 327 327 327 325 323 322 321 321 320 320 319 320 321 320 319 318 318 318 319 320 320 321 321 321 321 321 321 321 321 320 321 323 323
331 331 329 329 329 328 327 327 327 326 326 325 323 321 320 320 319 319 319 319 321 322 321 320 318 317 317 318 318 320 321 321 320 320 320 320 320 321 320 320 322 322
328 330 329 328 328 327 326 327 326 325 324 322 321 320 319 319 319 319 319 320 322 323 321 320 318 316 316 317 318 319 320 320 319 319 318 319 319 320 319 319 320 320
326 327 328 327 326 326 326 325 324 323 322 321 321 321 321 322 322 321 322 322 323 321 318 316 315 314 315 316 317 318 319 319 319 319 318 318 318 319 319 319 320 320
324 324 326 326 325 325 324 324 323 324 324 323 323 323 323 323 322 322 322 321 320 317 314 313 313 312 313 314 314 315 316 316 318 320 318 317 318 319 319 320 320 320
321 322 322 323 323 323 323 322 323 323 324 324 324 323 322 321 321 320 319 318 316 314 313 313 313 313 313 313 313 313 312 314 318 320 318 318 319 320 320 320 320 320
317 318 318 318 318 319 319 319 320 321 321 321 321 321 320 319 318 317 316 315 315 314 313 313 313 314 314 314 313 313 312 314 318 320 319 320 320 319 319 320 319 319
312 313 313 314 314 315 315 316 316 317 318 318 318 318 317 317 316 315 315 314 315 315 314 312 311 313 315 315 315 315 315 317 320 320 320 320 321 321 320 320 321 321
309 310 310 311 312 313 313 313 313 314 315 316 316 316 316 315 315 315 314 313 313 313 311 310 309 311 313 315 317 318 318 319 319 319 320 320 321 322 322 321 322 323
306 307 307 308 310 310 310 310 312 312 313 314 315 315 315 314 313 313 312 311 310 308 307 306 307 307 308 311 314 316 317 318 317 316 318 319 320 321 321 321 322 323
303 304 305 305 306 307 307 308 309 309 310 312 312 312 312 312 312 311 311 309 308 308 308 309 308 307 306 306 307 309 311 314 315 314 314 315 316 315 316 318 319 319
302 303 303 304 304 305 305 306 307 307 308 308 308 308 308 308 308 309 308 307 307 307 307 307 305 303 302 302 302 301 302 306 310 312 311 311 311 310 310 313 315 315

ECMWFNIL_925_thetae_057.txt.gz
Theta_e
333 332 333 334 334 334 335 334 335 335 335 334 334 334 333 333 333 332 332 332 332 331 331 331 332 332 332 332 332 333 334 333 332 332 332 332 332 332 332 331 331 330
333 332 332 333 333 334 335 335 335 334 334 333 333 332 332 332 332 331 331 331 330 330 331 331 331 331 331 332 333 333 333 333 332 332 332 332 332 332 332 332 331 330
333 333 332 332 332 334 335 335 334 334 333 333 332 332 332 332 331 330 330 330 329 330 330 330 330 330 330 331 332 333 333 333 332 332 332 332 332 332 332 332 331 330
333 333 333 333 332 334 335 334 333 333 333 332 332 332 332 331 331 330 330 329 329 330 330 330 329 329 329 329 329 330 331 332 332 332 332 332 332 331 331 332 331 331
333 333 332 333 334 334 334 333 332 333 332 332 332 332 331 330 330 330 329 329 329 329 329 330 329 328 329 329 328 329 331 331 331 332 332 332 332 331 331 331 331 331
332 332 331 332 333 333 333 332 332 332 331 331 331 331 330 330 330 329 329 329 329 329 329 328 328 327 328 328 327 329 330 330 331 331 331 331 332 331 330 330 331 331
331 331 331 331 332 332 331 331 332 331 330 330 330 330 330 329 329 328 329 329 328 328 328 328 327 327 327 327 327 328 328 329 330 330 330 330 330 331 330 330 330 330
331 331 330 330 331 330 330 332 331 330 330 330 330 330 329 329 328 328 328 328 328 327 327 326 326 325 326 326 327 327 326 328 329 329 329 328 329 330 329 329 330 330
331 331 330 330 329 329 331 332 331 329 330 330 329 329 328 328 327 327 327 327 327 326 326 325 325 324 325 326 326 325 326 327 327 326 327 327 327 328 328 328 329 329
332 331 330 329 329 330 332 331 330 330 329 329 328 327 327 327 326 325 326 326 325 325 324 323 324 324 325 325 325 324 325 325 325 325 325 325 326 325 325 327 329 329
332 331 331 331 331 331 331 331 331 329 328 327 326 326 327 327 326 325 325 325 323 323 323 322 322 322 324 324 323 324 325 324 324 324 324 324 324 324 325 326 328 329
331 330 330 330 330 330 330 331 330 329 327 326 325 326 327 327 326 325 324 324 323 322 322 321 320 320 322 322 322 323 324 323 323 323 323 323 322 323 325 325 326 327
330 330 329 328 328 329 330 330 330 328 327 326 325 326 326 326 325 324 324 324 323 322 321 320 319 319 321 322 322 323 323 322 322 323 322 322 321 322 324 324 324 325
329 329 328 327 328 328 329 329 329 329 327 326 326 325 324 324 324 323 322 322 321 320 320 319 318 319 321 321 322 322 322 322 322 322 321 321 321 322 322 322 322 322
327 328 327 327 328 328 328 329 329 328 327 326 326 324 323 323 322 321 321 321 319 319 318 318 318 318 320 320 321 322 322 321 321 321 321 321 321 321 321 322 322 321
326 327 326 326 327 327 327 328 328 327 327 326 324 323 322 321 321 321 320 319 318 318 317 317 317 318 319 320 321 321 321 320 320 320 320 320 320 321 321 321 322 321
326 326 326 325 326 326 326 327 327 326 324 323 322 321 321 320 320 320 320 319 318 317 317 317 317 316 318 319 319 320 320 319 319 318 318 319 319 320 321 321 320 319
326 326 325 325 325 325 325 326 326 324 323 322 321 320 320 320 321 321 320 320 319 318 317 316 316 315 316 318 318 319 319 319 318 318 318 318 319 320 320 319 318 317
325 325 324 324 324 324 324 324 323 322 322 321 320 320 320 320 320 320 319 318 318 317 316 315 314 314 315 316 318 318 318 318 319 318 317 318 319 320 319 318 317 317
323 324 323 323 323 323 323 323 323 322 321 321 320 320 320 319 318 317 316 315 314 314 313 312 312 312 313 314 316 316 315 316 319 320 319 319 320 320 320 319 319 319
318 320 321 321 322 323 323 322 322 321 320 320 319 319 318 317 315 314 313 313 312 312 312 311 311 312 312 312 313 313 313 315 319 321 320 320 320 319 320 320 319 320
311 314 316 318 318 320 320 320 320 319 318 318 318 317 316 315 314 313 313 312 312 312 312 311 311 312 313 314 314 314 315 317 319 320 320 321 321 321 322 321 320 320
307 309 312 314 315 315 315 315 316 316 316 317 317 315 314 314 313 312 311 311 312 312 311 310 309 310 312 314 316 317 317 318 319 319 320 321 320 320 321 322 321 320
305 306 308 310 311 312 312 313 314 314 315 315 315 314 312 312 311 310 309 309 309 309 308 308 307 307 309 312 315 317 317 316 315 315 316 317 317 317 318 318 317 316
304 305 306 307 308 308 309 310 311 312 313 313 313 313 311 311 311 310 309 309 308 307 306 305 304 303 305 308 310 312 313 314 313 311 310 311 313 314 314 314 313 312
303 303 304 305 306 307 307 308 308 309 310 310 311 311 310 309 309 309 307 306 305 304 302 301 300 300 300 302 303 303 305 308 309 306 305 306 309 311 311 311 309 308

ECMWFNIL_925_thetae_060.txt.gz
Theta_e
334 334 334 333 332 332 332 333 334 335 336 335 335 334 334 334 334 334 333 333 334 333 333 333 332 332 332 332 331 332 332 332 332 333 332 331 331 331 330 330 330 330
334 334 335 333 332 333 332 333 334 335 335 336 335 334 334 334 333 333 333 333 333 333 333 332 331 331 331 331 331 332 333 333 332 332 332 331 331 331 330 329 330 330
334 334 334 333 332 333 333 333 334 335 335 336 335 334 334 333 333 333 333 333 332 332 332 332 331 332 331 331 331 332 332 333 333 332 332 331 331 332 331 330 330 330
334 333 333 334 333 333 333 333 333 334 335 335 334 334 333 333 333 332 332 332 332 331 331 331 331 331 331 332 332 332 333 333 332 332 332 332 332 332 331 331 330 330
334 333 333 334 334 334 334 334 334 334 335 335 334 333 332 333 332 332 332 331 330 330 331 331 331 330 331 332 332 332 332 333 332 331 332 332 332 331 331 332 331 330
333 333 333 333 333 334 334 333 333 333 334 333 333 332 332 332 331 331 331 330 330 330 330 330 329 329 330 331 331 331 331 332 331 331 332 331 332 331 331 331 331 330
332 333 333 333 333 333 333 331 330 330 332 332 332 332 331 331 330 330 330 329 330 330 329 329 328 329 329 329 329 330 331 331 331 331 332 331 332 332 331 331 331 330
332 332 332 333 332 333 332 329 328 329 330 331 332 332 331 331 330 329 329 329 329 329 329 329 328 328 328 327 327 329 330 331 331 331 331 331 331 332 331 330 330 330
332 332 332 332 332 332 331 328 328 328 329 331 332 331 331 330 329 329 329 329 329 329 329 328 327 327 327 326 327 328 329 330 330 330 330 330 331 331 330 330 329 330
332 332 332 332 331 330 328 327 328 328 329 330 332 331 330 330 329 329 329 328 328 328 327 326 326 326 326 326 326 327 327 329 330 329 329 329 330 330 329 329 329 330
332 333 332 331 330 329 327 327 328 328 327 329 330 330 329 329 328 328 328 327 327 327 326 325 325 325 326 326 326 325 326 327 328 327 327 327 328 328 328 328 328 329
331 331 331 330 329 329 328 327 328 327 327 328 329 329 328 327 327 328 327 327 327 326 325 324 324 324 325 325 324 324 325 325 325 325 325 326 326 326 326 326 327 328
329 330 330 329 329 330 329 328 328 328 327 328 327 327 327 326 327 327 327 327 326 325 324 324 323 323 324 324 324 324 324 323 324 324 324 324 325 325 325 325 325 327
327 329 329 328 328 329 328 327 327 328 327 326 326 326 326 326 326 326 326 325 324 323 322 321 321 322 323 323 323 323 323 322 323 323 322 323 324 324 324 325 324 325
326 328 329 328 327 327 327 327 326 326 326 325 326 327 326 325 325 324 324 323 322 321 320 319 320 321 322 322 322 322 322 322 322 321 321 322 323 324 324 323 322 322
326 327 328 327 327 327 327 327 326 325 324 324 325 326 326 325 324 323 322 321 319 318 318 318 320 321 321 321 322 322 321 321 321 321 321 321 322 322 323 322 321 322
326 326 327 326 326 326 327 327 326 325 323 322 323 324 324 323 322 321 320 318 318 318 318 318 319 320 321 321 321 321 321 320 320 319 320 320 321 321 321 321 322 324
325 325 326 326 326 326 326 326 325 323 322 321 321 322 321 320 320 320 318 317 317 317 317 318 319 319 319 320 320 320 320 319 318 318 318 320 320 320 321 321 322 325
323 325 325 325 326 326 325 324 323 322 321 320 320 319 319 318 317 317 316 315 315 316 316 316 318 318 318 318 319 319 319 319 318 317 318 319 321 321 321 321 322 324
319 322 324 324 324 325 324 322 321 320 319 318 318 318 317 316 315 315 315 315 314 314 314 314 315 316 316 317 318 319 319 318 318 318 319 320 320 320 319 319 319 319
314 317 320 322 323 323 321 319 318 317 315 315 316 316 316 316 315 315 315 314 313 313 313 313 313 314 314 315 317 319 319 318 318 319 319 319 318 317 317 317 317 317
309 311 314 317 319 320 318 316 315 313 313 314 314 314 313 313 312 312 312 311 311 311 312 312 312 313 314 314 315 319 320 320 320 320 319 318 317 316 317 317 316 317
307 308 309 311 314 315 314 313 312 311 311 313 313 311 310 309 308 307 308 309 309 309 310 311 312 313 314 315 316 318 319 320 320 320 319 318 316 316 316 316 315 316
306 306 307 308 310 311 311 311 311 309 308 309 310 309 308 307 306 305 305 306 306 306 307 308 308 310 313 314 316 317 319 319 320 320 318 316 314 313 313 314 313 313
306 306 305 306 307 309 309 310 309 308 308 308 307 307 305 304 304 304 303 303 303 303 303 303 303 304 307 310 313 316 318 319 319 318 315 313 311 311 310 311 311 310
304 304 304 304 305 306 307 308 308 308 308 307 306 305 304 302 303 302 301 301 301 300 301 301 300 300 301 304 307 311 314 315 316 316 312 309 308 307 306 306 306 306

ECMWFNIL_925_thetae_063.txt.gz
Theta_e
333 333 333 333 333 333 333 333 334 334 334 333 333 334 334 334 333 333 333 333 334 334 335 335 334 334 333 333 333 333 333 333 333 332 332 332 331 331 331 331 330 330
333 333 333 333 333 333 333 332 333 333 334 334 334 334 334 333 333 333 333 334 334 335 335 335 335 334 333 333 333 332 333 333 332 332 331 331 332 331 331 331 331 330
332 332 333 333 333 333 333 332 331 332 333 334 334 334 334 333 333 333 333 334 335 335 334 334 334 333 333 333 333 332 332 332 332 331 331 331 332 331 331 331 330 330
330 331 333 333 333 334 333 332 331 331 332 333 332 332 333 334 333 333 333 334 334 334 334 333 333 333 332 332 332 331 331 332 332 331 332 332 331 331 331 330 330 329
329 330 331 333 333 333 332 332 331 331 331 332 331 330 330 332 333 333 334 333 333 333 333 332 332 331 331 331 331 331 331 332 332 332 332 332 331 331 331 331 330 329
329 329 330 332 331 331 331 331 331 332 332 331 331 331 330 330 331 333 333 333 333 333 332 332 331 331 331 331 331 331 331 332 332 332 332 332 331 331 331 331 331 330
327 327 330 332 329 329 332 332 331 332 332 331 331 331 331 330 329 330 332 333 333 332 332 332 331 331 331 331 331 331 331 332 333 332 332 331 331 331 331 331 331 331
328 328 330 331 330 330 331 331 331 331 331 331 330 330 331 330 329 327 330 332 332 331 331 331 331 331 331 331 331 332 332 332 332 332 331 331 331 331 331 331 331 331
329 329 330 331 330 330 330 329 331 331 331 330 330 330 330 330 328 326 328 332 331 330 330 330 330 330 329 330 330 330 331 331 331 331 331 331 331 331 331 331 330 330
329 330 331 331 331 331 329 329 330 331 330 330 330 330 330 330 329 325 327 331 331 330 330 329 329 329 328 329 328 328 329 330 331 331 331 331 331 331 331 331 331 330
328 330 331 331 331 331 329 329 330 331 330 329 329 329 329 330 329 326 327 330 330 329 329 329 328 328 328 328 327 327 328 329 330 330 331 331 331 331 331 331 330 330
326 328 330 330 331 331 330 329 329 330 330 329 329 329 329 329 328 326 327 330 329 329 329 329 328 327 327 327 327 327 328 328 330 330 330 330 330 330 330 330 329 329
324 325 328 329 330 331 329 328 328 330 329 328 329 329 329 329 327 326 328 329 329 329 329 328 327 326 327 326 326 327 326 327 328 329 329 329 328 328 329 329 328 327
321 324 326 327 329 329 328 328 328 328 328 328 329 329 329 329 327 325 327 329 328 328 327 326 325 325 326 326 326 326 325 326 327 327 327 327 326 326 327 327 326 326
319 322 325 326 328 328 327 327 326 327 328 328 328 327 327 328 326 325 327 328 327 327 326 324 324 325 325 325 325 325 325 325 325 325 325 325 325 325 326 326 325 326
317 320 324 326 327 327 327 327 326 326 327 326 326 325 325 326 325 325 327 327 327 327 325 324 324 324 324 324 324 324 324 323 323 324 324 323 324 324 324 325 325 325
315 318 322 325 326 326 327 326 326 326 326 325 326 325 324 325 326 326 327 327 326 325 324 323 322 322 323 323 322 322 323 322 322 322 322 322 323 324 324 324 324 324
313 316 321 324 325 326 326 326 326 325 325 325 325 324 323 325 326 326 326 325 324 322 321 321 321 321 322 322 321 321 321 321 321 321 321 322 323 324 324 324 323 324
311 313 317 322 325 325 325 325 325 325 324 324 323 322 322 323 324 323 322 321 320 320 319 319 320 321 321 321 321 321 320 320 320 320 321 323 323 323 323 323 323 324
311 311 313 318 323 324 325 325 324 324 323 322 321 320 319 320 321 320 318 317 318 318 318 318 319 320 320 320 320 320 319 319 319 320 321 322 322 323 323 323 324 324
309 310 310 313 317 320 322 323 322 320 319 318 317 316 315 316 318 316 315 315 316 317 317 317 318 319 319 319 319 318 319 318 318 318 320 321 322 322 322 321 321 321
307 309 308 309 313 314 314 316 316 316 314 312 311 311 310 311 313 313 313 314 314 315 315 315 317 318 319 319 318 318 318 318 318 318 319 320 320 319 319 317 317 317
306 308 307 307 309 310 308 309 310 310 309 309 307 306 306 307 309 310 310 312 312 313 314 314 315 318 319 319 318 318 318 318 318 318 317 317 316 315 315 314 314 315
304 306 307 306 306 307 306 305 305 306 305 306 305 303 302 304 307 307 308 310 311 311 313 313 315 317 319 319 318 318 318 318 317 316 315 314 313 312 312 312 312 312
303 305 307 306 305 305 306 304 303 303 303 303 303 301 301 302 304 305 306 306 307 309 310 312 313 315 318 319 318 317 317 317 317 315 313 311 310 310 310 310 310 310
303 303 305 306 306 305 304 304 302 301 301 301 301 301 301 301 302 302 302 302 303 304 306 309 311 313 314 316 317 317 316 316 316 315 312 310 309 308 308 307 307 307

ECMWFNIL_925_thetae_066.txt.gz
Theta_e
327 327 329 331 332 332 331 331 331 331 331 331 330 330 331 332 332 333 333 333 333 333 332 331 331 332 332 330 331 333 333 333 333 333 332 332 332 331 331 331 331 331
327 328 329 330 331 332 331 331 331 331 331 331 329 329 330 331 331 331 332 333 333 333 333 332 332 333 333 332 331 332 333 333 333 333 333 332 332 332 332 331 331 331
328 328 329 329 329 331 331 331 331 330 330 330 329 330 330 331 331 331 331 331 332 333 333 332 333 333 333 332 331 333 333 333 333 333 332 332 332 332 331 331 331 331
328 328 328 329 329 329 330 330 330 330 328 328 330 331 330 331 331 331 332 331 330 331 332 333 333 333 333 333 332 333 333 333 333 333 332 332 332 331 331 331 331 331
328 328 328 328 328 329 329 330 331 330 329 328 329 331 331 331 331 331 332 332 331 330 331 333 334 333 333 333 333 333 333 332 332 332 332 332 331 331 331 331 331 331
327 328 328 328 329 329 329 329 330 330 330 329 330 330 331 331 331 331 332 331 331 331 330 332 334 334 334 333 333 333 333 332 331 331 331 331 331 331 331 331 330 330
327 327 328 328 329 329 328 329 329 329 330 330 330 331 331 331 331 331 331 331 331 331 330 329 332 334 333 333 333 332 332 332 331 331 331 331 331 331 331 330 330 330
326 327 328 328 328 328 328 329 329 329 330 330 331 331 331 331 331 330 330 331 332 332 330 329 330 332 332 332 332 331 331 331 331 331 331 331 331 331 331 330 330 331
324 326 327 328 328 328 328 329 329 330 330 330 331 331 330 330 331 330 331 331 332 331 330 329 330 331 331 331 330 330 331 331 331 331 332 332 332 331 331 331 331 331
322 324 326 328 329 329 329 329 329 330 330 330 330 331 330 330 330 330 331 331 332 331 330 329 329 330 331 331 330 330 331 330 331 331 332 332 332 331 331 331 331 331
320 322 323 325 327 329 330 330 330 329 329 329 329 330 330 330 330 330 330 331 331 330 329 329 329 330 331 331 331 331 331 331 331 332 332 332 331 331 331 331 331 331
317 319 321 323 324 327 329 330 330 329 328 328 328 328 329 330 329 330 330 331 331 329 328 329 329 330 330 330 330 330 330 331 331 331 331 331 331 330 331 330 331 331
315 318 319 321 323 325 327 328 329 329 328 328 328 328 328 329 329 329 330 330 329 327 327 328 329 329 330 329 329 329 329 329 329 329 330 330 330 330 330 330 330 330
312 316 318 319 322 325 325 327 328 328 327 327 328 327 328 329 329 329 330 330 328 327 327 328 328 329 329 328 328 328 328 327 327 328 329 330 330 330 330 330 329 330
309 313 316 318 321 324 325 326 327 327 327 327 327 327 327 328 329 329 330 329 327 327 327 328 328 329 328 328 328 328 327 327 327 328 329 329 330 330 330 329 329 329
307 310 313 316 319 322 324 325 326 327 327 327 327 327 327 328 328 328 329 328 327 327 328 328 329 329 328 327 327 327 326 326 326 327 328 328 329 329 328 328 327 327
306 308 310 313 317 320 323 324 326 327 326 326 326 326 327 327 327 328 328 326 327 327 328 328 329 328 328 326 326 326 326 326 325 326 326 326 327 327 326 325 326 326
305 306 308 311 314 318 320 323 325 326 326 326 326 326 326 326 326 327 327 326 326 327 328 328 328 328 326 325 325 325 325 325 324 324 324 324 324 325 324 324 325 325
304 305 306 309 312 315 318 321 324 325 326 325 325 325 325 325 325 326 326 325 326 327 327 328 327 326 324 324 324 324 324 324 323 322 323 323 323 323 323 324 324 323
304 304 305 306 309 312 315 318 320 323 324 324 324 323 323 323 324 324 324 324 325 326 327 327 326 324 323 323 324 323 323 322 321 321 322 322 323 323 323 324 323 323
303 304 304 305 306 308 310 312 314 316 317 318 319 321 320 320 320 321 322 323 323 324 325 324 323 323 322 322 322 321 321 321 321 321 321 322 323 323 323 323 323 323
303 303 303 304 305 305 305 306 307 308 309 310 311 315 316 315 315 316 317 318 319 321 321 321 320 321 320 320 320 320 320 320 320 321 321 322 322 322 322 322 323 324
302 303 303 303 303 303 302 303 303 303 304 304 305 307 308 308 308 308 309 310 312 315 317 318 318 319 319 318 319 319 319 319 320 320 320 320 320 320 320 320 321 321
303 302 303 302 302 302 301 301 301 301 301 301 301 302 302 303 304 304 304 305 307 309 312 315 317 317 317 316 316 318 318 319 319 318 318 317 317 316 316 317 317 317
303 303 303 302 302 301 301 301 300 300 300 300 300 300 300 302 303 303 303 304 305 306 307 310 312 314 314 314 314 316 317 318 317 317 315 314 313 313 313 313 313 314
303 303 302 302 302 301 301 301 301 300 300 300 300 299 300 301 302 302 302 303 305 306 306 306 307 309 310 311 312 314 315 315 316 315 313 310 309 309 309 308 309 310

ECMWFNIL_925_thetae_069.txt.gz
Theta_e
328 328 328 329 329 329 330 331 331 331 330 330 330 330 330 330 330 331 331 330 331 331 331 331 332 332 332 331 331 331 330 330 331 332 331 331 331 332 332 332 331 330
328 328 328 329 329 329 330 331 331 331 331 330 331 330 330 330 330 330 330 330 330 331 331 331 331 331 331 331 330 331 330 330 331 331 331 331 331 332 332 331 331 330
327 328 328 328 329 329 329 330 330 330 330 330 330 330 330 330 330 330 330 330 330 330 331 331 330 330 330 330 330 331 331 331 331 331 331 332 332 332 331 331 330 330
326 327 328 328 329 329 329 329 329 330 330 330 330 330 330 330 330 330 330 330 330 329 330 331 331 330 330 330 330 330 331 331 331 331 332 332 332 331 330 329 329 330
326 327 327 328 328 329 328 329 329 329 330 330 330 330 330 329 329 330 329 330 330 329 329 331 331 331 331 330 330 330 331 331 331 332 332 332 332 330 329 329 329 330
324 326 327 327 328 328 328 328 329 329 329 329 329 329 329 330 329 329 330 329 329 329 330 330 331 331 331 331 329 329 330 332 332 332 332 332 332 330 329 329 330 330
321 323 325 326 327 328 328 328 328 328 329 329 330 329 330 330 330 330 330 330 330 329 330 330 331 331 331 331 329 328 329 332 332 332 331 331 331 330 329 330 330 331
317 320 322 323 326 327 328 328 328 328 328 329 329 330 330 330 331 330 330 330 330 330 330 331 331 331 331 330 329 328 329 331 332 332 332 331 331 331 330 331 331 331
314 316 318 320 322 325 327 328 329 329 329 328 329 330 330 330 331 331 330 330 330 330 330 331 331 331 330 330 330 329 329 331 332 332 331 332 332 332 331 331 331 331
312 313 314 316 318 321 324 326 328 329 329 329 329 330 330 330 330 330 330 330 330 329 330 331 331 330 329 330 331 331 330 331 332 332 331 331 331 332 331 331 330 331
310 311 312 314 316 318 321 323 326 328 329 329 329 330 330 330 330 330 329 329 330 329 330 331 331 330 329 330 331 331 331 331 331 331 331 331 331 331 332 331 331 331
309 310 311 312 314 316 318 321 323 326 327 328 329 329 329 329 329 329 329 329 329 329 330 331 331 330 330 331 332 331 331 331 331 330 330 331 331 331 331 332 332 332
308 309 310 311 311 313 315 318 321 324 326 327 328 328 328 329 329 329 329 330 330 329 329 331 331 330 329 331 331 331 331 330 330 330 330 331 331 331 330 331 331 332
307 308 309 309 310 311 313 317 320 323 325 326 327 327 327 328 328 328 329 329 329 329 329 330 330 329 329 330 331 331 330 330 330 330 330 331 331 330 329 329 330 330
306 307 307 308 309 310 312 315 318 321 324 325 326 327 327 327 327 328 328 329 329 329 329 330 330 329 329 330 330 330 330 330 330 330 331 331 331 330 329 329 329 329
305 306 307 307 308 309 310 313 316 320 322 324 325 326 326 327 327 327 327 328 329 328 328 329 329 328 329 330 330 330 330 329 329 329 330 330 330 329 329 329 329 329
305 305 306 306 307 307 308 310 313 317 320 323 324 325 326 326 326 326 326 327 328 327 328 329 329 328 328 329 329 329 328 328 329 328 328 328 329 329 329 329 329 329
304 305 305 305 306 306 307 308 310 314 317 320 322 324 325 326 326 326 326 326 326 326 327 328 328 327 328 329 329 328 327 327 328 327 327 327 328 329 329 329 328 328
304 304 304 304 304 305 305 306 307 309 312 315 318 320 322 324 325 325 325 324 325 325 326 327 327 327 327 328 328 327 327 327 327 327 326 326 327 327 328 328 327 326
303 303 303 304 304 304 304 304 304 305 307 310 313 315 317 320 322 323 323 323 323 323 323 325 326 327 327 327 328 327 326 326 326 326 326 326 325 325 326 326 325 325
303 303 303 303 303 303 303 303 304 303 304 305 307 309 311 313 315 317 319 320 320 321 321 321 322 324 325 326 327 327 326 326 325 325 324 324 323 323 324 324 324 324
302 303 303 303 303 303 302 302 303 303 302 303 304 305 307 308 309 310 312 314 315 317 317 316 316 318 320 323 325 325 325 324 324 323 323 322 322 322 323 323 323 323
302 302 302 302 302 302 302 302 302 302 301 301 302 302 303 304 305 305 306 308 310 312 312 313 314 315 316 319 322 323 323 323 322 321 321 321 321 321 322 322 322 322
302 302 302 302 302 302 302 302 301 301 301 301 301 300 300 301 302 303 304 305 307 308 309 309 311 312 314 316 318 320 321 321 321 320 320 320 320 320 320 320 321 320
302 302 302 302 303 302 302 301 301 301 300 300 300 300 300 300 300 301 301 302 303 305 307 307 308 309 311 313 315 316 317 319 320 319 318 317 317 317 317 318 318 318
302 302 302 302 302 302 301 301 300 300 300 299 299 299 299 299 299 299 299 298 299 302 305 306 306 306 308 310 312 313 313 315 318 319 318 316 315 315 315 315 315 315

ECMWFNIL_925_thetae_072.txt.gz
Theta_e
330 331 331 331 331 332 332 332 332 332 333 334 335 334 334 333 333 333 333 332 332 332 332 332 332 333 333 333 333 332 333 333 333 333 333 333 335 335 334 334 331 332
328 330 330 331 331 331 332 332 332 332 332 333 334 334 334 333 333 333 333 332 332 332 332 333 332 332 333 333 332 332 332 332 333 333 333 333 334 334 334 333 331 332
327 328 329 330 330 331 332 332 332 332 332 332 333 333 334 333 332 333 333 333 332 331 332 332 332 332 333 333 333 332 332 332 333 333 332 333 334 334 334 333 332 332
325 326 328 329 330 330 331 331 332 332 332 332 332 332 332 332 332 333 333 332 332 331 331 331 332 332 333 333 333 333 332 332 333 333 333 332 333 334 334 334 333 331
322 324 326 328 329 329 330 330 331 331 331 332 332 332 332 333 333 333 332 332 332 332 331 331 332 332 332 333 333 332 332 331 332 332 332 332 333 334 334 334 334 333
319 321 323 325 327 328 329 330 330 330 331 331 331 332 332 332 333 332 332 331 331 331 331 331 331 331 332 332 332 332 332 332 332 332 333 332 333 333 333 334 334 334
317 318 319 321 323 325 328 329 330 330 330 330 331 331 331 331 332 332 332 332 332 332 332 331 331 331 332 332 332 332 332 332 332 333 333 333 332 332 332 333 334 333
315 316 317 318 320 321 324 326 328 329 330 330 330 331 331 331 331 332 332 332 332 332 332 332 331 331 332 332 332 332 332 332 332 333 333 332 332 331 330 331 333 333
314 315 316 317 318 318 320 321 323 326 328 330 330 331 331 331 332 332 332 333 332 332 333 332 332 332 332 332 332 332 331 331 332 333 333 332 332 331 330 331 332 333
313 314 315 315 316 317 317 318 320 322 325 328 330 330 330 331 332 332 332 333 333 332 332 332 332 332 332 332 332 332 332 332 332 333 333 332 332 332 332 331 332 333
313 313 313 314 314 315 316 317 318 320 322 325 327 329 330 330 331 332 332 332 332 332 332 331 331 332 332 332 332 331 332 332 332 333 333 333 332 331 331 330 330 330
312 312 312 313 313 314 315 316 317 319 321 324 325 327 329 330 330 331 331 331 332 332 331 330 330 331 332 332 332 331 332 332 332 333 333 332 331 330 330 331 331 331
311 311 311 312 312 313 313 314 316 317 319 322 324 326 327 329 330 330 331 331 331 332 331 331 331 332 332 332 331 331 332 332 332 331 332 332 331 329 329 331 332 331
310 310 311 311 311 311 312 313 314 315 317 320 323 325 326 327 328 329 330 330 331 331 331 331 331 332 333 332 331 331 332 332 331 330 332 333 331 329 330 331 331 331
309 310 310 310 310 310 310 311 312 313 314 316 319 322 325 326 327 328 329 329 330 330 330 330 330 331 332 332 331 332 332 332 332 333 333 331 330 331 333 333 333 332
308 309 309 309 309 309 309 310 310 311 311 312 314 317 321 324 326 327 327 328 329 329 330 330 329 329 331 331 331 332 332 332 333 333 331 329 330 333 333 333 333 332
308 308 308 308 308 308 308 308 308 308 309 310 311 312 315 318 322 325 326 327 328 328 329 329 329 329 330 330 331 331 331 332 332 331 330 331 332 333 333 333 333 332
307 307 307 307 308 307 307 307 307 307 307 308 309 310 311 313 316 320 324 326 326 327 327 328 328 328 328 329 330 330 330 331 331 330 331 333 333 331 331 332 332 332
307 307 307 307 307 306 306 306 306 306 306 306 307 308 308 309 310 314 319 322 324 326 327 326 327 327 327 328 329 328 329 330 330 330 331 332 331 330 330 331 332 331
306 306 306 306 306 306 306 306 305 305 305 305 306 306 306 306 307 309 313 316 319 322 325 326 326 326 326 327 327 327 328 329 328 329 331 330 330 330 330 331 331 331
306 306 306 306 306 305 305 305 305 304 304 304 304 304 304 304 304 305 307 310 313 315 318 321 323 324 324 325 325 326 327 327 327 328 330 330 329 329 330 330 331 330
305 306 305 305 305 305 305 304 304 304 303 303 303 303 303 303 303 303 303 305 308 310 312 313 316 319 321 322 323 325 326 326 326 326 327 328 328 328 328 328 328 328
305 305 305 305 305 304 304 304 303 303 302 302 302 302 301 301 301 301 301 301 303 305 307 308 310 313 316 318 322 324 324 324 324 324 325 326 326 326 325 325 325 326
304 304 305 305 304 304 304 303 303 302 302 301 301 301 300 300 300 300 300 300 300 301 303 305 307 309 311 315 319 321 322 322 321 321 322 324 323 322 322 323 323 324
304 304 304 304 304 304 304 303 303 302 301 301 301 300 300 300 300 299 299 299 299 299 300 302 304 306 307 310 315 317 318 319 319 318 319 320 319 318 318 319 319 320
303 304 304 304 304 304 304 303 303 302 301 301 300 300 300 299 299 299 299 298 298 298 299 299 301 303 304 307 310 313 315 316 316 314 314 315 315 314 313 314 314 316

ECMWFNIL_925_thetae_075.txt.gz
Theta_e
330 330 331 332 333 333 333 333 333 334 334 332 332 332 334 336 336 336 335 335 334 334 335 335 334 333 334 334 333 334 334 333 334 333 332 333 334 334 333 333 334 335
326 327 328 330 331 332 333 334 333 334 335 333 332 333 333 334 335 336 335 335 335 334 334 335 335 334 334 334 334 335 335 334 333 333 333 334 334 334 333 333 333 333
322 324 325 327 329 330 332 333 333 334 334 334 332 332 332 332 333 334 335 335 335 334 334 335 335 334 334 334 335 335 335 334 333 333 334 334 334 334 333 333 333 332
321 322 323 324 326 327 329 331 332 333 333 333 333 332 332 332 332 333 334 335 335 335 334 334 334 334 334 334 334 334 334 333 333 334 334 334 333 333 333 332 332 332
319 320 321 322 323 324 325 327 330 331 331 331 332 332 331 331 332 333 334 335 335 335 334 334 334 334 334 333 333 333 333 333 333 334 333 333 333 332 333 333 332 332
318 319 320 320 321 322 322 324 326 328 329 330 331 331 331 331 331 333 334 334 334 335 334 334 334 334 334 333 332 333 333 333 334 334 333 333 333 332 333 333 332 333
318 318 319 319 319 320 321 322 323 324 325 327 329 331 332 331 331 332 333 333 333 334 334 334 334 334 334 333 333 332 333 333 334 334 333 333 334 334 333 333 333 333
318 318 318 318 318 319 319 320 320 321 322 324 327 329 331 332 332 332 333 333 333 332 332 333 333 334 334 333 333 333 333 333 334 334 333 333 334 334 333 332 333 333
317 317 317 317 317 317 318 318 319 320 321 323 324 326 329 331 331 332 332 332 332 332 332 332 332 333 333 334 333 333 333 333 333 333 332 333 333 333 333 333 333 333
316 316 316 316 316 316 317 317 318 319 320 321 322 324 326 328 330 331 331 331 332 332 332 332 332 332 332 334 333 333 332 332 332 332 331 331 332 333 332 332 333 333
315 315 315 315 315 315 315 316 317 317 318 319 320 322 324 326 328 330 330 331 332 331 331 332 332 331 331 332 333 332 332 331 332 331 330 331 333 333 331 331 332 334
314 314 314 314 314 314 314 315 315 316 316 317 318 319 321 323 326 328 329 330 330 330 330 331 331 331 331 331 332 331 331 332 333 332 331 331 331 331 331 332 333 333
312 313 313 313 313 313 313 313 314 314 314 315 315 316 318 320 321 324 326 328 330 329 329 329 330 331 331 331 331 330 330 332 334 334 333 331 330 330 330 332 333 333
312 312 312 312 312 312 312 312 312 312 312 313 313 314 315 316 317 318 321 324 327 328 328 329 330 330 330 330 330 330 330 331 332 332 332 332 331 331 331 332 333 333
311 311 311 311 311 311 311 311 311 311 311 311 311 312 312 313 314 315 316 317 321 325 327 328 329 329 330 329 329 329 329 329 329 330 331 332 331 331 331 332 332 331
310 310 310 310 310 310 310 310 310 310 310 309 310 310 310 310 311 312 312 312 315 319 323 326 328 329 330 330 329 329 329 329 329 330 332 333 332 331 332 332 331 330
309 309 309 309 309 309 309 309 309 309 308 308 308 308 308 309 309 309 310 310 310 313 317 321 325 327 328 329 329 329 329 329 329 330 332 333 330 329 331 332 331 330
308 308 308 308 308 308 308 308 308 308 307 307 307 307 307 307 307 307 307 307 307 308 311 315 319 320 322 325 327 328 328 328 329 330 331 331 330 329 330 332 332 331
308 308 308 308 307 307 307 307 307 307 307 306 306 306 306 306 305 305 305 305 305 305 306 309 312 315 317 319 323 325 327 327 328 330 329 329 330 330 329 330 330 329
307 307 307 307 307 307 307 306 306 306 306 306 306 305 305 305 304 304 303 303 303 303 303 304 306 309 313 315 318 321 324 325 326 328 329 329 329 329 328 328 327 328
306 306 306 307 306 306 306 306 306 306 305 305 305 305 304 304 303 303 302 302 302 302 302 302 303 305 308 311 314 317 319 322 323 325 328 327 327 327 328 328 327 327
306 306 306 306 306 306 306 306 305 305 305 304 304 304 304 303 303 302 302 301 301 300 300 300 301 303 304 307 311 313 316 318 319 322 325 327 327 328 327 327 327 326
305 305 306 306 305 306 305 305 305 305 304 304 304 304 304 303 302 302 301 301 300 300 299 299 299 300 302 304 308 310 313 315 317 319 323 327 328 328 326 326 326 326
305 305 305 305 305 305 305 305 305 304 304 304 304 303 303 303 302 302 302 301 300 299 299 298 298 299 300 302 306 308 311 313 314 318 323 326 326 324 322 323 325 326
304 304 304 304 304 304 304 304 304 304 303 303 303 303 303 303 302 302 302 301 300 299 298 297 297 297 298 301 304 307 309 311 312 318 322 322 321 320 318 319 323 325
303 303 304 304 304 304 304 304 304 304 303 303 303 303 303 302 302 302 302 301 300 299 298 297 297 296 297 299 302 305 308 310 312 316 318 317 315 315 315 315 318 322

ECMWFNIL_925_thetae_078.txt.gz
Theta_e
322 323 324 325 326 327 328 329 330 331 333 333 332 333 334 334 332 332 333 333 333 333 333 333 334 334 334 334 333 333 333 334 334 335 334 334 334 334 334 333 333 333
321 321 322 323 324 325 325 326 326 328 330 331 332 332 333 333 333 332 332 332 333 333 333 332 333 333 333 334 334 334 334 334 334 334 334 334 334 333 334 333 333 333
320 320 321 321 322 323 323 323 324 325 326 328 329 330 332 333 333 332 332 332 332 332 332 332 333 332 332 333 334 334 334 334 334 334 333 333 333 333 333 333 334 334
319 319 320 320 320 321 321 322 323 323 324 324 325 327 329 331 332 332 332 332 332 331 332 332 332 332 331 331 333 333 333 333 333 333 332 332 332 332 333 333 334 334
319 319 319 319 319 319 319 320 321 321 321 322 323 324 326 328 330 331 331 331 331 331 331 331 331 331 331 331 332 331 331 332 332 332 331 332 332 332 332 333 334 334
318 318 318 318 318 318 319 319 319 320 320 321 322 323 324 326 328 329 329 330 330 329 330 330 330 329 330 331 331 331 332 332 333 333 332 332 332 332 332 333 333 334
317 317 317 317 317 317 317 318 318 318 319 320 321 321 322 324 325 326 328 329 330 329 329 329 329 329 329 330 331 331 332 333 333 333 333 332 332 332 332 333 333 333
316 316 316 316 316 316 316 316 317 317 318 318 319 319 320 321 323 324 325 327 328 329 330 329 329 328 328 330 330 329 330 332 333 333 332 331 331 331 331 332 333 333
315 315 315 315 315 315 315 315 315 316 316 316 316 317 318 319 320 321 322 323 324 327 329 329 329 329 329 330 330 329 329 330 332 332 331 329 330 330 330 331 332 332
314 314 314 314 314 314 314 314 314 314 314 314 314 315 315 316 317 318 319 320 320 322 325 327 329 329 329 329 329 329 329 330 331 332 331 330 330 330 329 330 331 331
313 313 313 313 313 313 313 313 313 313 313 313 313 313 313 314 314 315 316 317 317 318 319 322 325 327 328 329 329 329 329 329 330 331 331 331 331 331 330 330 331 331
312 312 312 312 312 312 312 311 312 311 311 311 311 311 311 311 312 312 313 314 314 314 315 318 320 324 327 327 326 327 329 330 330 330 330 330 330 330 330 330 330 330
311 311 311 311 311 311 311 310 311 310 310 310 310 310 310 309 310 310 310 311 311 311 312 313 317 322 322 318 317 319 323 327 329 329 328 329 330 329 329 329 329 329
310 310 310 310 310 310 309 309 309 309 309 309 309 309 308 308 308 308 308 308 308 308 308 309 313 317 315 311 311 314 317 320 325 328 328 328 329 329 329 330 330 330
309 309 309 309 309 309 309 308 308 308 308 308 308 308 307 307 307 306 306 306 306 306 306 306 308 311 309 306 306 309 312 316 320 324 327 328 328 328 328 329 329 329
308 308 308 308 308 308 308 308 307 307 307 307 307 307 306 306 305 305 305 305 304 304 305 304 305 306 304 303 305 306 308 313 317 321 324 327 328 327 326 327 328 329
307 307 307 307 307 307 307 307 307 307 306 306 306 306 306 305 305 304 304 304 303 303 303 303 304 303 301 301 304 306 307 310 314 317 321 324 327 327 327 327 327 328
307 307 307 307 307 307 307 306 306 306 306 305 305 305 305 305 304 304 304 303 302 302 302 301 302 301 299 300 303 305 306 308 312 315 318 321 325 327 327 327 328 328
306 306 306 306 306 306 306 306 305 305 305 305 305 305 304 304 304 303 303 302 302 301 300 300 300 299 297 299 302 304 305 308 311 314 316 319 322 325 327 327 328 328
306 306 306 306 306 305 306 305 305 305 304 304 304 304 304 304 303 303 303 302 301 300 299 299 299 297 296 298 301 303 305 307 310 313 316 318 320 323 325 327 327 326
305 305 305 305 305 305 305 305 305 305 304 304 304 304 303 303 303 303 303 302 301 300 299 299 298 297 296 297 299 302 305 308 310 312 315 317 320 322 324 327 326 325
304 304 304 304 304 304 304 304 304 304 304 303 303 303 303 303 302 302 302 302 301 300 299 299 298 297 296 296 298 301 305 308 309 311 313 315 318 320 322 325 326 325
304 304 304 304 304 304 304 304 303 303 303 303 303 303 303 302 302 302 302 302 301 300 299 299 298 297 296 296 297 300 304 306 308 310 312 315 317 319 321 323 325 326
304 303 304 303 303 303 303 303 303 303 303 303 303 303 302 302 301 301 301 301 300 300 299 299 298 297 296 296 296 298 301 303 305 308 310 313 316 317 319 322 324 325
303 303 303 303 303 303 303 303 302 302 302 302 302 302 302 302 301 301 300 300 299 299 298 298 298 297 297 296 296 297 298 300 301 303 304 307 308 309 311 314 317 320
303 303 303 303 302 302 302 302 302 301 301 301 301 302 301 301 301 301 300 299 299 298 297 297 297 297 297 297 297 296 296 297 298 299 299 301 302 302 303 305 307 311

ECMWFNIL_925_thetae_081.txt.gz
Theta_e
320 320 319 319 319 319 319 320 321 321 321 321 322 323 324 325 327 328 329 330 331 331 331 330 330 331 331 332 332 332 333 332 333 333 333 332 330 329 330 331 330 330
319 319 318 318 318 318 318 319 319 319 319 320 321 322 323 324 325 326 328 329 329 330 330 330 330 330 330 330 331 331 331 331 332 332 333 333 331 330 331 331 330 331
317 317 317 318 318 317 317 317 318 318 318 318 319 320 321 322 323 324 326 327 328 329 329 329 329 329 330 330 329 330 330 331 331 331 331 332 332 332 332 332 332 332
316 315 315 316 316 316 315 316 316 317 317 317 317 318 318 319 320 321 322 324 326 327 327 328 329 329 329 329 329 329 330 330 330 329 329 330 331 332 332 332 333 332
315 315 314 314 314 314 314 314 314 315 315 315 315 315 316 316 318 319 319 321 322 322 323 326 328 328 328 329 328 328 329 329 329 329 329 329 329 330 331 331 332 332
314 313 313 313 313 313 313 313 313 313 313 313 313 313 313 314 315 316 317 317 318 318 319 321 323 325 328 328 328 328 328 329 329 328 328 328 328 329 330 331 330 330
312 312 312 312 312 311 312 312 311 311 311 312 311 311 311 312 313 313 314 314 314 315 316 317 319 321 324 325 325 326 327 329 329 328 328 328 329 330 330 330 330 329
311 311 311 311 311 310 310 310 310 309 310 310 309 309 309 309 310 310 311 311 311 311 312 314 316 317 317 318 318 319 321 324 327 328 328 328 329 330 329 329 330 329
310 310 309 310 309 309 309 309 309 309 308 308 308 308 308 308 308 308 308 308 308 308 308 310 313 313 313 313 313 313 315 317 321 324 326 328 329 329 328 327 329 330
309 309 309 309 308 308 308 308 308 308 307 307 307 307 307 306 306 306 306 306 306 306 306 307 309 310 309 310 309 309 310 313 316 319 323 326 328 328 328 327 328 329
309 308 308 308 308 307 307 307 307 307 307 307 306 306 306 305 305 304 305 304 304 304 304 305 307 307 305 305 305 306 307 309 312 315 319 323 326 328 328 327 328 328
308 308 307 307 307 307 307 306 306 306 306 306 305 305 305 304 304 304 303 303 303 303 302 303 305 304 301 300 301 303 305 307 309 313 316 319 323 326 328 328 328 329
307 307 307 306 306 306 306 306 306 305 305 305 305 304 304 304 303 303 303 302 302 301 301 302 303 301 298 298 298 300 302 304 307 310 313 317 320 324 326 328 328 328
306 306 306 306 306 306 305 305 304 304 304 305 305 304 303 303 303 303 302 301 301 301 300 301 301 299 297 297 297 297 299 302 305 308 310 313 317 321 325 327 328 328
306 305 305 305 305 305 305 304 304 303 304 304 304 304 303 303 303 303 302 301 300 300 299 299 300 298 297 297 296 296 297 299 303 306 307 310 314 319 322 325 327 328
305 305 305 305 305 304 304 304 304 303 303 303 303 303 303 303 303 303 302 301 300 299 299 299 299 298 297 297 297 297 297 298 302 306 307 309 312 315 319 323 325 327
304 305 305 305 304 304 304 304 304 303 303 303 302 302 302 302 302 302 302 300 300 299 299 299 298 297 297 297 298 299 299 300 303 306 308 309 310 311 316 321 323 325
304 304 304 304 304 303 303 303 303 303 303 303 302 301 301 301 302 302 301 300 300 299 299 299 298 297 297 297 298 300 302 303 304 305 307 308 308 309 313 318 321 324
304 303 303 304 303 303 302 302 302 302 303 303 302 301 300 301 301 301 300 300 299 299 299 298 298 297 297 297 298 299 302 303 302 302 305 308 309 310 313 316 319 322
303 303 303 303 303 302 302 301 301 301 302 302 302 301 300 301 300 300 299 299 298 298 298 298 297 297 297 297 297 299 301 302 300 300 303 306 307 310 312 314 317 320
302 302 302 303 303 302 302 301 301 301 301 302 302 301 300 300 300 299 299 298 298 298 297 297 297 296 297 297 298 298 299 300 299 299 300 302 303 306 308 310 312 316
302 302 302 302 302 301 301 301 301 300 300 301 301 300 300 300 300 299 299 298 297 297 297 297 296 296 296 297 297 298 298 298 298 298 298 299 300 301 303 306 308 310
301 301 301 302 301 301 300 300 300 301 300 300 300 300 300 300 300 299 298 298 297 297 297 297 296 296 296 296 297 297 297 297 297 297 298 298 298 299 300 303 305 306
301 301 301 301 301 301 300 299 300 300 300 300 300 300 300 300 299 299 298 298 298 297 297 296 296 296 296 296 296 296 297 296 296 297 297 297 297 298 298 300 303 304
301 301 301 301 301 301 300 300 299 300 300 300 300 299 299 300 299 299 298 298 298 298 297 296 296 296 295 296 296 296 296 296 296 296 296 297 297 297 297 298 300 302
302 301 301 301 301 301 300 300 299 299 299 300 300 299 299 299 299 299 298 298 298 298 297 296 296 295 295 295 296 296 295 296 296 295 295 296 297 296 296 297 298 299

ECMWFNIL_925_thetae_084.txt.gz
Theta_e
317 317 315 315 315 316 317 317 316 315 315 316 316 316 317 317 318 319 320 321 322 322 322 324 326 327 328 328 329 329 329 328 328 328 329 330 331 331 331 330 329 329
315 314 314 313 313 314 314 315 314 313 313 313 313 314 315 315 316 316 316 317 318 318 319 321 322 324 325 326 327 328 328 328 328 328 328 329 329 330 330 330 329 329
313 312 312 312 312 312 311 312 312 312 311 311 311 312 312 313 313 313 313 313 314 315 317 318 319 320 321 321 322 324 324 325 326 327 327 328 328 328 329 329 328 328
311 311 311 311 310 310 310 310 310 309 309 309 309 309 309 310 310 310 310 310 311 312 313 315 315 315 316 316 318 319 320 321 322 324 326 327 328 328 328 328 328 328
310 310 310 309 309 308 308 308 308 308 308 307 307 307 307 307 307 307 307 307 307 308 310 311 312 311 312 312 314 315 317 318 319 320 322 325 327 327 328 328 328 329
309 308 308 308 308 308 308 308 307 307 307 306 306 306 305 305 305 305 305 305 305 306 307 308 308 308 309 310 311 312 313 314 316 317 319 321 324 326 327 328 328 328
308 307 307 307 307 307 307 307 307 306 306 305 305 304 304 304 304 304 304 304 304 304 305 306 305 305 307 307 308 309 310 311 313 314 315 317 320 323 325 327 328 328
307 307 307 306 306 306 306 306 306 305 305 304 304 304 303 303 303 303 302 302 302 302 303 304 303 303 303 303 303 304 307 308 309 310 312 314 317 320 322 325 327 329
307 306 306 306 305 305 305 305 305 305 304 303 303 303 303 302 302 302 301 301 301 301 302 302 301 300 300 300 300 300 302 305 307 308 308 310 313 316 319 322 324 327
306 305 305 304 304 304 304 305 305 304 304 303 303 303 303 302 301 301 300 300 300 300 301 301 300 299 299 299 299 298 298 300 303 305 306 308 310 313 316 319 322 325
305 305 304 304 303 303 303 304 304 304 303 303 303 303 302 301 301 300 300 300 300 300 300 300 299 298 298 298 298 299 298 299 300 302 303 305 307 310 313 315 319 322
305 304 304 303 303 303 302 302 302 302 302 302 302 303 303 301 300 300 300 299 299 299 299 299 298 298 297 297 298 299 299 299 300 301 302 303 304 307 310 312 315 319
304 304 304 304 303 303 302 302 301 301 301 301 302 302 302 301 300 300 300 299 299 299 299 298 298 297 296 297 297 298 299 298 299 300 301 302 304 306 308 310 313 315
303 303 303 303 303 303 302 302 301 300 300 301 301 301 301 301 300 299 299 299 299 299 298 298 297 296 296 296 297 298 298 298 299 299 300 302 304 306 308 309 311 312
302 302 302 302 303 303 303 302 301 300 300 300 300 300 300 300 299 299 299 299 298 298 298 298 297 296 296 296 296 297 298 298 298 299 300 301 303 305 307 308 310 311
302 301 301 301 301 302 303 302 301 300 300 300 300 300 299 299 298 298 298 298 298 298 297 297 296 296 296 296 297 297 297 298 298 299 300 301 302 303 305 307 308 310
302 301 300 300 300 301 302 302 301 300 299 300 300 299 299 298 298 297 297 297 297 297 297 297 296 296 296 296 297 298 297 297 297 298 299 300 301 301 303 304 305 308
302 301 301 300 300 300 301 301 301 299 299 299 299 299 298 298 298 297 297 297 296 296 296 296 296 296 296 296 297 298 298 297 297 297 298 299 299 300 301 301 302 304
301 300 300 300 300 300 300 300 299 299 299 299 299 298 298 298 298 297 297 297 296 296 296 295 295 295 295 296 297 297 298 297 296 297 297 298 299 299 299 300 300 300
300 300 299 300 300 300 299 299 299 299 299 299 299 298 298 298 297 297 297 297 296 296 296 295 295 295 295 296 296 297 297 297 296 296 296 297 298 298 298 298 299 299
300 300 299 299 299 300 300 299 299 299 299 299 299 298 298 297 297 297 297 296 296 296 296 295 295 295 295 295 296 296 297 296 295 296 296 296 297 297 297 298 297 298
300 300 299 299 299 299 300 300 299 299 299 299 299 298 298 297 297 297 297 296 296 296 295 295 295 295 295 295 295 296 296 295 295 295 295 295 296 297 297 297 297 297
300 300 300 299 298 299 299 299 299 299 299 299 299 299 299 298 297 297 296 296 296 295 295 295 295 295 295 295 295 295 295 295 294 294 294 294 295 296 297 296 296 297
301 300 300 299 298 298 298 298 299 299 299 299 299 299 299 299 298 296 295 295 295 295 295 295 295 295 295 295 295 295 295 294 294 294 293 293 294 295 296 296 296 296
300 300 300 299 298 298 298 298 298 298 298 299 298 298 299 299 298 296 295 295 295 295 295 295 295 295 295 295 295 295 295 294 294 293 293 293 293 294 295 295 295 296
300 300 300 299 298 297 297 297 297 297 297 297 297 297 298 298 298 296 295 295 295 295 295 295 295 295 295 295 295 295 295 295 294 293 293 293 293 293 294 294 294 295

ECMWFNIL_925_thetae_087.txt.gz
Theta_e
313 313 313 312 312 312 311 311 310 310 309 309 310 310 310 310 310 311 311 312 313 314 314 313 314 315 317 319 320 320 321 321 322 322 322 324 325 326 327 327 327 328
312 311 311 311 310 310 309 309 308 308 307 307 307 307 308 308 308 308 309 309 310 311 311 309 311 312 313 315 316 316 317 318 319 319 320 321 323 324 325 327 327 327
310 310 309 309 308 308 307 307 306 306 305 305 305 305 305 305 306 306 306 307 308 308 307 307 309 310 311 312 313 313 313 314 315 315 317 319 320 322 323 324 326 327
308 308 308 307 307 306 306 305 305 304 304 304 303 303 303 303 303 304 304 305 306 305 305 306 307 307 308 309 310 310 311 312 312 313 314 316 318 319 320 322 323 325
307 307 307 306 306 305 305 304 304 304 303 303 302 302 302 302 302 302 302 302 303 304 303 303 303 303 303 304 305 306 307 308 309 310 311 313 315 316 318 318 320 322
306 306 306 306 306 305 304 303 303 303 303 302 302 301 301 301 301 301 301 301 302 302 301 300 300 300 300 300 301 301 302 303 304 304 306 308 311 313 315 315 316 318
305 305 305 305 305 304 304 303 303 303 303 302 301 301 300 300 300 300 300 300 300 300 299 299 298 298 298 298 299 299 299 300 301 301 301 302 304 308 311 312 312 314
305 304 305 305 305 304 304 303 303 302 302 302 301 300 300 300 299 299 300 299 299 299 298 298 298 298 298 298 298 298 298 299 300 300 300 300 301 303 306 307 307 309
303 304 304 304 304 304 303 303 302 302 302 302 301 300 300 300 299 299 299 299 299 299 298 297 297 297 297 297 297 297 297 298 298 298 299 300 300 301 302 303 303 304
302 302 302 301 301 302 302 302 302 302 302 302 300 300 299 300 299 299 299 299 298 298 297 297 296 296 297 297 297 297 297 297 297 298 299 300 300 301 301 302 302 303
302 302 301 301 300 300 301 301 302 302 301 301 300 299 299 299 299 299 298 298 298 297 297 296 296 296 296 297 297 297 297 297 297 298 298 299 300 301 301 302 302 303
303 302 302 301 300 300 300 300 300 300 300 300 299 298 298 298 298 297 297 297 297 297 297 296 296 296 296 296 297 297 298 297 297 297 298 299 300 301 301 302 303 304
303 303 302 301 300 300 300 300 299 299 298 298 297 297 297 296 296 296 296 296 296 296 296 296 295 295 295 296 296 297 297 297 297 297 297 298 299 300 301 302 303 303
302 303 302 301 300 299 300 299 299 298 298 297 297 296 296 296 296 296 296 295 295 295 295 295 295 295 295 295 296 296 297 297 296 297 297 297 298 300 300 301 302 302
302 303 302 301 299 299 299 299 298 298 297 297 297 296 296 296 296 296 295 295 295 295 295 295 295 295 295 295 295 295 296 296 296 296 296 297 298 299 299 299 300 300
301 302 301 300 299 298 298 298 297 297 297 296 296 296 296 296 296 295 295 295 295 295 295 295 295 295 295 295 295 295 295 295 295 295 295 296 297 298 298 298 299 299
299 300 299 298 298 298 298 298 297 297 296 296 296 296 296 296 295 295 295 295 295 295 295 295 295 295 295 295 295 295 295 295 295 295 295 295 296 297 297 298 298 298
299 299 298 298 298 298 298 298 297 297 297 296 296 296 296 295 295 295 295 294 294 294 294 295 295 295 295 295 295 295 295 295 295 295 294 294 295 295 297 297 297 297
299 299 299 299 298 298 298 298 298 298 298 297 297 296 295 295 295 294 294 294 294 294 294 294 294 295 295 295 295 295 295 294 294 294 294 294 294 294 296 296 296 296
299 299 299 299 299 299 299 298 298 298 298 298 297 296 295 294 294 294 294 294 294 294 294 294 294 294 294 294 295 295 294 294 294 294 294 294 294 294 294 295 296 296
299 299 299 299 299 299 299 299 299 298 298 299 298 296 295 294 294 294 294 294 294 294 294 294 294 294 295 295 295 295 294 294 294 294 294 294 294 294 294 294 295 295
298 298 298 299 299 299 299 298 298 298 298 298 298 296 295 295 295 294 294 294 294 294 294 294 294 294 294 295 295 295 294 294 294 294 294 294 294 293 293 294 294 295
297 297 297 297 298 298 298 297 297 297 297 297 297 296 295 295 295 294 294 294 294 293 294 293 293 294 294 295 295 295 294 294 294 293 294 293 293 293 293 293 293 294
297 297 297 297 297 297 297 297 296 296 297 296 296 295 294 294 294 294 294 294 294 294 294 294 294 294 294 294 295 295 294 294 293 293 293 293 293 293 293 292 293 294
297 297 297 297 297 297 296 296 296 296 296 296 295 294 294 294 294 294 294 294 294 294 294 294 293 293 294 294 295 294 294 294 293 293 293 293 293 292 292 292 292 293
297 297 297 297 297 297 296 296 296 296 296 295 294 294 294 294 294 294 294 294 294 294 294 293 293 293 293 294 295 294 294 294 293 293 292 292 292 292 292 292 291 292

ECMWFNIL_925_thetae_090.txt.gz
Theta_e
310 310 309 308 307 307 306 306 306 305 305 305 305 304 304 304 305 306 307 307 307 307 307 307 307 308 309 309 310 311 311 312 313 313 314 315 316 316 317 318 319 320
308 308 307 307 306 305 305 304 304 303 303 303 303 303 303 303 304 304 305 305 304 303 303 304 304 304 304 305 306 306 307 308 309 310 311 312 312 313 313 314 315 316
307 306 306 305 304 304 304 303 303 302 301 301 302 302 302 302 302 302 302 302 301 300 301 301 302 302 302 303 303 304 304 304 304 305 306 307 308 308 309 310 311 312
306 305 304 303 303 303 303 302 301 301 300 300 300 300 300 300 300 300 300 299 299 299 299 299 300 300 300 301 301 302 302 302 302 301 302 303 304 304 305 306 307 308
306 305 304 303 303 303 302 302 301 300 300 300 300 299 299 299 299 299 299 298 298 298 298 298 298 298 299 299 300 300 300 300 300 299 300 301 302 302 303 303 303 305
305 304 304 303 303 302 302 302 301 300 300 300 299 299 299 299 298 298 298 297 297 297 297 297 297 297 297 298 298 298 298 297 297 297 298 299 300 302 302 302 302 303
304 304 304 303 302 302 302 302 301 300 300 300 299 299 299 298 298 297 297 297 296 296 296 296 296 296 296 297 297 297 297 297 296 297 297 298 299 300 301 302 302 302
303 303 303 302 302 302 302 301 300 299 299 299 298 298 297 297 296 296 296 296 296 296 295 295 295 295 296 296 296 297 297 297 296 296 297 297 298 299 300 301 302 302
301 301 302 302 302 302 301 300 299 298 298 297 297 296 296 295 295 295 295 295 295 295 295 295 295 295 295 295 295 295 296 296 296 296 296 297 298 299 300 301 302 302
300 300 300 301 301 301 300 299 298 297 296 296 295 295 295 295 295 295 295 295 295 295 295 295 295 295 295 295 295 295 295 295 295 295 295 296 297 298 299 300 301 301
300 300 300 300 299 299 298 297 296 296 296 295 295 295 295 295 294 295 295 295 295 295 295 295 295 294 294 295 295 295 295 295 295 295 295 295 296 297 299 299 300 300
300 300 299 299 298 297 297 296 296 296 296 295 295 294 294 294 294 294 294 294 294 294 294 294 294 294 294 294 295 295 295 295 295 295 295 295 295 296 297 298 298 299
299 299 299 298 298 297 296 296 296 296 295 295 294 294 294 293 293 294 294 294 294 294 294 294 294 294 294 294 294 294 295 295 295 295 295 295 295 295 296 297 298 298
299 299 298 298 297 296 296 296 296 295 295 294 294 293 293 293 293 293 293 293 293 294 294 294 294 294 294 294 294 294 294 294 294 294 294 295 294 295 295 296 297 297
298 298 298 297 296 296 296 296 296 295 295 294 294 293 293 293 293 293 293 293 293 293 293 294 294 294 294 294 294 294 294 294 294 294 294 294 294 294 294 295 296 296
298 298 297 296 296 296 296 296 296 295 295 294 294 293 293 293 293 292 293 293 293 293 293 293 294 294 294 294 294 294 293 294 294 294 294 294 294 294 294 294 295 296
298 298 297 297 297 297 296 296 296 296 295 295 294 294 294 293 293 293 293 293 293 293 293 293 293 294 294 294 294 293 293 293 293 293 294 294 294 293 293 294 294 295
298 298 297 297 297 297 297 296 296 296 295 294 294 294 294 293 293 293 293 293 293 293 293 293 293 294 294 294 294 293 293 293 293 293 293 293 293 293 293 293 294 294
298 298 298 298 297 297 297 297 296 295 295 294 294 294 294 293 293 293 293 293 293 293 292 292 293 294 294 294 293 293 293 293 293 293 293 293 293 293 293 293 293 293
298 298 298 298 298 298 298 297 296 295 294 294 294 294 294 293 293 293 293 293 293 292 292 292 293 294 294 293 293 293 293 293 293 293 293 293 293 293 293 293 293 293
298 298 298 298 298 297 297 297 296 295 294 294 294 293 293 293 293 293 293 293 292 292 292 292 293 294 293 293 293 293 293 293 293 293 293 293 293 293 293 292 292 292
298 297 297 297 297 297 296 296 295 294 294 294 293 293 293 293 293 293 293 292 292 292 292 292 293 294 293 293 293 294 293 293 293 293 292 292 293 293 292 292 291 292
297 296 296 296 296 296 296 295 295 294 294 294 294 294 293 293 293 293 292 292 292 292 292 292 293 294 293 293 293 294 294 293 293 292 292 292 292 292 292 291 291 292
296 296 296 296 296 296 295 295 294 294 294 294 294 294 293 293 293 293 292 292 292 292 292 292 293 294 293 293 293 294 294 293 293 292 292 292 292 292 291 291 291 291
296 296 296 296 296 296 295 295 295 295 294 294 294 294 294 294 293 293 293 292 292 292 292 293 293 293 293 293 293 294 293 293 292 292 291 291 291 291 291 291 290 291
296 296 296 296 296 296 296 295 295 295 295 294 294 294 294 294 294 294 293 292 292 292 292 293 293 293 293 293 293 293 293 292 292 291 291 291 291 290 290 290 290 291

ECMWFNIL_925_thetae_093.txt.gz
Theta_e
307 307 307 306 306 305 305 305 305 305 305 305 305 304 304 304 303 302 300 300 300 301 301 301 301 302 302 303 304 304 303 303 304 304 304 304 305 305 305 305 306 307
306 306 306 305 305 305 304 304 304 303 304 303 303 303 303 301 300 299 299 299 299 299 299 299 300 300 301 302 302 302 301 301 302 302 303 303 304 304 305 305 305 305
305 305 305 305 305 304 304 303 303 303 303 302 302 302 301 300 299 298 298 298 298 298 298 298 298 299 299 300 301 300 300 300 300 301 302 303 303 304 304 304 305 305
305 305 305 304 304 304 303 303 303 302 302 302 301 301 300 299 298 298 297 297 296 296 296 297 297 297 298 298 299 299 299 300 300 300 301 302 302 303 303 304 304 304
305 304 304 304 303 303 303 302 302 302 301 300 300 299 299 298 298 298 298 297 296 296 296 296 296 296 297 297 297 298 299 299 299 299 300 301 301 302 302 303 304 304
304 304 304 303 303 302 302 301 301 300 300 299 299 298 297 297 297 298 297 297 297 296 296 296 296 296 296 296 297 297 298 298 298 298 299 300 300 301 301 302 303 303
303 303 303 302 302 301 301 300 299 298 298 297 297 297 297 297 297 297 297 297 297 296 296 296 296 296 296 296 297 297 298 298 298 298 299 299 299 300 301 301 302 302
303 302 301 300 300 299 299 298 297 296 296 296 296 296 296 296 296 296 296 296 296 296 296 296 296 296 296 296 296 297 297 297 297 298 298 298 299 299 300 300 301 301
302 301 300 299 298 298 297 297 296 295 294 295 295 296 295 296 295 295 295 296 296 296 296 296 296 296 296 296 296 296 297 297 297 298 298 298 298 299 299 299 300 300
301 300 299 298 298 297 296 295 295 295 295 295 295 295 295 296 296 295 296 296 296 296 296 296 296 296 296 296 296 296 297 297 297 297 298 298 298 298 298 299 299 299
300 299 298 298 298 297 295 295 295 295 295 295 295 295 295 296 296 296 296 296 296 296 296 296 296 296 296 296 295 296 296 297 297 297 297 297 298 298 298 298 298 299
300 299 299 298 297 296 295 294 295 295 295 295 295 295 295 295 295 295 295 295 295 295 296 296 296 296 295 295 295 295 296 296 297 297 297 297 297 298 298 298 298 298
299 299 298 298 297 296 295 295 294 295 295 295 295 295 295 295 295 295 295 295 295 295 295 296 296 295 295 295 295 295 296 296 296 296 297 297 297 297 297 297 297 297
299 298 298 297 296 296 295 295 295 294 295 295 295 294 295 295 295 295 295 295 295 295 295 295 295 295 294 294 294 295 295 296 296 296 296 296 297 297 297 297 297 297
298 297 297 297 296 296 295 295 295 295 295 294 294 295 295 295 294 294 294 295 295 295 295 295 295 294 294 293 294 294 295 296 296 296 296 296 296 296 296 296 296 296
298 298 298 297 296 296 295 295 295 295 295 295 295 295 294 294 294 294 294 294 295 295 295 295 294 294 293 293 293 293 294 295 296 296 296 296 296 296 296 296 296 296
298 298 298 297 296 296 296 296 296 295 295 295 295 294 294 294 294 294 294 294 294 295 295 295 294 293 293 293 293 293 293 294 295 295 296 296 296 296 296 296 295 295
299 299 298 297 296 296 296 296 296 295 295 295 294 294 294 294 294 294 294 294 294 295 295 295 294 293 293 293 293 293 293 294 295 296 296 296 296 295 295 295 295 295
299 299 298 297 296 296 296 296 295 295 295 294 294 294 294 294 294 294 294 294 294 294 294 295 294 293 293 293 293 293 293 294 295 295 295 295 295 295 295 294 294 294
299 299 298 297 295 295 296 296 295 295 294 294 294 293 293 294 294 294 293 293 294 294 294 294 293 293 293 292 292 293 293 294 295 295 295 295 295 295 294 294 294 294
299 298 297 296 295 296 296 295 295 294 294 294 294 294 294 294 294 293 293 293 293 294 294 294 293 292 292 292 292 292 293 294 295 295 295 295 295 294 294 294 293 293
298 297 297 296 296 296 296 295 295 294 294 294 294 294 294 294 293 293 293 293 293 293 294 294 293 292 292 292 292 292 293 294 294 294 294 294 294 294 294 294 293 293
297 297 296 296 296 296 296 295 295 294 294 294 294 294 294 294 294 293 293 293 293 293 293 294 293 292 291 292 292 292 293 294 294 294 294 294 294 294 293 293 293 293
296 296 296 296 296 296 295 295 295 295 294 294 294 294 294 294 294 294 293 292 292 293 293 293 293 292 291 291 292 292 293 293 294 294 294 293 293 293 293 293 293 293
296 296 296 296 296 295 295 295 295 294 294 294 294 294 294 294 294 294 293 292 292 292 293 293 293 293 291 291 292 292 293 293 293 293 293 293 293 293 293 293 293 293
296 295 296 296 296 295 295 295 295 294 294 294 294 294 295 294 294 294 294 293 292 292 292 293 293 292 291 292 292 293 292 293 293 293 293 293 293 293 293 293 293 293

ECMWFNIL_925_thetae_096.txt.gz
Theta_e
313 313 312 312 311 311 311 310 310 310 309 309 309 308 308 307 306 306 306 305 305 305 305 305 304 305 306 306 307 308 308 308 308 308 308 309 309 308 308 308 308 308
311 311 311 311 310 309 309 309 309 309 308 308 308 307 307 306 305 305 305 305 304 304 304 304 304 304 305 305 306 307 307 307 306 307 308 308 308 308 307 307 307 308
310 310 309 309 309 308 308 308 308 308 307 307 307 306 306 305 305 304 304 304 304 304 303 303 303 304 304 304 305 305 306 305 305 306 307 307 307 307 307 307 307 307
309 309 308 308 308 308 308 307 307 307 306 306 306 305 305 305 304 304 304 303 303 303 303 303 302 303 303 304 304 305 305 304 304 305 306 306 306 306 306 306 307 307
308 308 308 307 307 307 307 306 306 306 306 305 305 304 304 304 303 303 303 303 303 303 302 302 302 302 303 303 303 304 304 304 304 304 304 305 305 305 305 306 306 306
307 307 307 307 307 306 306 305 305 305 304 304 303 303 303 303 303 303 302 302 302 302 302 302 302 302 302 303 303 303 303 303 303 304 304 304 304 305 305 305 305 305
306 306 306 306 305 305 304 304 304 303 303 303 302 302 302 302 302 302 302 302 302 302 302 301 301 302 302 302 302 303 303 303 303 303 303 304 304 304 304 304 305 305
306 305 305 305 304 304 303 303 303 302 302 302 302 302 301 301 301 301 301 301 301 301 302 301 301 301 301 301 302 302 302 303 303 303 303 303 303 303 303 304 304 304
305 304 304 304 304 303 302 302 302 302 301 302 302 301 301 301 301 301 301 301 301 301 301 301 301 301 301 301 301 301 302 302 302 302 303 303 303 303 303 303 303 303
304 304 303 303 303 303 302 302 302 301 301 301 301 301 301 301 301 300 300 301 301 301 301 300 300 300 300 300 301 301 301 301 302 302 302 302 302 302 302 302 302 302
304 303 303 303 302 302 302 302 301 301 301 301 300 300 300 300 300 300 300 300 301 301 300 300 300 299 299 299 300 300 301 301 301 301 301 302 302 302 302 302 301 301
303 303 303 302 302 302 301 301 301 301 300 300 300 300 300 300 300 300 300 300 300 300 300 299 299 298 298 298 299 300 300 301 301 301 301 301 301 301 301 301 301 301
303 303 302 302 301 301 301 300 300 300 300 300 300 300 300 300 300 300 300 300 300 300 299 299 298 297 297 297 297 299 300 300 301 301 301 301 301 301 301 300 300 300
303 302 301 301 301 301 300 300 300 300 300 300 299 300 299 299 299 299 299 300 300 300 299 298 297 296 295 295 296 297 299 300 300 301 301 301 301 301 300 300 299 299
302 301 301 301 300 300 300 300 300 299 299 299 299 300 299 299 299 299 299 299 300 300 299 297 296 295 293 293 294 295 297 300 300 300 300 300 300 300 300 299 299 298
302 301 301 300 300 300 300 300 300 300 299 299 299 299 299 299 299 299 299 299 300 300 299 297 295 293 292 293 294 294 297 299 300 300 300 300 300 299 299 299 298 298
301 301 300 300 300 300 300 299 299 299 299 299 299 299 299 299 299 299 299 299 299 299 298 297 294 292 292 293 294 295 297 299 300 300 299 299 299 298 298 298 298 297
301 300 300 300 300 299 299 299 299 299 299 299 299 299 299 299 298 299 299 299 299 299 298 296 294 292 292 293 294 295 297 298 299 299 299 299 298 298 298 297 297 297
300 300 299 299 299 299 299 299 299 299 299 299 299 299 298 298 298 298 298 299 299 299 298 296 293 292 292 293 294 295 296 298 299 299 298 298 298 298 297 297 296 296
300 299 299 299 299 299 299 299 299 299 299 299 299 299 298 298 298 298 298 298 299 299 298 295 293 292 292 293 294 295 296 297 298 298 298 298 297 297 297 297 296 296
300 300 299 299 299 299 299 299 299 299 299 299 299 298 298 298 298 298 298 298 298 298 298 296 293 292 292 293 294 295 296 297 298 298 298 297 297 297 297 297 296 296
300 299 299 299 299 299 299 299 299 300 299 299 298 298 298 298 297 297 297 297 297 297 298 297 294 292 292 293 294 295 296 297 297 297 297 297 297 297 297 297 296 295
300 299 299 299 299 299 299 299 299 299 299 299 298 298 298 298 297 297 297 297 297 297 297 297 295 292 292 293 293 294 296 297 297 297 297 297 297 297 296 296 296 295
299 299 299 299 299 299 299 299 299 299 299 299 299 298 298 298 298 297 297 297 297 296 296 297 296 293 291 292 292 293 295 297 296 296 297 296 296 296 296 296 296 295
299 299 299 299 299 299 299 299 299 299 299 299 298 298 298 298 298 297 297 297 297 296 295 296 296 294 291 291 292 292 293 295 296 295 296 296 296 296 296 296 296 295
299 299 299 299 299 300 299 299 299 299 299 299 298 298 298 298 298 298 298 297 297 297 296 295 295 295 292 291 292 292 293 294 295 295 295 296 296 295 296 296 295 296

ECMWFNIL_925_thetae_099.txt.gz
Theta_e
317 317 316 316 315 315 315 314 314 314 314 314 313 312 311 310 310 310 309 309 308 308 308 308 309 309 309 310 310 309 308 309 310 311 311 310 311 311 311 311 311 310
315 315 315 314 314 314 313 313 313 313 313 312 312 311 310 309 308 308 308 308 307 307 307 308 308 308 308 309 309 309 308 308 309 310 309 309 309 309 310 310 310 310
314 314 313 313 313 313 312 312 312 312 311 311 310 309 309 308 308 307 307 307 307 306 306 307 308 307 308 308 308 308 307 307 308 308 308 308 308 308 309 309 309 309
313 313 312 312 312 312 312 312 311 311 310 309 309 308 308 307 307 306 307 306 306 306 306 306 307 307 307 307 307 307 307 307 307 307 307 308 308 308 308 308 308 308
312 312 312 311 311 311 311 310 309 309 308 308 307 307 307 306 306 306 306 306 306 306 306 306 306 306 306 306 307 307 307 307 307 306 307 307 307 307 307 307 308 308
311 311 311 311 310 310 309 309 308 307 307 306 306 306 306 306 306 306 305 306 305 305 305 305 305 305 306 306 306 306 306 306 306 306 306 306 306 306 306 307 307 306
310 310 309 309 308 308 307 307 307 306 306 306 306 305 305 305 305 305 305 305 305 304 304 304 305 305 305 305 305 306 306 306 306 305 306 306 306 306 306 306 306 305
309 309 308 307 307 307 306 306 306 306 306 305 305 305 305 305 305 305 305 305 304 304 304 304 304 304 304 304 305 305 305 305 305 305 305 305 305 305 305 305 305 305
308 308 307 307 306 306 306 306 305 305 305 305 305 304 304 304 304 304 304 305 304 303 303 303 303 303 303 303 304 305 305 305 305 305 305 305 305 305 304 304 304 304
308 307 307 306 306 306 306 305 305 305 304 304 304 304 304 304 304 304 304 304 304 303 303 302 302 302 302 302 303 304 304 305 304 305 305 304 304 304 304 304 303 303
307 307 306 306 306 305 305 304 304 304 303 303 303 303 303 303 303 304 304 304 303 302 302 301 300 300 300 301 302 303 304 305 304 304 304 304 304 304 303 303 303 302
306 306 306 305 305 305 304 304 304 303 303 303 303 303 303 303 303 303 303 303 303 302 301 300 299 298 298 299 300 301 303 304 304 304 304 304 303 303 303 302 302 302
305 305 305 305 304 304 303 303 303 302 303 303 303 303 303 303 303 303 303 303 302 301 300 299 298 297 296 297 299 301 303 304 304 304 304 303 303 303 302 302 301 301
305 304 304 304 303 303 303 302 302 302 302 303 302 302 302 303 303 303 303 303 302 301 299 298 297 296 295 296 297 299 302 304 303 303 303 303 303 302 301 301 300 300
304 304 303 303 303 302 302 302 302 302 302 302 302 302 302 303 303 303 303 303 302 301 299 297 296 295 295 296 297 298 301 303 303 303 303 302 302 301 301 300 300 299
303 303 303 302 302 302 302 302 302 302 302 302 302 302 302 302 303 303 303 302 302 300 299 297 295 294 295 296 297 297 299 302 303 303 302 302 301 301 300 300 299 299
303 303 302 302 302 301 301 301 301 301 302 302 302 302 302 302 303 303 303 302 301 299 298 297 295 294 295 296 297 298 299 301 302 302 302 301 301 300 300 299 299 299
303 302 302 301 301 301 301 301 301 301 301 302 302 302 302 302 302 303 303 303 301 298 297 296 294 294 295 296 297 298 299 300 302 301 301 301 300 300 300 299 299 298
302 302 302 301 301 301 301 300 300 301 301 302 302 302 302 302 302 303 303 303 302 299 297 295 294 293 295 296 297 298 299 300 301 301 300 300 300 300 299 299 299 298
302 301 301 300 301 301 301 301 301 301 301 301 301 301 302 302 302 302 302 302 302 300 297 295 293 292 294 295 297 298 298 300 301 301 301 300 299 299 299 299 298 298
301 301 301 301 301 301 301 301 301 301 301 301 301 301 301 301 301 301 301 301 302 301 298 295 293 292 292 294 296 298 299 299 300 300 300 300 300 299 299 298 298 298
301 302 302 301 301 301 301 302 302 301 301 301 301 301 300 300 300 300 300 300 301 301 300 297 293 291 292 293 294 297 299 299 299 299 300 300 299 299 299 299 298 297
302 301 301 301 301 301 301 302 302 302 301 301 301 301 301 300 300 300 300 299 299 300 300 298 294 291 292 292 293 296 298 299 298 299 299 299 299 298 298 298 298 297
302 301 302 301 301 301 301 302 302 301 301 301 301 301 300 300 300 300 300 299 298 298 299 299 295 292 292 292 292 294 297 299 298 297 298 299 299 298 298 298 297 297
301 301 302 302 302 302 302 302 302 302 301 301 301 301 300 300 300 300 300 300 299 297 297 298 297 294 292 292 293 293 295 297 297 297 297 299 299 298 298 298 297 297
301 302 302 302 302 302 302 302 302 302 301 301 300 300 300 300 300 300 300 300 300 299 298 297 297 296 294 293 293 293 294 295 297 296 296 297 299 298 297 297 297 297

ECMWFNIL_925_thetae_102.txt.gz
Theta_e
319 319 318 318 317 317 316 316 315 315 314 313 312 311 310 310 310 309 308 308 308 308 309 309 309 309 309 309 309 308 308 309 309 309 308 308 308 309 309 309 309 309
317 317 317 316 316 315 315 314 314 314 313 311 310 310 309 308 308 308 308 307 307 307 308 308 308 308 308 308 308 308 308 308 308 308 308 308 308 308 308 309 309 308
316 316 315 315 314 314 314 313 313 312 311 310 309 309 308 308 307 307 307 307 307 307 307 307 308 307 307 307 307 308 308 307 307 307 308 307 307 308 308 308 308 307
315 314 314 314 313 313 313 312 311 310 309 309 308 308 308 307 307 307 307 306 306 306 306 306 307 307 307 307 307 307 307 306 306 307 307 307 307 307 307 307 307 306
314 313 313 313 312 312 311 310 309 308 308 308 308 308 307 307 307 307 306 306 306 306 306 306 306 306 306 307 306 306 307 306 306 306 307 307 306 306 306 306 306 305
313 312 312 312 311 310 309 308 308 308 307 307 307 307 307 306 306 306 306 305 305 305 305 305 305 306 306 306 306 306 306 306 306 306 306 306 306 305 305 305 305 305
311 311 310 310 309 308 308 307 307 307 307 307 306 306 306 306 306 306 305 305 305 305 305 304 304 305 305 306 306 306 306 305 306 306 306 305 305 305 305 304 304 304
310 310 309 308 308 307 307 307 306 306 306 306 306 305 305 305 306 306 305 304 304 303 303 303 303 304 304 305 305 305 305 305 305 305 305 305 305 304 304 304 304 303
309 308 308 307 307 307 307 307 306 306 305 305 305 305 305 305 305 305 305 304 303 302 302 301 301 302 302 303 304 305 306 305 305 305 305 305 304 304 303 303 303 302
308 308 307 307 307 306 306 306 305 305 305 305 304 304 305 305 305 305 304 303 302 301 300 300 299 300 301 302 303 305 306 305 305 305 304 304 304 303 303 303 302 302
308 307 307 307 306 306 305 305 304 304 304 304 304 304 304 305 305 304 303 302 301 300 299 299 297 298 299 301 302 304 305 305 304 305 304 304 303 303 302 302 301 301
307 307 306 306 305 305 304 304 304 304 304 304 304 304 304 304 304 304 303 301 300 299 299 297 296 296 297 300 302 303 305 305 304 304 304 303 303 302 301 301 300 300
307 306 306 305 305 304 304 304 304 304 304 304 304 304 304 304 304 304 303 301 299 298 297 296 295 296 297 299 301 303 304 304 304 304 303 303 302 302 301 300 300 300
306 305 305 304 304 304 303 303 303 303 304 304 304 304 304 304 304 304 303 301 299 298 296 295 295 296 297 298 300 302 303 304 304 304 303 302 302 301 301 300 300 299
305 304 304 304 303 303 303 303 303 303 303 303 303 304 304 304 304 303 302 300 299 298 296 295 295 296 297 298 299 301 302 303 303 303 302 302 301 301 301 300 300 299
304 304 303 303 303 303 303 303 303 303 303 303 303 304 304 304 304 302 301 299 298 298 296 295 295 296 297 297 299 300 301 302 303 302 302 302 301 301 301 300 300 299
304 303 303 303 303 302 302 302 303 303 303 303 303 303 304 304 304 303 301 299 297 296 295 294 294 296 297 298 299 300 301 302 302 302 302 301 300 300 300 300 299 298
303 303 303 302 302 302 302 302 302 302 303 303 303 303 304 304 304 304 302 299 297 295 294 293 293 295 297 298 299 300 301 301 302 302 301 301 300 300 300 299 299 298
303 302 302 302 302 301 301 301 302 302 302 303 303 303 303 303 304 304 303 301 298 296 293 292 292 293 296 297 298 299 300 301 302 302 301 301 300 299 299 299 299 298
302 302 302 301 301 301 301 302 302 302 302 302 302 302 302 302 303 303 303 302 299 297 294 292 292 293 295 297 298 299 300 300 301 301 301 301 300 298 299 299 298 298
302 302 301 302 302 302 302 302 302 302 302 301 302 302 301 301 301 302 303 302 301 298 294 292 292 293 294 296 298 299 300 299 299 300 300 300 300 298 298 299 298 297
301 301 302 302 302 302 302 302 302 302 301 301 301 301 301 301 300 301 301 302 302 299 295 293 292 293 293 295 297 298 299 298 298 299 299 300 300 298 298 299 298 297
302 302 303 302 302 302 302 302 302 302 302 301 301 301 301 301 300 299 299 300 301 300 297 294 292 292 292 293 294 297 298 298 297 297 298 299 299 299 298 298 298 297
303 302 303 302 303 303 303 302 302 302 302 302 301 301 301 301 301 299 298 298 298 299 299 296 294 293 293 292 293 294 296 298 297 296 297 297 298 299 298 298 298 297
303 302 302 302 303 303 303 302 302 302 302 301 301 301 301 301 301 301 300 298 297 297 298 298 297 296 295 293 292 292 294 296 297 296 296 296 297 298 298 298 297 297
302 302 302 302 302 303 302 302 302 302 302 302 301 301 301 301 301 301 301 300 299 298 298 298 298 298 297 295 293 292 293 295 296 296 295 295 297 297 298 297 297 297

ECMWFNIL_925_thetae_105.txt.gz
Theta_e
320 320 319 318 317 316 316 315 314 312 311 309 309 308 308 308 307 306 305 306 307 307 307 307 307 307 307 307 307 307 307 307 307 307 306 307 307 307 306 305 304 304
318 318 317 316 316 315 315 314 313 311 309 308 307 307 307 307 306 306 305 305 305 306 307 306 307 307 307 307 306 306 307 307 307 306 306 306 306 306 306 305 304 304
317 316 316 315 314 314 314 313 311 309 308 308 307 306 306 306 306 306 306 305 305 305 306 306 306 306 306 306 306 306 306 306 306 306 305 306 305 305 305 304 303 303
316 315 315 314 314 313 312 311 309 308 308 307 307 306 306 306 305 305 305 305 305 305 306 306 306 306 306 305 306 305 306 306 306 305 305 305 304 304 304 303 303 302
314 314 314 313 313 311 310 309 308 308 307 307 306 306 306 306 305 305 305 305 305 304 305 305 306 306 306 305 305 305 305 305 305 305 304 304 304 304 303 302 302 301
314 313 313 312 311 309 308 308 308 307 307 306 306 306 306 305 305 305 305 304 304 304 304 305 305 305 305 305 305 305 305 305 305 304 304 303 303 303 303 302 301 301
312 312 311 310 309 308 307 307 307 306 306 306 306 306 305 305 304 304 304 303 303 303 303 303 304 305 305 305 305 305 305 305 304 304 304 303 303 302 302 301 301 300
311 310 309 308 308 307 307 306 306 306 305 305 305 305 305 304 304 303 302 302 301 301 302 302 303 304 305 305 305 305 305 304 304 304 303 303 302 302 301 301 301 300
310 309 308 307 307 306 306 305 305 305 305 305 305 305 305 304 303 302 301 300 298 298 299 300 302 303 305 305 305 304 304 304 304 303 303 302 302 301 301 300 300 299
308 308 307 307 306 306 305 305 305 304 304 305 305 304 304 303 302 302 300 298 296 295 295 298 300 303 304 305 305 304 304 304 304 303 302 302 301 300 300 300 300 299
307 307 306 306 306 305 305 305 304 304 304 304 305 304 303 302 301 299 297 295 294 294 294 296 299 302 304 304 304 304 304 304 303 302 302 301 301 300 300 299 299 299
306 306 306 305 305 305 304 304 304 304 304 304 304 304 303 302 300 297 295 293 293 294 295 296 298 301 303 304 304 304 303 303 303 302 301 301 300 300 299 299 298 299
306 306 305 304 304 304 304 304 304 304 304 304 304 304 303 302 300 297 294 293 294 294 295 296 298 300 302 303 303 303 303 303 302 301 301 301 301 300 299 299 298 298
305 305 304 304 304 304 304 304 304 304 304 304 304 304 303 302 300 297 294 294 294 295 296 297 298 299 301 302 303 303 303 302 302 301 301 300 300 300 300 299 298 297
305 304 304 304 304 304 304 303 303 304 304 304 304 303 302 301 299 295 294 294 294 295 296 297 297 299 300 301 302 302 302 302 301 301 301 300 300 300 299 299 298 297
304 304 303 303 303 303 303 303 303 303 304 304 303 302 302 301 297 293 293 293 294 294 295 296 297 298 299 300 301 301 301 301 301 301 300 299 299 300 299 299 299 297
304 303 303 303 303 303 303 303 303 303 304 304 303 303 302 301 299 295 292 292 293 293 294 296 297 298 298 300 301 301 301 301 301 301 300 299 299 299 299 299 298 297
303 303 303 303 302 302 303 303 303 303 303 304 304 303 302 302 301 298 293 292 293 293 293 295 296 298 299 299 300 300 301 301 301 300 300 300 298 298 299 299 297 297
303 303 302 302 302 302 302 303 303 303 303 304 304 304 303 302 302 300 295 292 293 293 293 294 296 297 298 299 299 300 299 300 300 300 300 300 298 298 299 298 297 297
302 302 302 302 302 302 302 303 303 303 303 303 303 303 303 302 302 301 297 293 292 293 293 293 295 296 298 299 299 298 298 298 299 300 300 300 299 298 299 298 297 297
302 302 301 301 301 302 302 302 302 302 302 302 302 302 303 302 302 302 299 294 292 292 292 292 292 293 295 298 298 297 296 296 298 299 299 299 299 298 298 298 297 297
302 301 300 300 301 302 302 302 302 302 302 301 301 301 302 302 301 301 301 297 293 292 292 292 292 292 292 294 295 296 295 294 295 297 298 299 299 298 298 298 297 297
301 301 301 301 302 302 302 301 301 301 301 300 300 300 300 301 301 301 301 298 294 294 295 295 294 293 291 291 292 293 293 293 293 295 297 298 298 298 298 298 297 297
301 301 302 302 302 302 302 301 301 301 300 300 300 298 297 297 299 299 299 296 295 296 297 297 297 295 292 291 291 292 292 292 292 293 295 296 297 297 297 297 297 296
301 302 302 302 302 302 301 301 301 301 301 301 300 300 298 298 298 298 297 297 297 298 298 298 298 296 293 291 291 291 291 292 292 293 293 294 295 296 297 297 296 296
302 302 302 302 302 301 301 301 301 301 301 301 301 301 301 300 300 299 299 299 299 299 299 299 299 297 294 291 291 291 292 292 294 294 294 294 294 295 296 296 295 295

ECMWFNIL_925_thetae_108.txt.gz
Theta_e
323 322 320 317 317 316 315 314 312 309 308 307 307 306 305 306 306 307 307 307 307 307 307 306 306 306 306 306 306 306 306 306 305 305 305 304 303 303 302 302 300 299
320 320 318 316 315 314 313 312 310 308 307 307 306 306 305 305 305 306 306 306 306 306 306 306 306 306 306 306 306 305 305 305 304 304 304 303 302 302 302 301 298 296
317 317 316 315 314 313 312 310 308 306 306 306 306 305 305 305 305 305 306 306 306 305 305 306 305 305 305 305 306 305 304 304 304 304 303 302 302 301 301 300 297 296
316 315 315 314 313 312 311 308 306 305 305 305 305 305 305 305 304 305 305 305 306 305 305 305 305 305 305 305 305 304 304 304 303 303 302 302 301 301 301 299 296 296
315 314 314 313 312 312 309 307 306 306 305 305 305 305 305 305 304 304 304 305 305 305 305 305 304 304 304 304 304 304 304 303 303 303 302 302 301 301 300 298 296 297
314 313 313 312 311 310 308 306 306 306 306 306 305 305 305 305 304 304 304 304 305 305 305 305 304 304 304 304 304 304 304 303 303 302 302 301 301 300 299 297 297 297
313 313 312 311 310 308 307 306 306 306 306 305 305 304 304 304 304 303 303 303 304 304 305 305 304 304 304 304 304 304 303 303 302 302 301 301 300 299 298 297 297 298
312 312 311 309 308 307 307 306 306 305 305 305 304 304 303 303 302 302 302 302 303 303 304 305 305 304 304 304 304 303 303 302 302 301 301 300 299 298 298 298 298 298
311 311 309 308 307 306 306 306 306 306 305 304 303 303 302 302 300 299 299 299 301 302 304 305 304 304 304 304 304 303 302 302 302 301 301 300 298 298 298 298 298 298
310 309 308 307 306 305 305 305 305 305 304 304 303 303 302 301 299 297 295 295 297 300 303 304 304 304 304 304 304 303 302 302 301 301 300 299 298 298 298 298 298 298
308 307 307 306 306 305 305 305 305 305 304 303 303 302 302 300 298 295 293 293 294 297 301 304 304 304 304 303 303 303 302 301 301 301 300 299 299 298 298 298 298 297
307 306 306 305 305 305 304 304 304 304 304 303 303 301 299 296 294 293 293 294 294 296 300 303 304 304 303 303 303 302 302 301 301 301 300 300 299 298 298 297 297 297
306 306 305 305 305 304 304 304 304 304 303 303 302 300 296 293 293 293 294 294 294 296 300 303 303 303 303 303 303 302 301 300 300 300 300 300 299 298 298 298 297 296
306 306 305 305 304 304 304 304 304 304 303 303 302 299 295 293 293 293 294 294 295 296 299 302 303 303 303 303 302 302 301 301 300 300 299 300 299 298 298 298 297 296
306 305 304 304 304 304 304 304 303 303 303 302 301 298 294 293 293 294 294 294 295 297 299 301 302 302 302 302 302 301 301 301 300 299 299 299 299 299 298 298 297 296
305 304 304 304 304 303 304 303 303 303 303 302 300 295 293 293 294 294 294 294 296 297 298 300 301 301 302 301 301 301 301 300 300 299 299 299 299 299 298 297 297 296
304 304 304 304 304 304 304 304 304 303 303 301 298 294 293 293 293 294 294 294 296 297 298 299 300 300 301 301 301 300 300 300 300 300 299 298 298 299 298 297 296 296
304 304 303 303 303 304 304 304 303 303 302 301 299 297 294 292 293 293 293 294 295 296 298 299 299 300 300 300 300 300 300 300 300 300 299 298 298 298 298 297 296 296
304 303 303 303 303 303 304 304 303 303 302 301 301 299 295 292 293 293 293 294 295 296 298 298 299 299 299 299 300 299 300 300 299 299 299 298 298 298 297 297 296 296
303 303 303 303 303 303 303 303 303 303 302 302 302 300 295 292 293 293 293 293 294 295 297 298 298 298 298 298 298 298 299 299 299 299 299 298 298 298 297 297 296 296
303 303 303 303 303 303 303 303 303 303 303 302 302 301 297 293 292 292 292 292 293 294 295 296 296 297 298 298 297 296 297 298 299 299 298 298 297 298 297 297 297 296
303 302 302 302 303 302 303 303 303 303 303 303 302 302 299 294 291 292 291 291 291 292 292 292 293 294 295 295 294 293 294 296 298 298 298 298 297 297 297 297 297 296
303 302 302 302 302 302 303 303 303 303 303 303 302 302 301 296 292 292 292 292 292 291 291 291 291 291 291 292 292 292 293 295 296 297 298 297 297 297 297 296 295 295
302 302 302 302 302 302 302 302 302 302 302 303 302 302 301 298 294 294 295 295 295 295 293 291 290 290 290 291 291 291 291 293 294 295 296 296 296 297 296 295 295 295
302 302 302 302 302 302 301 301 301 301 301 302 302 302 302 299 296 294 296 297 298 297 296 294 291 290 290 290 291 291 291 291 292 293 294 295 295 295 295 294 295 295
302 301 301 301 301 302 301 301 301 300 299 300 301 301 300 298 295 295 297 298 298 298 298 296 293 291 290 290 291 291 291 291 291 293 294 294 294 294 295 295 295 295

ECMWFNIL_925_thetae_111.txt.gz
Theta_e
325 323 321 319 317 315 312 310 308 307 307 307 307 307 307 307 307 307 306 306 306 307 307 306 306 305 305 305 305 304 304 303 302 302 301 298 296 296 296 296 296 297
323 322 320 318 316 314 312 309 307 306 306 306 307 307 307 307 307 306 306 305 306 306 306 306 305 305 305 304 304 304 303 302 302 301 300 297 295 295 296 296 296 297
322 321 319 317 316 314 311 308 306 305 305 305 306 306 306 306 306 306 306 305 305 305 306 305 305 305 304 303 303 303 303 302 301 301 299 297 295 296 296 296 296 296
322 319 318 317 315 313 310 308 306 305 305 305 306 306 306 306 305 305 305 305 305 305 305 305 305 304 303 303 303 303 302 301 301 300 298 297 296 296 296 297 296 296
320 318 317 316 314 311 309 307 306 305 305 305 305 305 305 305 305 305 305 305 305 305 305 305 304 304 303 303 302 302 302 301 301 300 298 297 297 297 297 297 296 296
318 316 315 314 312 309 307 306 306 305 305 305 304 304 305 305 305 304 304 304 304 304 304 304 304 303 303 303 302 302 301 301 300 299 297 297 297 297 297 297 296 296
315 315 314 312 310 307 306 305 305 305 305 305 304 304 304 304 304 304 304 304 304 304 304 304 304 304 303 303 302 302 301 300 299 297 297 297 297 297 297 297 296 295
314 313 312 310 308 306 305 305 305 305 305 305 304 304 303 303 303 304 304 304 304 303 304 304 303 303 303 302 302 301 301 300 298 297 297 297 297 297 296 296 295 295
313 312 310 309 307 306 306 306 305 305 304 304 304 304 303 303 302 303 304 304 304 304 304 304 303 303 303 302 302 301 301 300 298 298 297 297 297 297 296 295 294 294
311 310 309 307 306 306 306 305 305 304 304 304 303 303 302 302 302 302 303 304 304 304 304 304 303 303 302 302 301 301 301 300 299 298 298 298 297 297 296 296 295 295
310 309 308 307 306 306 305 305 304 304 303 303 302 302 300 299 299 300 302 303 304 304 303 303 303 303 302 302 301 301 300 300 299 299 298 298 298 297 297 296 295 295
309 308 307 306 306 305 305 304 304 303 303 303 302 302 300 296 295 297 300 302 304 304 303 303 303 303 302 302 301 301 300 300 300 299 298 298 298 297 297 296 296 296
308 307 306 306 305 305 304 304 303 303 303 303 302 301 298 294 293 295 298 301 303 303 303 303 303 303 302 302 301 300 300 300 300 299 299 299 298 297 297 296 296 296
307 306 305 305 305 304 304 304 303 303 302 302 300 298 295 293 293 294 297 300 302 303 303 303 302 302 302 301 301 300 300 299 299 299 299 299 298 298 297 296 296 295
307 306 305 304 304 304 304 303 303 302 302 300 297 294 293 294 294 295 296 299 302 303 303 302 302 302 302 301 301 300 300 299 299 299 299 299 298 298 297 296 296 295
306 306 305 304 304 304 303 303 302 302 301 298 294 293 293 294 294 295 296 299 301 302 302 302 302 302 302 301 301 300 300 299 298 298 298 299 299 298 297 296 296 295
305 305 304 304 304 304 303 303 302 302 301 297 294 293 294 294 294 295 296 298 300 301 302 302 301 301 301 301 301 300 299 299 299 298 298 298 298 298 296 296 296 295
305 305 304 304 304 304 303 302 302 301 299 295 293 293 294 294 294 295 296 297 299 300 301 301 301 301 300 300 300 300 300 299 299 299 298 297 298 297 296 296 296 296
305 304 304 303 303 303 303 302 302 300 297 293 292 293 293 294 294 295 296 297 298 299 300 300 300 300 300 300 300 300 300 300 299 299 298 297 297 297 297 296 296 296
304 304 303 303 303 303 302 302 301 299 297 294 292 292 293 293 294 295 296 297 298 299 299 299 299 299 299 299 299 299 299 299 299 299 298 298 297 297 297 296 296 295
304 303 303 303 303 303 302 302 301 300 298 295 292 292 293 293 293 294 296 297 298 298 298 298 298 298 298 298 298 298 298 298 299 298 298 297 297 297 297 297 296 295
303 303 303 303 303 303 302 302 301 301 299 296 292 292 293 293 293 294 295 296 297 297 298 298 298 298 297 296 294 294 295 297 298 298 298 297 297 297 297 296 295 294
303 303 303 303 303 303 302 302 301 301 300 296 293 292 292 292 293 293 293 294 295 295 296 295 294 294 293 292 291 292 293 296 297 297 298 297 297 297 296 295 294 295
303 303 303 303 303 303 302 302 301 302 301 298 293 291 292 291 291 291 291 291 292 292 292 291 291 291 291 290 291 292 293 295 296 297 297 297 297 297 295 294 294 295
303 303 303 303 303 303 302 302 302 302 302 300 295 291 291 291 291 292 292 291 291 290 290 290 290 290 290 290 290 290 291 292 294 295 296 296 296 296 295 294 295 295
303 303 303 302 303 303 303 302 302 302 302 301 296 291 291 293 294 295 295 294 293 292 291 290 290 290 290 290 290 290 290 291 292 294 294 295 295 295 294 295 295 295

ECMWFNIL_925_thetae_114.txt.gz
Theta_e
327 325 324 322 320 319 317 315 313 311 309 309 309 308 308 308 307 307 306 306 305 305 305 304 304 304 303 303 302 301 299 296 296 296 295 295 295 294 294 293 293 293
326 324 323 321 319 316 315 313 311 309 308 308 308 308 307 307 307 307 306 306 306 305 305 304 304 304 303 302 302 300 298 296 295 295 295 295 294 294 294 294 293 292
325 323 322 321 318 315 312 310 309 308 307 307 308 307 306 306 306 306 306 306 305 305 304 304 303 303 303 302 301 300 297 296 295 295 295 295 295 294 294 293 292 292
323 322 321 319 317 314 311 308 307 306 307 307 307 307 306 306 305 306 306 305 305 305 304 304 303 303 302 301 300 299 297 296 295 295 295 295 295 294 293 293 292 292
323 322 320 317 315 313 309 307 306 306 306 306 306 306 306 306 305 305 305 305 305 304 304 303 302 302 302 301 300 299 297 296 295 295 295 296 295 294 293 292 292 292
322 320 318 316 314 312 309 307 306 305 306 306 306 306 306 305 305 305 305 305 304 304 303 303 302 302 301 301 300 299 297 295 295 295 295 295 295 294 293 293 292 292
320 318 316 315 313 311 309 307 305 305 305 306 306 305 305 305 305 304 304 304 304 304 303 303 302 302 301 301 299 297 296 295 295 295 295 295 294 294 294 293 292 292
319 317 315 314 311 309 308 306 305 305 305 305 305 305 305 304 304 304 304 304 304 303 303 303 302 302 301 300 298 295 295 295 295 296 296 295 294 294 294 293 292 292
318 316 314 312 310 308 307 306 305 304 304 305 305 305 304 304 304 304 304 303 303 303 303 303 302 302 301 300 298 296 296 296 296 297 296 296 295 295 294 294 292 292
316 314 312 310 309 307 306 306 305 304 304 304 304 304 304 304 304 303 303 303 303 303 303 302 302 302 301 300 299 297 297 297 297 297 297 296 296 295 295 294 293 293
314 312 311 309 307 306 306 305 305 304 304 304 303 303 303 304 304 303 303 303 303 303 303 302 302 301 301 300 299 298 298 298 298 297 297 297 296 296 295 294 293 293
312 311 309 308 307 306 305 305 305 304 304 303 303 303 303 303 303 304 303 303 303 303 302 302 302 301 301 300 299 298 298 298 298 298 297 297 296 296 295 294 293 293
311 310 309 308 307 306 305 305 304 304 304 303 303 302 301 302 303 303 303 303 303 303 303 302 302 301 301 300 300 299 299 299 299 298 297 297 296 296 296 294 293 293
310 309 308 307 306 305 305 304 304 304 303 302 302 300 299 299 302 303 303 303 303 303 303 303 302 302 301 300 300 300 299 299 299 299 298 297 297 296 296 294 293 294
309 308 307 306 306 305 304 304 303 303 303 302 302 300 296 296 300 302 303 303 303 303 303 303 302 302 301 300 300 299 299 299 299 299 298 298 297 296 296 295 294 294
308 307 306 305 305 304 304 303 303 302 302 302 300 297 294 294 298 301 302 303 303 303 302 302 302 301 301 300 299 299 299 298 299 299 298 298 297 296 296 295 295 295
307 306 305 305 304 304 303 303 303 302 302 300 296 294 293 294 297 299 301 302 303 302 302 302 302 301 300 300 300 299 299 298 298 298 298 298 297 296 296 296 295 294
306 305 305 304 303 303 303 302 302 302 300 297 294 293 294 294 296 299 301 302 302 302 302 302 301 301 301 300 300 299 299 298 298 298 297 298 297 297 296 296 296 294
306 305 304 303 303 303 302 302 301 301 300 296 293 293 294 295 296 298 300 301 301 301 301 301 301 301 301 300 300 299 299 299 298 298 298 297 297 297 296 296 296 294
305 304 303 303 303 302 302 302 301 301 299 295 293 293 294 295 296 298 299 300 301 301 301 301 300 300 300 300 300 299 299 299 299 299 298 297 297 297 296 296 296 294
304 304 303 302 302 302 302 302 302 300 297 294 293 293 294 294 296 297 298 299 300 300 300 300 300 299 299 299 299 299 299 299 299 299 298 298 297 297 297 296 295 294
304 303 303 302 302 302 302 302 301 298 295 293 293 293 294 295 296 297 298 298 299 299 299 299 299 298 298 299 298 298 298 298 298 298 298 298 297 297 297 296 294 294
304 303 303 302 302 301 302 301 300 297 294 292 292 293 294 295 296 297 298 298 298 298 298 298 298 298 297 296 295 294 295 296 298 298 298 297 297 297 296 295 294 295
303 303 303 302 302 301 302 300 299 298 295 293 292 293 293 294 295 296 297 297 298 298 298 297 296 295 293 292 292 292 294 295 297 297 297 297 297 297 295 294 294 295
303 303 302 302 301 302 301 300 299 299 296 293 292 293 293 294 295 296 297 297 297 297 296 294 293 291 291 290 291 292 293 294 296 297 297 297 297 297 295 294 294 295
303 303 303 302 302 301 301 300 300 299 297 293 292 293 293 293 294 294 294 294 294 293 292 291 290 290 290 290 290 291 291 293 294 295 296 296 296 296 295 294 295 295

ECMWFNIL_925_thetae_117.txt.gz
Theta_e
328 326 324 323 322 321 319 317 316 314 312 311 311 311 309 308 307 306 305 305 305 304 303 302 302 301 299 297 296 296 295 295 294 294 294 293 293 293 293 293 293 295
327 326 324 322 321 319 318 316 314 312 311 310 310 309 308 307 306 306 305 305 305 304 303 302 302 301 298 296 295 295 295 294 294 294 293 293 293 293 293 292 293 294
326 325 324 323 321 318 317 315 312 311 310 309 309 308 308 307 306 306 305 305 304 304 303 302 301 300 298 296 295 295 295 295 294 294 293 293 293 293 293 292 292 294
325 324 324 322 321 319 316 313 310 309 309 308 308 308 307 307 306 306 305 305 304 304 303 302 301 299 297 296 295 295 295 295 294 294 294 294 294 293 293 293 293 294
324 324 323 321 320 318 315 311 309 308 308 308 307 307 307 306 306 306 305 304 304 303 303 302 300 299 298 296 295 295 296 295 295 295 296 295 294 293 293 294 294 295
324 322 321 320 318 316 313 310 308 307 307 307 307 306 306 306 306 306 305 304 304 303 302 301 300 299 297 296 295 296 297 296 296 296 296 295 294 293 294 295 295 296
323 321 320 318 316 314 312 309 307 307 306 306 306 306 306 306 306 305 305 304 303 303 302 301 300 299 297 296 296 296 296 296 297 297 296 295 295 294 295 296 296 296
322 320 318 316 315 313 310 308 307 306 306 306 306 306 305 305 305 305 304 304 303 302 302 301 301 299 297 295 296 296 296 297 297 297 297 296 296 295 295 296 296 296
321 319 316 315 314 312 309 308 306 305 305 306 306 306 305 305 305 305 304 304 303 302 302 301 301 299 296 295 297 297 297 297 298 298 298 297 296 296 296 296 296 296
319 317 315 314 313 311 309 307 306 305 305 305 305 305 305 305 304 304 304 304 303 302 302 301 301 298 295 296 297 298 298 298 298 298 298 298 296 296 296 296 296 296
318 316 315 314 312 310 308 307 306 305 305 305 305 305 305 304 304 304 304 303 303 302 302 302 301 298 296 297 297 298 299 298 298 298 298 298 297 296 296 296 296 296
316 315 314 313 311 309 308 307 306 305 305 305 305 304 304 304 304 304 304 303 303 302 302 302 301 299 298 297 298 298 299 299 298 298 298 298 297 296 296 296 296 296
315 315 313 312 311 309 308 306 305 304 304 304 304 304 304 304 304 304 303 303 303 302 302 302 301 300 299 298 298 299 299 299 299 299 298 298 297 297 296 296 296 296
314 314 312 311 310 308 307 306 305 304 304 304 303 303 304 304 304 303 303 303 303 302 302 302 301 300 299 298 299 299 300 299 299 299 299 298 298 297 296 296 296 296
314 313 311 310 309 308 307 306 305 304 304 303 303 303 303 303 303 303 303 303 303 303 302 302 301 300 299 299 299 299 300 300 300 299 299 298 298 297 297 297 296 296
312 311 309 309 308 307 306 305 305 304 304 303 303 303 303 303 303 303 303 303 303 302 302 302 301 301 300 300 299 299 300 300 300 300 299 299 298 298 298 297 296 296
311 310 308 308 307 306 305 305 304 304 304 303 303 302 301 302 303 303 303 303 303 302 302 302 301 301 301 300 299 299 299 299 300 299 299 299 299 298 298 298 297 296
309 308 307 307 306 306 305 304 304 304 303 303 302 301 300 300 302 303 303 303 303 303 303 302 301 301 300 300 299 299 299 299 300 299 299 299 299 298 298 298 297 297
309 308 307 306 305 305 305 304 304 303 302 302 302 300 298 298 300 302 303 303 303 303 303 302 302 301 300 300 300 299 299 299 299 299 299 299 299 298 298 298 297 297
308 307 306 305 305 304 304 304 303 302 302 302 301 298 295 296 299 302 302 303 303 302 302 302 301 301 300 300 300 300 299 298 298 299 298 298 298 298 298 298 296 295
307 306 306 305 304 304 303 303 302 302 302 301 298 295 294 295 298 301 302 302 302 302 302 302 301 301 300 300 300 299 299 299 299 299 298 298 298 297 297 297 295 294
306 304 304 303 302 303 302 302 302 302 302 299 295 294 294 295 297 300 301 302 302 302 302 301 301 301 300 300 300 299 299 299 299 299 298 298 297 297 297 296 294 294
304 304 303 303 302 302 302 302 302 302 301 298 295 294 294 295 297 300 301 301 301 301 301 301 300 300 300 299 299 299 299 299 299 299 299 298 297 297 297 295 294 294
307 307 305 304 303 303 303 302 302 302 301 298 294 293 294 295 297 299 300 300 301 300 300 300 300 299 299 299 299 299 298 298 299 299 299 298 297 297 296 295 294 294
309 308 306 305 304 303 302 302 302 301 300 296 293 293 294 295 296 298 299 300 300 300 300 300 299 299 298 298 297 295 295 296 298 299 299 298 298 297 296 295 294 294
308 307 306 305 304 303 302 302 302 301 298 295 293 293 294 295 296 297 298 299 299 299 299 298 298 298 296 294 293 292 293 295 297 298 298 298 298 297 297 296 295 295

ECMWFNIL_925_thetae_120.txt.gz
Theta_e
328 326 326 326 325 324 323 322 321 321 320 319 318 317 316 315 313 313 312 311 310 309 308 308 307 306 305 305 305 304 304 304 303 303 303 303 303 304 304 304 303 303
327 326 326 326 325 324 323 321 320 320 319 318 317 316 315 314 313 312 311 310 309 309 308 307 306 305 305 305 304 304 304 304 303 303 303 302 302 303 304 303 303 303
327 327 326 327 326 324 322 320 319 319 318 317 316 315 314 313 312 312 311 310 309 308 307 306 305 305 304 304 304 304 304 304 303 303 303 302 302 302 303 302 302 302
327 328 327 326 324 322 320 319 318 317 317 316 315 314 313 313 312 311 310 310 309 308 307 306 305 304 304 304 304 304 304 303 303 303 302 302 302 302 302 302 302 302
326 326 325 324 323 322 319 317 317 316 316 315 314 313 313 312 312 311 310 309 309 308 307 305 304 304 304 304 304 304 303 303 302 302 302 302 302 302 302 302 302 302
324 324 325 323 322 321 319 316 316 315 315 315 314 313 312 312 311 310 310 309 309 307 306 305 304 304 304 304 304 304 303 303 302 301 301 302 301 301 301 301 301 301
323 324 324 321 320 319 317 315 315 315 314 314 313 312 312 311 311 310 309 309 308 307 306 305 304 304 304 304 304 303 303 302 301 301 301 301 301 301 301 301 300 300
323 325 323 320 319 317 315 315 315 314 313 313 312 312 311 311 310 310 309 309 308 307 306 305 305 304 304 304 303 303 303 302 301 301 301 301 301 301 301 301 301 300
323 323 321 320 318 316 314 315 315 314 313 312 312 311 311 310 310 309 309 308 307 307 306 305 304 303 303 303 303 303 303 302 302 301 301 301 301 301 301 301 301 301
323 321 319 319 317 315 314 314 314 313 312 312 311 311 311 310 310 309 309 308 307 307 306 305 304 303 303 303 303 303 303 303 302 302 301 301 301 301 301 300 301 301
322 320 318 318 317 315 314 314 313 313 312 311 311 310 310 310 309 309 308 308 307 306 306 305 303 303 303 303 303 303 303 303 303 302 301 300 300 300 301 301 301 301
321 319 318 317 316 314 314 313 313 312 312 311 310 310 310 309 309 308 308 308 307 307 306 305 303 302 303 303 303 303 303 303 303 302 302 301 300 300 300 301 301 301
320 318 317 316 315 314 314 313 313 312 311 310 310 309 309 309 309 308 308 308 307 306 306 305 303 303 303 303 303 303 303 303 303 303 302 301 300 300 300 301 301 301
320 318 317 316 315 314 314 313 312 312 311 310 309 309 309 308 308 308 308 307 307 307 306 305 304 303 303 303 303 303 304 303 303 303 303 302 301 301 300 300 301 301
320 317 316 316 315 314 314 313 312 311 310 310 309 309 309 308 308 308 308 307 307 307 306 305 305 304 303 303 303 304 304 304 303 303 303 302 302 301 301 300 300 300
318 317 316 316 315 314 313 312 312 311 310 309 309 309 308 308 308 307 307 307 307 307 307 306 305 305 304 303 303 304 304 304 304 303 303 303 302 302 301 300 301 299
317 316 316 315 314 314 313 312 311 311 310 309 308 309 308 308 308 307 307 307 307 307 307 306 306 305 303 302 302 304 304 304 304 303 303 303 302 303 302 301 301 300
317 316 315 314 313 313 312 311 310 310 309 309 309 309 308 308 307 307 307 307 306 307 306 306 306 305 301 300 301 302 304 304 304 304 303 303 303 303 302 302 301 301
316 314 313 312 312 311 311 310 309 309 309 309 309 308 308 307 307 307 307 307 306 306 306 306 306 304 301 299 299 300 302 304 304 303 303 303 303 302 302 302 301 301
314 312 311 311 310 309 309 309 308 309 309 308 308 308 307 307 307 307 308 307 307 307 306 307 306 304 301 300 299 299 300 303 304 303 303 303 303 302 302 302 301 301
312 311 309 308 307 307 308 307 307 308 308 307 308 307 307 307 307 307 307 307 307 307 306 307 306 304 301 300 299 299 299 301 303 303 303 303 303 302 303 302 300 300
311 310 308 307 308 309 308 307 307 307 307 306 306 306 306 306 306 306 307 306 306 306 307 307 306 304 301 300 300 299 299 300 303 304 303 304 303 302 303 302 300 301
312 311 308 309 311 311 307 306 306 306 305 305 304 304 304 304 305 305 306 306 306 306 306 307 306 303 301 300 300 300 299 301 303 304 303 304 303 302 302 301 300 300
312 311 310 311 312 310 306 305 305 305 304 304 303 303 303 303 304 304 304 305 305 306 306 306 305 302 301 301 300 300 300 302 304 303 303 304 303 302 302 301 299 297
311 311 312 313 311 307 305 304 304 304 304 303 302 301 301 301 302 303 304 304 305 305 305 305 305 302 301 301 300 300 300 302 304 303 303 304 303 302 302 301 299 295
310 311 312 312 308 306 305 304 304 304 303 302 301 300 300 300 301 302 303 303 304 305 305 305 305 302 300 300 300 299 299 301 302 303 303 303 303 302 301 301 300 297

ECMWFNIL_925_thetae_123.txt.gz
Theta_e
333 332 332 332 331 330 330 330 329 328 326 324 323 321 320 319 318 317 316 315 314 313 312 312 310 310 309 309 309 308 309 309 308 308 309 309 309 309 309 308 308 308
332 332 332 332 331 331 330 329 328 327 325 324 323 322 320 318 317 316 315 313 312 312 312 311 310 310 309 309 309 308 308 308 307 307 308 308 308 308 308 308 307 307
332 331 331 331 331 330 330 328 327 326 325 324 323 321 319 317 316 314 313 313 312 311 311 310 309 309 309 309 308 308 308 307 307 307 307 307 307 307 307 307 306 306
332 332 331 331 330 329 328 327 326 325 324 322 321 320 318 317 315 314 313 312 312 311 310 309 309 308 308 308 308 308 308 307 307 307 307 307 307 307 307 306 306 305
332 332 332 331 329 328 327 326 325 324 323 321 320 319 317 316 315 314 313 312 311 311 310 309 308 308 308 308 308 308 307 307 307 307 307 306 306 306 306 306 306 305
332 331 331 330 328 326 325 325 324 323 322 321 319 318 317 316 315 314 313 312 311 310 309 308 308 308 308 308 308 307 307 306 306 306 306 306 306 305 305 305 305 305
331 331 330 328 327 325 324 323 322 322 321 320 318 317 316 315 314 313 313 312 310 309 308 308 308 308 308 308 308 307 306 306 306 306 306 305 305 305 304 304 304 304
331 330 329 327 325 324 323 322 321 321 320 319 317 316 316 314 314 313 312 311 310 309 308 308 308 308 308 308 308 307 306 305 305 305 305 305 305 305 304 304 304 304
330 329 328 325 324 323 322 321 321 320 319 318 317 316 315 314 313 312 312 311 310 309 308 308 308 308 308 308 307 306 306 305 305 305 305 305 305 304 304 304 305 305
329 328 327 325 323 323 322 321 320 320 318 317 317 315 314 314 313 312 311 311 310 309 309 308 307 307 307 307 307 306 306 305 305 305 305 305 305 304 304 305 305 305
327 326 325 324 323 322 321 320 320 319 318 317 316 314 314 314 313 312 312 311 310 309 309 308 307 307 307 307 307 306 306 305 304 305 305 305 305 304 304 305 305 305
327 325 325 325 323 321 320 320 320 319 317 316 315 314 314 313 312 311 311 311 310 309 308 308 307 306 306 306 306 306 306 305 305 304 304 304 304 304 304 305 305 304
327 326 326 324 322 320 320 319 319 318 317 316 315 314 314 313 312 311 311 310 309 309 308 307 306 306 306 306 307 306 306 306 305 304 304 304 304 304 305 305 305 304
326 326 325 324 321 320 319 318 318 318 317 316 314 314 313 312 311 311 311 310 309 309 308 307 306 306 306 306 306 306 306 306 306 305 304 304 304 304 304 305 304 302
326 325 323 322 321 320 318 318 318 318 317 315 314 313 312 311 311 311 311 310 310 309 308 307 306 306 307 306 306 306 307 306 306 305 305 304 304 304 304 304 303 301
324 323 321 320 320 319 318 318 318 317 316 315 314 313 311 311 311 311 310 310 310 309 309 307 307 306 306 306 306 307 307 306 306 306 305 304 304 304 304 303 301 299
323 321 321 320 319 318 318 318 317 317 316 314 313 312 311 311 311 310 310 310 310 310 309 308 307 307 306 305 306 306 307 307 307 306 306 305 305 304 304 303 301 299
322 321 320 320 319 318 317 317 316 316 315 314 313 312 311 311 311 310 310 310 310 310 310 309 308 307 305 304 305 306 306 307 307 307 306 306 305 305 304 304 303 302
322 322 321 320 319 318 317 316 315 315 315 313 312 312 311 311 311 311 310 311 310 310 310 310 309 308 305 303 304 305 306 307 307 307 307 306 306 306 305 304 304 304
322 322 322 320 318 317 316 316 315 314 314 312 312 312 312 311 311 310 310 310 310 310 310 309 309 308 305 303 303 305 305 306 307 307 306 306 306 306 306 305 304 304
320 319 320 318 317 316 315 315 314 313 313 312 312 312 312 311 311 310 310 310 309 310 310 309 309 308 304 301 301 304 305 305 306 307 306 306 306 306 306 305 304 305
319 318 317 316 316 315 315 315 314 313 313 312 312 312 311 310 310 310 310 310 309 310 310 309 309 308 304 299 299 301 303 304 306 306 306 306 306 305 306 305 303 304
318 317 316 315 315 314 314 315 314 313 313 312 311 311 310 309 309 309 310 310 309 309 309 309 309 307 304 300 298 298 301 303 305 306 306 307 306 305 305 305 303 303
317 317 316 316 315 314 314 314 314 313 312 310 310 309 308 308 308 308 308 309 308 309 309 309 309 307 304 301 298 297 299 302 305 306 306 307 307 305 305 305 303 303
317 317 316 315 315 314 313 313 313 311 310 309 308 308 307 306 306 306 307 307 307 308 308 308 308 307 304 301 299 298 298 300 304 307 306 306 307 305 305 305 303 301
318 316 315 315 314 313 312 311 311 309 308 308 307 307 306 305 304 304 304 304 305 306 306 307 308 307 305 302 301 300 298 299 304 307 306 306 307 305 305 305 303 299